[[{"header":{"parameterUnit":"m.s-1","parameterCategory":1,"la1":30.6,"la2":28.766,"lo1":-90.7593,"lo2":-88.6598,"dx":0.0162,"dy":0.0183,"nx":116,"ny":114,"refTime":"2022-12-24T18:00:00:Z","depth":0,"parameterNumber":2,"parameterNumberName":"U-component_of_WINDS"},"data":[0.0,0.0,0.0,0.0,0.0,0.0,0.0,0.0,0.0,0.0,0.0,0.0,0.0,0.0,0.0,0.0,0.0,0.0,0.0,0.0,0.0,0.0,0.0,0.0,0.0,0.0,0.0,0.0,0.0,0.0,0.0,0.0,0.0,0.0,0.0,0.0,0.0,0.0,0.0,0.0,0.0,0.0,0.0,0.0,0.0,0.0,0.0,0.0,0.0,0.0,0.0,0.0,0.0,0.0,0.0,0.0,0.0,0.0,0.0,0.0,0.0,0.0,0.0,0.0,0.0,0.0,0.0,0.0,0.0,0.0,0.0,0.0,0.0,0.0,0.0,0.0,0.0,0.0,0.0,0.0,0.0,0.0,0.0,0.0,0.0,0.0,0.0,0.0,0.0,0.0,0.0,0.0,0.0,0.0,0.0,0.0,0.0,0.0,0.0,0.0,0.0,0.0,0.0,0.0,0.0,0.0,0.0,0.0,0.0,0.0,0.0,0.0,0.0,0.0,0.0,0.0,0.0,0.0,0.0,0.0,0.0,0.0,0.0,0.0,0.0,0.0,0.0,0.0,0.0,0.0,0.0,0.0,0.0,0.0,0.0,0.0,0.0,0.0,0.0,0.0,0.0,0.0,0.0,0.0,0.0,0.0,0.0,0.0,0.0,0.0,0.0,0.0,0.0,0.0,0.0,0.0,0.0,0.0,0.0,0.0,0.0,0.0,0.0,0.0,0.0,0.0,0.0,0.0,0.0,0.0,0.0,0.0,0.0,0.0,0.0,0.0,0.0,0.0,0.0,0.0,0.0,0.0,0.0,0.0,0.0,0.0,0.0,0.0,0.0,0.0,0.0,0.0,0.0,0.0,0.0,0.0,0.0,0.0,0.0,0.0,0.0,0.0,0.0,0.0,0.0,0.0,0.0,0.0,0.0,0.0,0.0,0.0,0.0,0.0,0.0,0.0,0.0,0.0,0.0,0.0,0.0,0.0,0.0,0.0,0.0,0.0,0.0,0.0,0.0,0.0,0.0,0.0,0.0,0.0,0.0,0.0,0.0,0.0,0.0,0.0,0.0,0.0,0.0,0.0,0.0,0.0,0.0,0.0,0.0,0.0,0.0,0.0,0.0,0.0,0.0,0.0,0.0,0.0,0.0,0.0,0.0,0.0,0.0,0.0,0.0,0.0,0.0,0.0,0.0,0.0,0.0,0.0,0.0,0.0,0.0,0.0,0.0,0.0,0.0,0.0,0.0,0.0,0.0,0.0,0.0,0.0,0.0,0.0,0.0,0.0,0.0,0.0,0.0,0.0,0.0,0.0,0.0,0.0,0.0,0.0,0.0,0.0,0.0,0.0,0.0,0.0,0.0,0.0,0.0,0.0,0.0,0.0,0.0,0.0,0.0,0.0,0.0,0.0,0.0,0.0,0.0,0.0,0.0,0.0,0.0,0.0,0.0,0.0,0.0,0.0,0.0,0.0,0.0,0.0,0.0,0.0,0.0,0.0,0.0,0.0,0.0,0.0,0.0,0.0,0.0,0.0,0.0,0.0,0.0,0.0,0.0,0.0,0.0,0.0,0.0,0.0,0.0,0.0,0.0,0.0,0.0,0.0,0.0,0.0,0.0,0.0,0.0,0.0,0.0,0.0,0.0,0.0,0.0,0.0,0.0,0.0,0.0,0.0,0.0,0.0,0.0,0.0,0.0,0.0,0.0,0.0,0.0,0.0,0.0,0.0,0.0,0.0,0.0,0.0,0.0,0.0,0.0,0.0,0.0,0.0,0.0,0.0,0.0,0.0,0.0,0.0,0.0,0.0,0.0,0.0,0.0,0.0,0.0,0.0,0.0,0.0,0.0,0.0,0.0,0.0,0.0,0.0,0.0,0.0,0.0,0.0,0.0,0.0,0.0,0.0,0.0,0.0,0.0,0.0,0.0,0.0,0.0,0.0,0.0,0.0,0.0,0.0,0.0,0.0,0.0,0.0,0.0,0.0,0.0,0.0,0.0,0.0,0.0,0.0,0.0,0.0,0.0,0.0,0.0,0.0,0.0,0.0,0.0,0.0,0.0,0.0,0.0,0.0,0.0,0.0,0.0,0.0,0.0,0.0,0.0,0.0,0.0,0.0,0.0,0.0,0.0,0.0,0.0,0.0,0.0,0.0,0.0,0.0,0.0,0.0,0.0,0.0,0.0,0.0,0.0,0.0,0.0,0.0,0.0,0.0,0.0,0.0,0.0,0.0,0.0,0.0,0.0,0.0,0.0,0.0,0.0,0.0,0.0,0.0,0.0,0.0,0.0,0.0,0.0,0.0,0.0,0.0,0.0,0.0,0.0,0.0,0.0,0.0,0.0,0.0,0.0,0.0,0.0,0.0,0.0,0.0,0.0,0.0,0.0,0.0,0.0,0.0,0.0,0.0,0.0,0.0,0.0,0.0,0.0,0.0,0.0,0.0,0.0,0.0,0.0,0.0,0.0,0.0,0.0,0.0,0.0,0.0,0.0,0.0,0.0,0.0,0.0,0.0,0.0,0.0,0.0,0.0,0.0,0.0,0.0,0.0,0.0,0.0,0.0,0.0,0.0,0.0,0.0,0.0,0.0,0.0,0.0,0.0,0.0,0.0,0.0,0.0,0.0,0.0,0.0,0.0,0.0,0.0,0.0,0.0,0.0,0.0,0.0,0.0,0.0,0.0,0.0,0.0,0.0,0.0,0.0,0.0,0.0,0.0,0.0,0.0,0.0,0.0,0.0,0.0,0.0,0.0,0.0,0.0,0.0,0.0,0.0,0.0,0.0,0.0,0.0,0.0,0.0,0.0,0.0,0.0,0.0,0.0,0.0,0.0,0.0,0.0,0.0,0.0,0.0,0.0,0.0,0.0,0.0,0.0,0.0,0.0,0.0,0.0,0.0,0.0,0.0,0.0,0.0,0.0,0.0,0.0,0.0,0.0,0.0,0.0,0.0,0.0,0.0,0.0,0.0,0.0,0.0,0.0,0.0,0.0,0.0,0.0,0.0,0.0,0.0,0.0,0.0,0.0,0.0,0.0,0.0,0.0,0.0,0.0,0.0,0.0,0.0,0.0,0.0,0.0,0.0,0.0,0.0,0.0,0.0,0.0,0.0,0.0,0.0,0.0,0.0,0.0,0.0,0.0,0.0,0.0,0.0,0.0,0.0,0.0,0.0,0.0,0.0,0.0,0.0,0.0,0.0,0.0,0.0,0.0,0.0,0.0,0.0,0.0,0.0,0.0,0.0,0.0,0.0,0.0,0.0,0.0,0.0,0.0,0.0,0.0,0.0,0.0,0.0,0.0,0.0,0.0,0.0,0.0,0.0,0.0,0.0,0.0,0.0,0.0,0.0,0.0,0.0,0.0,0.0,0.0,0.0,0.0,0.0,0.0,0.0,0.0,0.0,0.0,0.0,0.0,0.0,0.0,0.0,0.0,0.0,0.0,0.0,0.0,0.0,0.0,0.0,0.0,0.0,0.0,0.0,0.0,0.0,0.0,0.0,0.0,0.0,0.0,0.0,0.0,0.0,0.0,0.0,0.0,0.0,0.0,0.0,0.0,0.0,0.0,0.0,0.0,0.0,0.0,0.0,0.0,0.0,0.0,0.0,0.0,0.0,0.0,0.0,0.0,0.0,0.0,0.0,0.0,0.0,0.0,0.0,0.0,0.0,0.0,0.0,0.0,0.0,0.0,0.0,0.0,0.0,0.0,0.0,0.0,0.0,0.0,0.0,0.0,0.0,0.0,0.0,0.0,0.0,0.0,0.0,0.0,0.0,0.0,0.0,0.0,0.0,0.0,0.0,0.0,0.0,0.0,0.0,0.0,0.0,0.0,0.0,0.0,0.0,0.0,0.0,0.0,0.0,0.0,0.0,0.0,0.0,0.0,0.0,0.0,0.0,0.0,0.0,0.0,0.0,0.0,0.0,0.0,0.0,0.0,0.0,0.0,0.0,0.0,0.0,0.0,0.0,0.0,0.0,0.0,0.0,0.0,0.0,0.0,0.0,0.0,0.0,0.0,0.0,0.0,0.0,0.0,0.0,0.0,0.0,0.0,0.0,0.0,0.0,0.0,0.0,0.0,0.0,0.0,0.0,0.0,0.0,0.0,0.0,0.0,0.0,0.0,0.0,0.0,0.0,0.0,0.0,0.0,0.0,0.0,0.0,0.0,0.0,0.0,0.0,0.0,0.0,0.0,0.0,0.0,0.0,0.0,0.0,0.0,0.0,0.0,0.0,0.0,0.0,0.0,0.0,0.0,0.0,0.0,0.0,0.0,0.0,0.0,0.0,0.0,0.0,0.0,0.0,0.0,0.0,0.0,0.0,0.0,0.0,0.0,0.0,0.0,0.0,0.0,0.0,0.0,0.0,0.0,0.0,0.0,0.0,0.0,0.0,0.0,0.0,0.0,0.0,0.0,0.0,0.0,0.0,0.0,0.0,0.0,0.0,0.0,0.0,0.0,0.0,0.0,0.0,0.0,0.0,0.0,0.0,0.0,0.0,0.0,0.0,0.0,0.0,0.0,0.0,0.0,0.0,0.0,0.0,0.0,0.0,0.0,0.0,0.0,0.0,0.0,0.0,0.0,0.0,0.0,0.0,0.0,0.0,0.0,0.0,0.0,0.0,0.0,0.0,0.0,0.0,0.0,0.0,0.0,0.0,0.0,0.0,0.0,0.0,0.0,0.0,0.0,0.0,0.0,0.0,0.0,0.0,0.0,0.0,0.0,0.0,0.0,0.0,0.0,0.0,0.0,0.0,0.0,0.0,0.0,0.0,0.0,0.0,0.0,0.0,0.0,0.0,0.0,0.0,0.0,0.0,0.0,0.0,0.0,0.0,0.0,0.0,0.0,0.0,0.0,0.0,0.0,0.0,0.0,0.0,0.0,0.0,0.0,0.0,0.0,0.0,0.0,0.0,0.0,0.0,0.0,0.0,0.0,0.0,0.0,0.0,0.0,0.0,0.0,0.0,0.0,0.0,0.0,0.0,0.0,0.0,0.0,0.0,0.0,0.0,0.0,0.0,0.0,0.0,0.0,0.0,0.0,0.0,0.0,0.0,0.0,0.0,0.0,0.0,0.0,0.0,0.0,0.0,0.0,0.0,0.0,0.0,0.0,0.0,0.0,0.0,0.0,0.0,0.0,0.0,0.0,0.0,0.0,0.0,0.0,0.0,0.0,0.0,0.0,0.0,0.0,0.0,0.0,0.0,0.0,0.0,0.0,0.0,0.0,0.0,0.0,0.0,0.0,0.0,0.0,0.0,0.0,0.0,0.0,0.0,0.0,0.0,0.0,0.0,0.0,0.0,0.0,0.0,0.0,0.0,0.0,0.0,0.0,0.0,0.0,0.0,0.0,0.0,0.0,0.0,0.0,0.0,0.0,0.0,0.0,0.0,0.0,0.0,0.0,0.0,0.0,0.0,0.0,0.0,0.0,0.0,0.0,0.0,0.0,0.0,0.0,0.0,0.0,0.0,0.0,0.0,0.0,0.0,0.0,0.0,0.0,0.0,0.0,0.0,0.0,0.0,0.0,0.0,0.0,0.0,0.0,0.0,0.0,0.0,0.0,0.0,0.0,0.0,0.0,0.0,0.0,0.0,0.0,0.0,0.0,0.0,0.0,0.0,0.0,0.0,0.0,0.0,0.0,0.0,0.0,0.0,0.0,0.0,0.0,0.0,0.0,0.0,0.0,0.0,0.0,0.0,0.0,0.0,0.0,0.0,0.0,0.0,0.0,0.0,0.0,0.0,0.0,0.0,0.0,0.0,0.0,0.0,0.0,0.0,0.0,0.0,0.0,0.0,0.0,0.0,0.0,0.0,0.0,0.0,0.0,0.0,0.0,0.0,0.0,0.0,0.0,0.0,0.0,0.0,0.0,0.0,0.0,0.0,0.0,0.0,0.0,0.0,0.0,0.0,0.0,0.0,0.0,0.0,0.0,0.0,0.0,0.0,0.0,0.0,0.0,0.0,0.0,0.0,0.0,0.0,0.0,0.0,0.0,0.0,0.0,0.0,0.0,0.0,0.0,0.0,0.0,0.0,0.0,0.0,0.0,0.0,0.0,0.0,0.0,0.0,0.0,0.0,0.0,0.0,0.0,0.0,0.0,-0.7147,-0.5837,0.0,0.0,0.0,0.0,0.0,0.0,0.0,0.0,0.0,0.0,0.0,0.0,0.0,0.0,0.0,0.0,0.0,0.0,0.0,0.0,0.0,0.0,0.0,-0.1529,-0.1398,-0.1173,-0.1596,0.0,0.0,0.0,0.0,0.0,0.0,0.0,0.0,0.0,0.0,0.0,0.0,-1.0654,-1.0627,-0.8663,-0.6382,-0.3925,0.0,0.0,0.0,0.0,0.0,0.0,0.0,0.0,0.0,0.0,0.0,0.0,0.0,0.0,0.0,0.0,0.0,0.0,0.0,0.0,0.0,0.0,0.0,0.0,0.0,0.0,0.0,0.0,0.0,0.0,0.0,0.0,0.0,0.0,0.0,0.0,0.0,0.0,0.0,0.0,0.0,0.0,0.0,0.0,0.0,0.0,0.0,0.0,0.0,0.0,0.0,0.0,0.0,0.0,0.0,0.0,0.0,0.0,0.0,0.0,0.0,0.0,0.0,0.0,0.0,0.0,0.0,0.0,0.0,0.0,-0.8339,-0.7284,0.0,0.0,0.0,0.0,0.0,0.0,0.0,0.0,0.0,0.0,0.0,0.0,0.0,0.0,0.0,0.0,0.0,0.0,0.0,0.0,0.0,-0.2682,-0.2243,-0.299,-0.3404,-0.312,-0.3238,-0.3869,-0.5156,-0.2618,0.0,0.0,0.0,0.0,0.0,-0.8193,-1.1973,0.0,0.0,0.0,-1.5286,-1.3869,0.0,0.0,0.0,0.0,0.0,0.0,0.0,0.0,0.0,0.0,0.0,0.0,0.0,0.0,0.0,0.0,0.0,0.0,0.0,0.0,0.0,0.0,0.0,0.0,0.0,0.0,0.0,0.0,0.0,0.0,0.0,0.0,0.0,0.0,0.0,0.0,0.0,0.0,0.0,0.0,0.0,0.0,0.0,0.0,0.0,0.0,0.0,0.0,0.0,0.0,0.0,0.0,0.0,0.0,0.0,0.0,0.0,0.0,0.0,0.0,0.0,0.0,0.0,0.0,0.0,0.0,-1.1569,-1.1386,-1.1805,-1.1592,-1.164,-1.1767,-0.9629,-0.9036,-0.9522,-0.7668,0.0,0.0,0.0,0.0,0.0,0.0,0.0,0.0,0.0,0.0,0.0,0.0,0.0,0.0,0.0,0.0,0.0,0.0,0.0,-0.3192,-0.374,-0.463,-0.5365,-0.5826,-0.6557,-0.6868,-0.6565,-0.5823,0.0,0.0,0.0,0.0,-0.4939,-0.617,-0.9133,-1.3932,0.0,0.0,-1.8915,-1.8565,-1.7319,-1.516,0.0,0.0,0.0,0.0,0.0,0.0,0.0,0.0,0.0,0.0,0.0,0.0,0.0,0.0,0.0,0.0,0.0,0.0,0.0,0.0,0.0,0.0,0.0,0.0,0.0,0.0,0.0,0.0,0.0,0.0,0.0,0.0,0.0,0.0,0.0,0.0,0.0,0.0,0.0,0.0,0.0,0.0,0.0,0.0,-0.9714,-0.9351,0.0,0.0,0.0,0.0,0.0,0.0,0.0,0.0,0.0,0.0,0.0,0.0,0.0,-1.2824,-1.3303,-1.3873,-1.4064,-1.3912,-1.4399,-1.4371,-1.3805,-1.3805,-1.3372,-1.2653,-1.226,0.0,-1.0607,-1.0044,0.0,0.0,0.0,0.0,0.0,0.0,0.0,0.0,0.0,0.0,0.0,0.0,0.0,0.0,0.0,0.0,0.0,0.0,0.0,0.0,0.0,-0.8041,-0.9569,-1.0993,-1.1331,-1.0947,-0.9737,-0.7836,0.0,0.0,0.0,-0.5342,-0.7062,-0.9887,-1.3634,-1.8352,-2.1453,-2.2775,-2.2397,-2.2538,-2.1383,-1.9125,-1.7053,-1.3723,-0.9545,-0.7953,0.0,0.0,0.0,0.0,0.0,0.0,0.0,0.0,0.0,0.0,0.0,0.0,0.0,0.0,0.0,0.0,0.0,0.0,0.0,0.0,0.0,0.0,0.0,0.0,0.0,0.0,0.0,0.0,0.0,0.0,0.0,0.0,0.0,0.0,0.0,0.0,0.0,0.0,0.0,-1.0147,-1.0449,-1.0303,-0.9485,-0.8636,0.0,0.0,0.0,0.0,0.0,0.0,0.0,0.0,0.0,-1.48,-1.4863,-1.5172,-1.5841,-1.5899,-1.5851,-1.5733,-1.5619,-1.5665,-1.5724,-1.5724,-1.5394,-1.4709,-1.4311,-1.3705,-1.2793,-1.1282,-1.014,-0.9255,0.0,0.0,0.0,0.0,-0.785,-0.7805,0.0,0.0,0.0,0.0,0.0,0.0,0.0,0.0,0.0,0.0,0.0,0.0,-0.9529,-1.1599,-1.3612,-1.527,-1.5532,-1.5023,-1.359,-1.0506,-0.8842,0.0,-0.7169,-0.7064,-0.9137,-1.3907,-1.8649,-2.3252,-2.5798,-2.6643,-2.5888,-2.617,-2.4898,-2.2357,-2.2372,-1.8529,-1.2023,-1.1354,-0.921,0.0,0.0,0.0,0.0,0.0,0.0,0.0,0.0,0.0,0.0,0.0,0.0,0.0,0.0,0.0,0.0,0.0,0.0,0.0,0.0,0.0,0.0,0.0,0.0,0.0,0.0,0.0,0.0,0.0,0.0,0.0,0.0,0.0,0.0,0.0,0.0,0.0,0.0,-1.1038,-1.1479,-1.1499,-1.1064,-1.0299,0.0,0.0,0.0,0.0,0.0,0.0,-1.3957,-1.4066,-1.4935,-1.6876,-1.6917,-1.7306,-1.8037,-1.7696,-1.7482,-1.7491,-1.6941,-1.6793,-1.7207,-1.7207,-1.6862,-1.6376,-1.5824,-1.5392,-1.4852,-1.2495,-1.1276,-1.0835,-0.9895,-0.9273,-0.8991,-0.947,-0.9493,-0.9465,0.0,0.0,0.0,0.0,0.0,0.0,0.0,0.0,0.0,0.0,0.0,-1.0254,-1.2108,-1.4663,-1.6479,-1.7027,-1.8155,-1.8577,-1.7927,-1.4745,-1.2326,-1.1024,-0.8727,-0.8004,-0.9078,-1.6173,-2.1568,-2.508,-2.7993,-2.9408,-2.9345,-2.9485,-2.82,-2.5731,-2.523,-2.1753,-1.625,-1.539,-1.348,-1.0675,0.0,0.0,0.0,0.0,0.0,0.0,0.0,0.0,0.0,0.0,0.0,0.0,0.0,0.0,0.0,0.0,0.0,0.0,0.0,0.0,0.0,0.0,0.0,0.0,0.0,0.0,0.0,0.0,0.0,0.0,0.0,0.0,0.0,0.0,0.0,0.0,0.0,0.0,0.0,-1.2842,-1.3058,0.0,0.0,0.0,0.0,-1.3171,-1.3794,-1.4872,-1.643,-1.6659,-1.7369,-1.8889,-1.893,-1.8982,-1.8998,-1.8998,-1.8998,-1.8998,-1.8931,-1.8586,-1.7969,-1.7969,-1.7472,-1.6567,-1.6567,-1.6437,-1.6088,-1.4173,-1.2949,-1.2349,-1.1919,-1.1326,-1.0679,-1.092,-1.0954,-1.0968,0.0,0.0,0.0,-0.1829,-0.2813,-0.3779,-0.4161,-0.5361,-0.6598,-0.7586,-1.0587,-1.3448,-1.5617,-1.8792,-2.1479,-2.3282,-2.3868,-2.3286,-2.1343,-1.7937,-1.5671,-1.4977,-1.1882,-1.2536,-1.7609,-2.1538,-2.4965,-2.7954,-2.9543,-3.0272,-3.0174,-3.0751,-3.0125,-2.8486,-2.818,-2.5863,-2.2012,-1.9102,-1.6353,-1.3703,-1.1264,-0.8656,0.0,0.0,0.0,0.0,0.0,0.0,0.0,0.0,0.0,0.0,0.0,0.0,0.0,0.0,0.0,0.0,0.0,0.0,0.0,0.0,0.0,0.0,0.0,0.0,0.0,0.0,0.0,0.0,0.0,0.0,0.0,0.0,0.0,0.0,0.0,0.0,0.0,-1.4824,-1.4879,0.0,-1.3283,-1.457,-1.5388,-1.5248,-1.6461,-1.7523,-1.8197,-1.8257,-1.8578,-1.9198,-1.9208,-1.9065,-1.8721,-1.871,-1.871,-1.871,-1.8586,-1.8654,-1.8865,-1.8721,-1.8442,-1.7969,-1.7482,-1.6932,-1.6237,-1.5604,-1.4746,-1.3854,-1.3716,-1.3089,-1.2347,-1.2441,-1.2527,-1.2625,0.0,0.0,0.0,-0.2807,-0.3976,-0.5071,-0.5455,-0.6761,-0.8218,-0.964,-1.3079,-1.6466,-1.9241,-2.2243,-2.4878,-2.6841,-2.7215,-2.6349,-2.4018,-2.059,-1.8238,-1.7349,0.0,-1.6631,0.0,-2.4878,-2.7215,-3.015,-3.0652,-3.0964,-3.1067,-3.1722,-3.1405,-3.0399,-3.0475,-2.9276,-2.704,-2.3701,-2.0316,-1.6977,-1.4977,-1.254,-0.9859,0.0,0.0,0.0,0.0,0.0,0.0,0.0,0.0,0.0,0.0,0.0,0.0,0.0,0.0,0.0,0.0,0.0,0.0,0.0,0.0,0.0,0.0,0.0,0.0,0.0,0.0,0.0,0.0,0.0,0.0,0.0,0.0,0.0,0.0,0.0,-1.6224,-1.6364,-1.6535,-1.6212,-1.5114,-1.6715,-1.7697,-1.7214,-1.8691,-1.9518,-1.9452,-1.9518,-1.9594,-1.966,-1.9473,-1.9208,-1.8854,-1.8854,-1.8854,-1.8787,-1.8721,-1.8865,-1.9208,-1.9208,-1.9075,-1.8875,-1.8385,-1.7833,-1.7267,-1.7267,-1.6567,-1.5508,-1.5234,-1.453,-1.3688,-1.3688,-1.363,-1.3492,0.0,0.0,-0.4496,-0.4496,-0.5368,-0.6369,-0.7356,-0.8103,-0.9968,-1.3888,-1.6294,-1.9052,-2.2802,-2.4895,-2.6356,-2.7172,-2.784,-2.7553,-2.5953,-2.2724,-1.9974,0.0,0.0,0.0,-2.4581,-2.6081,-2.8303,-3.1413,-3.1443,-3.1672,-3.2159,-3.2485,-3.2203,-3.1467,-3.2089,-3.1867,-3.0991,-2.9078,-2.5486,-2.0783,-1.7342,-1.5581,-1.4531,0.0,0.0,0.0,0.0,0.0,0.0,0.0,0.0,0.0,0.0,0.0,0.0,0.0,0.0,0.0,0.0,0.0,0.0,0.0,0.0,0.0,0.0,0.0,0.0,0.0,0.0,0.0,0.0,0.0,0.0,0.0,0.0,0.0,-1.6781,-1.7025,-1.7262,-1.7402,-1.8008,-1.827,-1.7825,-1.9037,-1.9649,-1.9198,-2.0355,-2.0805,-2.0161,-2.0302,-2.0355,-2.0431,-1.9857,-1.9605,-1.9605,-1.9605,-1.955,-1.9351,-1.9473,-1.9407,-1.9142,-1.9208,-1.9208,-1.9075,-1.9075,-1.9075,-1.9075,-1.9075,-1.8442,-1.7335,-1.6349,-1.5438,-1.4601,-1.4601,-1.4122,-1.3492,-0.2837,-0.375,-0.4556,-0.4516,-0.5986,-0.7227,-0.7397,-0.907,-1.1284,-1.3983,-1.6703,-1.9751,-2.332,-2.5605,-2.718,-2.792,-2.8698,-2.8532,-2.7069,-2.3182,-2.0467,0.0,0.0,0.0,-2.847,-3.0124,-3.1449,-3.2315,-3.2704,-3.2877,-3.2877,-3.3133,-3.297,-3.2577,-3.2837,-3.2595,-3.1966,-3.054,-2.9008,-2.7101,-2.2101,-1.8557,-1.6129,0.0,0.0,0.0,0.0,0.0,0.0,0.0,0.0,0.0,0.0,0.0,0.0,0.0,0.0,0.0,0.0,0.0,0.0,0.0,0.0,0.0,0.0,0.0,0.0,0.0,0.0,0.0,0.0,0.0,0.0,0.0,0.0,-1.8702,-1.7954,-1.8691,-1.931,-1.9488,-1.9876,-2.0087,-1.9934,-2.043,-2.0677,-2.0549,-2.0869,-2.0996,-2.0805,-2.042,-2.0226,-2.0431,-1.9857,-1.9671,-1.9813,-1.9878,-1.9944,-1.9878,-1.9681,-1.9539,-1.9473,-1.9274,-1.9131,-1.9075,-1.9075,-1.8798,-1.8307,-1.8865,-1.8519,-1.7491,-1.6576,-1.5517,-1.4537,-1.3977,-1.371,-1.3492,-0.3147,-0.4243,-0.5175,-0.5147,-0.6736,-0.8,-0.7947,-0.9944,-1.2404,-1.5014,-1.7783,-2.1026,-2.4979,-2.6566,-2.7721,-2.8746,-2.8989,-2.8309,-2.6565,-2.3514,0.0,0.0,0.0,0.0,-3.2099,-3.3201,-3.388,-3.4074,-3.4356,-3.437,-3.4217,-3.4317,-3.4105,-3.3563,-3.3909,-3.3825,-3.3436,-3.2512,-3.1693,-3.0693,-2.6915,-2.3106,-1.9441,-1.7364,-1.5557,-1.3828,-1.2508,-1.1606,-1.1003,-1.0963,0.0,0.0,0.0,0.0,0.0,0.0,0.0,0.0,0.0,0.0,0.0,0.0,0.0,0.0,0.0,0.0,0.0,0.0,0.0,0.0,0.0,0.0,0.0,0.0,-1.9322,-2.0439,-1.9698,-2.0236,-2.0841,-2.1279,-2.1101,-2.1026,-2.1215,-2.1428,-2.1521,-2.1475,-2.1745,-2.1785,-2.1475,-2.0971,-2.0677,-2.0495,-1.9987,-1.9933,-2.0377,-2.0453,-2.0582,-2.0828,-2.0377,-2.0053,-1.9911,-1.9396,-1.9142,-1.9075,-1.9075,-1.8865,-1.8519,-1.8931,-1.8731,-1.8124,0.0,0.0,0.0,0.0,-1.3928,-1.3645,-0.3323,-0.4869,-0.6177,-0.6138,-0.7649,-0.8899,-0.8936,-1.0808,-1.3378,-1.6622,-1.9194,-2.2457,-2.7064,-2.7515,-2.8062,-2.9416,-2.8935,-2.7612,-2.5553,-2.4365,0.0,-2.9739,0.0,0.0,-3.511,-3.5402,-3.5776,-3.6214,-3.6161,-3.6078,-3.5827,-3.5811,-3.5333,-3.4562,-3.5077,-3.5245,-3.5018,-3.4521,-3.3653,-3.2547,-3.1221,-2.8047,-2.3751,-2.0921,-1.8792,-1.7264,-1.593,-1.4508,-1.3094,-1.2583,0.0,0.0,0.0,0.0,0.0,0.0,0.0,0.0,0.0,0.0,0.0,0.0,0.0,0.0,0.0,0.0,0.0,0.0,0.0,0.0,0.0,0.0,0.0,0.0,-2.1338,-2.2085,-2.1722,-2.1788,-2.2063,-2.2543,-2.1839,-2.1502,-2.2002,-2.2235,-2.2253,-2.2127,-2.291,-2.3009,-2.2297,0.0,0.0,0.0,0.0,-2.0575,-2.1267,-2.1209,-2.1562,-2.2118,-2.1499,-2.0921,-2.0499,-1.9876,-1.9421,-1.922,-1.922,-1.922,-1.922,-1.922,-1.9163,-1.8951,-1.8714,-1.8104,-1.7139,-1.5726,-1.4745,-1.3943,-0.3454,-0.5538,-0.7278,-0.7008,-0.8954,-1.0541,-1.0553,-1.2003,-1.439,-1.8099,-1.9829,-2.2564,-2.7443,-2.7705,-2.795,-2.9087,-2.8873,-2.8218,-2.7238,0.0,0.0,0.0,0.0,0.0,-3.556,-3.6571,-3.717,-3.7368,-3.7236,-3.7219,-3.7282,-3.7069,-3.6588,-3.5858,-3.605,-3.5963,-3.552,-3.504,-3.4888,-3.4704,-3.2754,-3.0173,-2.7299,-2.5047,-2.395,-2.3398,-2.1495,-1.9655,-1.8163,-1.8531,-1.7791,-1.6757,-1.6796,0.0,0.0,0.0,0.0,0.0,0.0,0.0,0.0,0.0,0.0,0.0,0.0,0.0,0.0,0.0,0.0,0.0,0.0,0.0,0.0,-2.1578,-2.3077,-2.3999,-2.3367,-2.3315,-2.3027,-2.2137,-2.2445,-2.2763,-2.2884,-2.3453,-2.3766,-2.3578,-2.4394,-2.4697,-2.4233,-2.3876,-2.3349,-2.2711,-2.2639,-2.2585,-2.2408,-2.2965,-2.3311,-2.3441,-2.306,0.0,-2.171,-2.1322,-2.0781,-2.0162,-2.0162,-2.0162,-2.0162,-2.0162,-2.0162,-1.9949,-1.8301,-1.7198,-1.6403,-1.5863,-1.5299,-1.4888,-0.5266,-0.6549,-0.7888,-0.8456,-0.9913,-1.0974,-1.0914,-1.219,-1.4341,-1.7706,-1.9114,-2.1466,-2.5819,-2.5702,-2.5576,-2.6351,-2.6044,-2.6226,0.0,0.0,0.0,0.0,0.0,-3.6205,-3.6831,-3.7911,-3.8461,-3.8557,-3.8834,-3.8834,-3.8557,-3.8396,-3.7911,-3.7138,-3.6861,-3.661,-3.6276,-3.5885,-3.5688,-3.5572,-3.469,-3.3353,-3.1629,-2.8531,-2.6986,-2.6316,-2.5275,-2.4001,-2.2815,-2.2894,-2.2365,-2.164,-2.1535,-2.1159,-2.0216,0.0,0.0,0.0,0.0,0.0,0.0,0.0,0.0,0.0,0.0,0.0,0.0,0.0,0.0,-2.1065,0.0,0.0,-2.3675,-2.4084,-2.5005,-2.5437,-2.4733,-2.4725,-2.4423,-2.3452,-2.3219,-2.3351,-2.404,-2.4128,-2.443,-2.5039,-2.5243,-2.523,-2.4987,-2.4607,-2.4063,-2.3446,-2.3424,-2.3556,-2.372,-2.4067,-2.4409,-2.4809,-2.4214,-2.3743,-2.3344,-2.2752,-2.2,-2.1307,-2.1167,-2.0896,-2.0563,-2.042,-2.042,-2.0308,-1.9274,-1.8463,-1.7701,-1.7096,-1.6473,-1.5839,-0.7831,-0.8303,-0.8991,-0.9939,-1.0844,-1.1406,-1.133,-1.2406,-1.4242,-1.703,-1.8151,-2.0058,-2.3545,-2.3176,-2.2909,-2.3427,-2.3348,0.0,0.0,0.0,0.0,0.0,0.0,-3.7085,-3.7853,-3.8713,-3.92,-3.9264,-3.9799,-3.9782,-3.9247,-3.9247,-3.879,-3.7962,-3.7421,-3.7045,-3.6857,-3.6525,-3.6199,-3.5932,-3.6216,-3.5941,-3.5078,-3.177,-2.9757,-2.8656,-2.8483,-2.7655,-2.661,-2.6251,-2.5932,-2.5664,-2.5446,-2.5032,-2.411,-2.134,-2.1114,0.0,0.0,0.0,0.0,0.0,0.0,0.0,0.0,0.0,-2.0309,-2.2491,-2.3238,-2.3965,-2.5556,-2.5161,-2.5083,-2.6485,-2.6857,-2.666,-2.5942,-2.6025,-2.5988,-2.5421,-2.4205,-2.3878,-2.4963,-2.4798,-2.5078,-2.6255,-2.5961,-2.5728,-2.5672,-2.5331,-2.4785,-2.4122,-2.422,-2.4616,-2.5153,-2.5138,-2.5473,-2.6087,-2.5473,-2.5059,-2.4863,-2.4123,-2.337,-2.2685,-2.2338,-2.1718,-2.0978,-2.0762,-2.069,-2.069,-2.069,-2.0244,-1.9409,-1.8518,-1.7698,-1.6817,-1.0585,-1.1619,-1.1922,-1.0961,-1.2037,-1.3059,-1.3092,-1.3712,-1.4994,-1.7344,-1.7927,-1.9034,-2.156,-2.1472,-2.1655,-2.2623,-2.3779,0.0,0.0,0.0,0.0,0.0,0.0,-3.703,-3.7357,-3.8003,-3.8442,-3.8705,-3.8637,-3.8694,-3.877,-3.877,-3.8372,-3.7646,-3.7456,-3.717,-3.6777,-3.6509,-3.6374,-3.635,-3.6284,-3.6002,-3.5531,-3.5065,-3.4059,-3.2815,-3.1992,-3.0391,-2.8677,-2.8761,-2.8512,-2.8258,-2.8692,-2.9436,-2.9724,-2.7711,0.0,-2.4287,-2.0808,-1.9682,0.0,-2.1055,-2.1536,-2.2776,0.0,0.0,-2.5873,-2.7966,-2.8098,-2.8085,-2.8937,-2.8206,-2.7655,-2.7982,-2.8083,-2.7749,-2.6722,-2.7142,-2.7514,-2.7354,-2.5729,-2.4746,-2.5039,-2.5652,-2.6242,-2.6832,-2.71,-2.7307,-2.7322,-2.7101,-2.6642,-2.5853,-2.6537,-2.6762,-2.6505,-2.6947,-2.7194,-2.734,-2.7074,-2.6646,-2.5928,-2.5652,-2.5141,-2.4354,-2.3419,-2.2646,-2.1943,-2.1728,-2.1652,-2.1652,-2.1652,-2.11,-2.0198,-1.8982,-1.8318,-1.7755,-1.1379,-1.2926,-1.3922,-1.3383,-1.3369,-1.3362,-1.3244,-1.3442,-1.4222,-1.5972,-1.6187,-1.6913,-1.8784,-1.8372,-1.8511,-1.992,-2.1906,0.0,-2.6934,0.0,0.0,0.0,0.0,-3.6122,-3.6826,-3.7482,-3.7922,-3.8131,-3.852,-3.8711,-3.8842,-3.8842,-3.8669,-3.8339,-3.7759,-3.7421,-3.7259,-3.7053,-3.686,-3.6741,-3.7132,-3.6882,-3.6232,-3.6232,-3.5676,-3.4762,-3.3862,-3.2571,0.0,0.0,-3.1428,-3.0924,-3.1679,-3.1382,-3.0466,-2.9026,-2.785,0.0,-2.6372,-2.4879,0.0,0.0,-2.526,-2.5688,-2.7324,-2.7393,-2.77,-2.9721,-2.969,-2.958,-3.0162,-2.9546,-2.9038,0.0,-2.9533,-2.9397,-2.8692,-2.8806,-2.8848,-2.8502,-2.7683,-2.7222,-2.738,-2.6765,-2.671,-2.7738,-2.7639,-2.7494,-2.7524,-2.7465,-2.7285,-2.6906,-2.7272,-2.7352,-2.7183,-2.7406,-2.7523,-2.7523,-2.7469,-2.7255,-2.6892,-2.6824,-2.6102,-2.4815,-2.3952,-2.3032,-2.2101,-2.2025,-2.1883,-2.1807,-2.1807,-2.1568,-2.1068,-1.9559,-1.8605,-1.7865,-1.17,-1.3704,-1.5286,-1.5043,-1.4265,-1.3588,-1.3312,-1.3193,-1.3572,-1.4751,-1.4796,-1.5147,-1.6295,-1.566,-1.585,-1.7543,-2.0078,-2.285,0.0,-2.9353,0.0,0.0,0.0,0.0,-3.6173,-3.6793,-3.7259,-3.7609,-3.8192,-3.8496,-3.8537,-3.8537,-3.8513,-3.8454,-3.7877,-3.7574,-3.7539,-3.755,-3.7358,-3.7152,-3.7756,-3.7578,-3.6904,-3.6904,-3.622,-3.5118,-3.4295,-3.3347,0.0,0.0,-3.1672,-3.1052,-3.1903,-3.0981,-2.9521,-2.9188,-2.8327,-2.764,-2.8295,0.0,0.0,-2.7415,-2.801,-2.8305,-2.7979,-2.8396,-2.9312,-3.0774,-3.0569,-3.0269,-3.0837,-3.019,-2.9789,-3.0326,-3.0568,-3.0493,-3.0086,-3.0101,-2.9993,-2.9442,-2.9352,-2.9422,-2.969,-2.7974,-2.7271,-2.8307,-2.7971,-2.7842,-2.7933,-2.7974,-2.8026,-2.7973,-2.7842,-2.7776,-2.7776,-2.759,-2.7523,-2.7523,-2.7523,-2.7523,-2.7523,-2.7523,-2.6744,-2.5322,-2.4529,-2.3537,-2.2531,-2.2252,-2.2025,-2.1883,-2.1807,-2.1645,-2.1252,-1.9816,-1.8868,-1.823,-1.1866,-1.4265,-1.6068,-1.5164,-1.4497,-1.3984,-1.3733,-1.3395,-1.3478,-1.432,-1.4291,-1.4269,-1.4379,-1.3905,-1.4312,-1.6204,-1.8979,-2.1993,-2.5195,-2.8874,0.0,0.0,0.0,-3.4597,-3.5411,-3.5688,-3.6289,-3.7143,-3.7334,-3.7502,-3.7648,-3.7648,-3.7555,-3.7367,-3.752,-3.7521,-3.7411,-3.781,-3.7809,-3.7578,-3.7897,-3.7792,-3.7469,-3.7469,-3.599,-3.3758,-3.3014,0.0,0.0,0.0,-2.7838,-2.7292,-2.8029,-2.7635,0.0,-2.9131,-2.804,-2.5892,-2.4239,-2.5217,-2.6836,-2.736,-2.9357,-3.1217,-3.1302,-3.1489,-3.1634,-3.191,-3.1087,-3.0493,-3.1161,-3.0387,-2.9851,-3.0642,-3.0762,-3.0628,-3.0072,-3.0613,-3.0881,-3.0329,-3.0251,-3.051,0.0,-2.9307,-2.814,-2.8373,-2.8425,-2.8646,-2.9,-2.932,-2.9393,-2.9233,-2.8739,-2.8481,-2.8481,-2.7842,-2.7523,-2.7523,-2.7523,-2.7523,-2.7523,-2.7523,-2.7108,-2.6277,-2.5392,-2.4529,-2.3672,-2.2531,-2.2101,-2.2101,-2.1883,-2.1252,-2.0459,-1.958,-1.9256,-1.9107,-1.1069,-1.2811,-1.4354,-1.5013,-1.4552,-1.4082,-1.4037,-1.3759,-1.3659,-1.4014,-1.4002,0.0,0.0,0.0,0.0,0.0,-1.8268,-2.0798,-2.3426,-2.7192,0.0,0.0,0.0,-3.4119,-3.4981,-3.5736,-3.6327,-3.6684,-3.7345,-3.765,-3.7667,-3.7845,-3.7557,-3.6915,-3.7117,-3.6877,-3.6356,-3.6661,-3.7095,-3.7557,-3.7735,-3.7872,-3.8029,-3.8029,-3.599,-3.2927,0.0,0.0,0.0,0.0,0.0,-2.5945,-2.6657,-2.5746,-2.4405,-2.4806,-2.5493,-2.6238,-2.6701,-2.7489,-2.8488,-2.9838,-3.0851,-3.1682,-3.2007,-3.212,-3.2247,-3.2554,-3.1602,-3.0821,-3.1258,-3.0437,-2.9914,-3.0624,-3.0778,-3.0881,-3.097,-3.1102,-3.1176,-3.1102,-3.1037,0.0,0.0,0.0,0.0,-2.9717,-2.9375,-2.9226,-2.9356,-2.9429,-2.9504,-2.9456,-2.9268,-2.9142,-2.9142,-2.8468,-2.8157,-2.8157,-2.7723,-2.7523,-2.7523,-2.7523,-2.7108,-2.6346,-2.6057,-2.511,-2.3745,-2.339,-2.2745,-2.2101,-2.2035,-2.1721,-2.1252,-2.0382,-1.9737,-1.9097,-0.9607,-1.1518,-1.3233,-1.4004,-1.416,0.0,0.0,0.0,0.0,0.0,0.0,0.0,0.0,0.0,0.0,0.0,0.0,-1.9608,-2.1982,0.0,0.0,0.0,0.0,-3.1441,-3.2897,-3.3041,-3.3737,-3.4965,-3.5584,-3.6287,-3.7136,-3.7362,-3.7103,-3.6485,-3.6783,-3.6578,-3.6072,-3.6279,-3.673,-3.7256,-3.6719,-3.6509,-3.6445,-3.5828,-3.3342,0.0,0.0,0.0,0.0,0.0,-2.4014,-2.365,-2.4196,-2.4357,-2.421,-2.3473,-2.5061,-2.738,-2.8576,-2.9061,-2.9587,-3.1283,-3.1853,-3.2007,-3.2342,-3.2523,-3.2648,-3.2843,-3.1674,-3.0807,-3.1404,-3.0393,-2.9802,-3.0573,-3.1055,-3.1338,-3.1439,-3.1603,-3.1677,-3.1497,-3.1456,-3.1291,0.0,0.0,0.0,-3.0094,-2.993,-2.9889,-2.9889,-3.0072,-3.0208,-3.0208,-2.995,-2.9889,-2.995,-2.9205,-2.8725,-2.8481,-2.7842,-2.7523,-2.7523,-2.7523,-2.7255,-2.6769,-2.6483,-2.5627,-2.4337,-2.3963,-2.318,-2.2327,-2.2252,-2.2101,-2.1797,-2.0934,-2.0051,-1.9107,-0.7702,-1.0431,-1.2705,0.0,0.0,0.0,0.0,0.0,0.0,0.0,0.0,0.0,0.0,0.0,0.0,0.0,0.0,0.0,-2.072,0.0,0.0,0.0,0.0,0.0,-2.9453,-2.8184,-2.9007,-3.212,-3.2274,-3.3597,-3.5875,-3.603,-3.6003,-3.5844,-3.6233,-3.6323,-3.6166,-3.6298,-3.6483,-3.6475,-3.4768,-3.3687,-3.2951,-3.1296,0.0,0.0,0.0,0.0,0.0,0.0,-2.0619,-2.0845,-2.1088,-2.3691,-2.6386,-2.5095,-2.6775,-2.9087,-2.9626,-2.9822,-3.0185,-3.1677,-3.2247,-3.2453,-3.2453,-3.2703,-3.292,-3.281,-3.1341,-3.0351,0.0,0.0,-2.951,-3.0498,-3.1612,-3.208,-3.1382,-3.1945,-3.2228,0.0,0.0,0.0,0.0,0.0,0.0,-2.969,0.0,-3.0524,-3.0524,-3.1161,-3.1482,-3.1482,-3.0896,-3.0644,-3.0837,-2.995,-2.9205,-2.8481,-2.7842,-2.7523,-2.7523,-2.7523,-2.7523,-2.7456,-2.6769,-2.6,-2.5241,-2.4264,-2.3401,-2.2703,-2.2478,-2.2327,-2.2025,-2.1078,-2.0129,-1.9177,0.0,0.0,0.0,0.0,0.0,0.0,0.0,0.0,0.0,0.0,0.0,0.0,0.0,0.0,0.0,0.0,0.0,0.0,0.0,0.0,0.0,0.0,0.0,0.0,0.0,0.0,0.0,0.0,0.0,-3.2307,-3.2828,-3.3097,-3.2887,-3.2241,-3.2487,-3.224,-3.1655,-3.1693,-3.1748,-3.1727,-3.1111,-3.0772,-3.0565,0.0,0.0,0.0,0.0,0.0,0.0,-2.1158,-2.2414,-2.371,-2.4387,-2.5712,-2.6924,-2.674,-2.8323,-3.0202,-3.0459,-3.1104,-3.1859,-3.2314,-3.2656,-3.2942,-3.3261,-3.3487,-3.3211,-3.1678,-3.0575,-2.9476,0.0,0.0,0.0,-2.9107,-3.0823,0.0,-3.1497,-3.1616,0.0,-3.1497,0.0,-3.1482,-3.1482,-3.1482,0.0,0.0,-3.1161,-3.1219,-3.1219,-3.1409,-3.1482,-3.1482,-3.1467,-3.1482,-3.1539,-3.0329,-2.9393,-2.8739,-2.7908,-2.7523,-2.7523,-2.7523,-2.7523,-2.7456,-2.7323,-2.6496,-2.53,-2.5004,-2.407,-2.2703,-2.2628,-2.2478,-2.2166,-2.0827,-1.9972,-1.9353,0.0,0.0,0.0,0.0,0.0,0.0,0.0,0.0,0.0,0.0,0.0,0.0,0.0,0.0,0.0,0.0,0.0,0.0,0.0,0.0,0.0,0.0,0.0,0.0,0.0,0.0,0.0,0.0,0.0,0.0,-2.9736,-2.9622,-2.9481,-2.937,-2.9612,-2.9422,-2.8955,-2.8955,-2.897,0.0,0.0,-2.7504,0.0,0.0,0.0,0.0,0.0,0.0,0.0,-2.4504,-2.5648,-2.6544,-2.718,-2.8149,-2.908,-2.9074,-3.0417,-3.1884,-3.1769,-3.2347,-3.2942,-3.2819,-3.3087,-3.3232,-3.2494,-3.2674,-3.2224,-2.9484,-2.8793,-2.8054,-2.6091,0.0,0.0,0.0,0.0,0.0,-3.1883,-3.188,-3.1854,0.0,-3.1482,0.0,-3.1482,-3.1482,-3.1482,0.0,-3.1482,-3.1482,-3.1482,-3.1482,-3.1482,-3.1482,-3.1727,-3.1799,-3.1799,-3.0822,-2.995,-2.9093,-2.8274,-2.7776,-2.7523,-2.7523,-2.7523,-2.7523,-2.7523,-2.6688,-2.5312,-2.5312,-2.4299,-2.2852,-2.2852,-2.2703,-2.2402,-2.1603,-2.0672,-1.9747,0.0,0.0,0.0,0.0,0.0,0.0,0.0,0.0,0.0,-1.5331,-1.4959,0.0,0.0,0.0,0.0,0.0,0.0,0.0,0.0,0.0,0.0,0.0,0.0,0.0,0.0,0.0,0.0,0.0,0.0,0.0,0.0,0.0,-2.5798,-2.6464,-2.6814,-2.6849,-2.6644,-2.689,-2.6887,-2.6614,-2.5201,-2.4216,0.0,0.0,0.0,0.0,0.0,0.0,0.0,0.0,-2.9276,-2.9449,-2.9881,-3.0912,-3.189,-3.1644,-3.2501,-3.3518,-3.3176,-3.3419,-3.3678,-3.3245,-3.3559,-3.3419,-3.1178,-3.1237,-3.0664,-2.6936,-2.6421,-2.6115,-2.4505,-2.6515,-2.8388,-2.8345,0.0,-3.2844,-3.2247,-3.2279,-3.2168,-3.1541,-3.1482,-3.1482,-3.1482,-3.1482,-3.1482,-3.1482,-3.1482,-3.1482,-3.1482,-3.1482,-3.1539,-3.1582,-3.1727,-3.1841,-3.1898,-3.1291,-3.054,-2.9566,-2.8903,-2.8157,-2.7523,-2.7523,-2.7523,-2.7456,-2.739,-2.6552,-2.5312,-2.5158,-2.4299,-2.3001,-2.3001,-2.2927,-2.2703,-2.2628,-2.1603,-2.0197,0.0,0.0,0.0,0.0,0.0,0.0,0.0,0.0,0.0,0.0,-1.7812,-1.6211,0.0,0.0,0.0,0.0,0.0,0.0,0.0,0.0,0.0,0.0,0.0,0.0,0.0,0.0,0.0,0.0,0.0,0.0,0.0,0.0,-2.1402,-2.1556,-2.2326,-2.2257,-2.1663,-2.3095,-2.2926,-2.1701,-2.2054,-2.1707,0.0,0.0,0.0,0.0,0.0,0.0,0.0,0.0,-3.0826,-3.2591,-3.3523,-3.3856,-3.376,-3.3403,-3.3712,-3.4088,-3.3662,-3.385,-3.407,-3.3832,-3.4202,-3.4049,-3.1655,-3.0937,-2.9519,-2.5302,-2.4001,-2.322,-2.189,-2.3884,-2.6221,-2.7671,0.0,0.0,0.0,0.0,-3.1601,0.0,0.0,0.0,0.0,0.0,0.0,0.0,-3.1482,-3.1482,-3.1482,-3.1482,-3.1655,-3.1868,-3.194,-3.2094,-3.2287,-3.1549,-3.0822,-3.009,-2.9142,-2.8417,-2.7723,-2.759,-2.7523,-2.7469,-2.6837,-2.607,-2.5229,-2.4564,-2.3768,-2.3001,-2.3001,-2.3001,-2.2927,-2.2402,-2.1451,-2.0343,0.0,0.0,0.0,0.0,0.0,0.0,0.0,-1.9638,-2.1232,-2.3752,-2.2906,-2.0944,-1.8,-1.6509,-1.5422,0.0,0.0,0.0,0.0,0.0,0.0,0.0,0.0,0.0,0.0,0.0,0.0,0.0,0.0,0.0,-1.8897,-1.85,-1.8557,-1.9024,-1.943,-1.9403,-1.9114,-1.9939,-2.0094,-1.9815,-2.0201,-2.0347,0.0,0.0,0.0,0.0,0.0,0.0,0.0,0.0,-3.0362,-3.425,-3.5352,-3.5419,-3.5052,-3.469,-3.4706,-3.4802,-3.4399,-3.4688,-3.5001,-3.4688,-3.5018,-3.4465,-3.0955,-2.9895,-2.8189,-2.2976,-2.201,-2.1614,-2.017,0.0,0.0,0.0,0.0,0.0,0.0,0.0,0.0,0.0,0.0,0.0,0.0,0.0,0.0,-3.1482,-3.1482,-3.1482,-3.1482,-3.1597,-3.1769,-3.1996,-3.2038,-3.215,-3.2287,-3.1564,-3.0837,-3.0119,-2.9296,-2.8638,-2.7934,-2.7723,-2.7656,-2.759,-2.6756,-2.6,-2.5229,-2.4409,-2.3706,-2.3001,-2.3001,-2.3001,-2.2927,-2.2703,-2.1842,-2.0827,0.0,0.0,0.0,0.0,0.0,0.0,0.0,-2.2289,-2.4123,-2.7416,-2.7568,-2.569,-2.1336,-1.8623,-1.6632,0.0,0.0,0.0,0.0,0.0,0.0,0.0,0.0,0.0,0.0,0.0,0.0,-1.6526,-1.601,0.0,0.0,0.0,0.0,0.0,-1.7734,-1.7645,-1.7375,-1.7939,-1.8473,0.0,0.0,-1.9864,0.0,0.0,0.0,0.0,0.0,0.0,0.0,0.0,-2.8966,-3.3434,-3.5058,-3.5676,-3.5803,-3.5599,-3.5481,-3.5316,-3.4988,-3.5448,-3.595,-3.5548,-3.5742,-3.4778,-3.0031,-2.8676,-2.6793,-2.0981,-2.0179,-2.0263,-1.9413,0.0,0.0,0.0,0.0,0.0,0.0,0.0,0.0,0.0,0.0,0.0,0.0,0.0,0.0,-3.1482,-3.1482,-3.1482,-3.1482,-3.167,-3.1841,-3.1996,-3.215,-3.2191,-3.2247,-3.1595,-3.0866,-3.0072,-2.9435,-2.8848,-2.8332,-2.812,-2.8106,-2.8145,-2.6904,-2.6165,-2.5624,-2.4357,-2.3553,-2.3143,-2.3045,-2.3001,-2.3001,-2.3001,-2.2317,-2.1395,0.0,0.0,0.0,0.0,0.0,0.0,0.0,-2.4147,-2.6758,-2.9861,-2.9634,-2.8144,-2.55,-2.2952,-2.028,0.0,0.0,0.0,0.0,0.0,0.0,0.0,0.0,0.0,0.0,0.0,0.0,-1.6584,-1.7303,0.0,0.0,0.0,0.0,0.0,0.0,-1.7018,-1.5696,-1.8063,0.0,0.0,0.0,0.0,0.0,0.0,0.0,0.0,0.0,-2.1101,-2.1323,-2.5257,-2.6945,-2.8055,-3.1447,-3.3968,-3.5769,-3.5959,-3.5725,-3.5379,-3.5362,-3.5854,-3.636,-3.595,-3.6156,-3.4979,-2.947,-2.7539,-2.5438,-2.0237,-1.8568,-1.85,-2.0079,-2.0935,0.0,0.0,0.0,-2.9598,0.0,0.0,0.0,0.0,0.0,0.0,0.0,0.0,-3.1482,-3.1482,-3.1482,-3.1482,-3.1482,-3.167,-3.1841,-3.1996,-3.215,-3.2247,-3.2398,-3.1766,-3.1116,-3.045,-2.967,-2.9233,-2.9067,-2.8932,-2.9226,-2.9611,-2.7331,-2.6602,-2.6783,-2.4152,-2.3327,-2.3613,-2.3176,-2.3001,-2.3001,-2.3001,-2.2553,-2.1949,0.0,0.0,0.0,0.0,0.0,0.0,-2.405,-2.4652,-2.6688,-3.2487,-3.1465,-2.9867,-2.9024,-2.6611,-2.3,-1.7845,0.0,0.0,0.0,0.0,0.0,0.0,0.0,0.0,0.0,0.0,-1.7321,-1.7311,-1.7674,0.0,0.0,0.0,0.0,0.0,0.0,-1.7253,-1.6258,-1.7804,0.0,0.0,0.0,0.0,0.0,0.0,0.0,0.0,0.0,0.0,-2.1585,-2.2318,-2.4759,-2.7656,-2.8246,-3.0713,-3.3635,-3.4856,-3.5347,-3.5597,-3.5951,-3.6426,-3.6771,-3.6574,-3.5976,-3.4306,-3.0024,-2.7272,-2.4509,-2.0567,-1.9103,-1.8944,-2.0246,-2.125,-2.3016,0.0,0.0,0.0,0.0,0.0,0.0,0.0,0.0,0.0,0.0,0.0,-3.1539,-3.167,-3.203,-3.2314,-3.2415,-3.211,-3.2179,-3.2688,-3.2844,-3.297,-3.3002,-3.2346,-3.1656,-3.0963,-3.0308,-2.9929,-2.9902,-2.9752,-2.9805,-2.9937,-2.8083,-2.7238,-2.7027,-2.505,-2.4002,-2.3678,-2.3422,-2.3224,-2.3001,-2.3001,-2.2392,-2.1568,0.0,0.0,0.0,0.0,0.0,-2.0224,-2.479,-2.5091,-2.6763,-3.231,-3.1713,-3.0678,-3.0316,-2.7744,-2.4107,-1.9333,-1.7962,0.0,0.0,0.0,0.0,0.0,0.0,0.0,0.0,0.0,-1.8339,-1.861,-1.8867,-1.9005,0.0,0.0,-1.8497,-1.7491,0.0,0.0,0.0,0.0,0.0,0.0,0.0,0.0,0.0,0.0,0.0,0.0,0.0,0.0,0.0,0.0,0.0,-2.6281,-2.5501,-2.7651,-3.0966,-3.3723,-3.4906,-3.5521,-3.6452,-3.6851,-3.7009,-3.7066,-3.5867,-3.3774,-3.0209,-2.722,-2.4276,-2.09,-1.9781,-1.9698,-2.0644,-2.1696,-2.33,-2.6026,0.0,-2.8037,0.0,0.0,0.0,0.0,0.0,0.0,0.0,-3.1649,-3.1787,-3.2128,-3.2566,-3.3031,-3.333,-3.2889,-3.2901,-3.3475,-3.3664,-3.3645,-3.3363,-3.2742,-3.2026,-3.1321,-3.0719,-3.05,-3.0676,-3.051,-3.0521,-3.0613,-2.8873,-2.8077,-2.7802,-2.5948,-2.4952,-2.4493,-2.4156,-2.388,-2.3567,-2.3349,-2.2713,-2.1979,0.0,0.0,0.0,0.0,0.0,0.0,-2.3037,-2.5706,-2.7611,-2.8276,-2.9889,-3.0394,-2.8796,-2.5571,-2.3234,-2.2517,-1.9419,0.0,0.0,0.0,0.0,0.0,0.0,0.0,0.0,0.0,-1.9613,-2.0471,-2.1338,-2.175,-2.1753,-2.1759,-2.0872,-1.9264,0.0,0.0,0.0,0.0,0.0,0.0,0.0,0.0,0.0,0.0,0.0,0.0,0.0,0.0,0.0,0.0,0.0,0.0,0.0,-2.5084,-2.7929,-3.2855,-3.4467,-3.4974,-3.665,-3.7048,-3.7066,-3.7259,-3.598,-3.3634,-2.9532,-2.7258,-2.4871,-2.1011,-2.0184,-2.0463,-2.1416,-2.203,-2.313,-2.536,-2.662,0.0,-3.0457,0.0,0.0,0.0,0.0,0.0,-3.1526,-3.1793,-3.227,-3.2938,-3.2983,-3.333,-3.4147,-3.4178,-3.4178,-3.4193,-3.4386,-3.4134,-3.344,-3.2742,-3.2026,-3.1321,-3.0719,-3.0717,-3.1287,-3.1287,-3.1599,-3.2042,-2.9938,-2.9252,-2.9449,-2.686,-2.6069,-2.6404,-2.5419,-2.506,-2.5004,-2.4051,-2.3776,-2.3729,0.0,0.0,0.0,0.0,0.0,0.0,0.0,-2.2545,-2.3479,-2.6662,-2.6446,-2.6479,-2.7723,-2.4799,-2.2659,-2.245,-2.0369,0.0,0.0,0.0,0.0,0.0,0.0,0.0,0.0,0.0,-2.1629,-2.31,-2.3977,-2.4424,-2.4449,-2.3857,-2.234,-2.0129,-2.0129,-1.9664,0.0,0.0,0.0,0.0,0.0,0.0,0.0,0.0,0.0,0.0,0.0,0.0,0.0,0.0,0.0,0.0,0.0,0.0,0.0,-2.827,-3.1329,-3.3655,-3.3294,-3.4394,-3.5223,-3.353,-3.2738,-3.1512,-2.847,-2.6415,-2.4419,-2.1721,-2.1095,-2.1139,-2.1537,-2.2073,-2.3459,-2.6489,-2.7183,0.0,0.0,0.0,0.0,0.0,0.0,-3.2074,0.0,0.0,-3.2327,-3.3096,-3.3569,-3.4193,-3.5046,-3.5523,-3.5569,-3.5108,-3.5153,-3.4788,-3.4032,-3.3769,-3.3115,-3.194,-3.1755,-3.1721,-3.1897,-3.1897,-3.2006,-3.2082,-3.0589,-2.9847,-2.9564,-2.7806,-2.6863,-2.6495,-2.6043,-2.5562,-2.4983,-2.4592,-2.3827,-2.3034,0.0,0.0,0.0,0.0,0.0,0.0,0.0,-2.1214,-2.1842,-2.4236,-2.3549,-2.3812,-2.6346,-2.3301,-2.1449,-2.2426,-2.0895,0.0,0.0,0.0,0.0,0.0,0.0,0.0,0.0,-2.0682,-2.2429,-2.4829,-2.5375,-2.5974,-2.6622,-2.6086,-2.4276,-2.1477,-2.1477,-2.0855,0.0,0.0,0.0,0.0,0.0,0.0,-2.0467,0.0,0.0,0.0,0.0,0.0,0.0,0.0,0.0,0.0,0.0,0.0,0.0,0.0,-2.8,-3.1002,-3.1954,-3.3187,-3.3876,-3.2623,-3.1326,-2.9796,-2.7768,-2.5769,-2.3853,-2.2034,-2.1754,-2.1823,-2.1798,-2.2422,-2.3578,-2.5597,-2.6264,0.0,0.0,0.0,0.0,0.0,0.0,0.0,0.0,-3.2721,-3.3138,-3.3667,-3.4327,-3.5017,-3.583,-3.6261,-3.6307,-3.5876,-3.5861,-3.5518,-3.4714,-3.4447,-3.3713,-3.2561,-3.23,-3.2182,-3.2182,-3.2182,-3.2182,-3.2096,-3.0859,-3.0165,0.0,-2.8517,-2.7703,-2.7193,-2.6921,-2.6438,-2.5873,-2.5306,-2.4549,-2.3775,0.0,0.0,0.0,0.0,0.0,0.0,0.0,-2.1331,-2.2133,-2.1314,-2.1262,-2.2221,-2.4596,-2.1235,-1.9821,-2.2297,0.0,0.0,0.0,0.0,0.0,0.0,0.0,0.0,0.0,-2.061,-2.2396,-2.5879,-2.6002,-2.6925,-2.8569,-2.8511,-2.6622,-2.3272,-2.3213,-2.2219,-2.0582,0.0,0.0,0.0,-2.0494,-2.0441,0.0,0.0,0.0,0.0,0.0,0.0,0.0,0.0,0.0,0.0,0.0,0.0,0.0,0.0,0.0,0.0,0.0,-3.2708,-3.2612,-3.3241,-3.103,-2.8417,-2.7161,-2.5219,0.0,-2.2124,-2.2175,-2.2449,-2.2343,-2.296,-2.3527,-2.3627,-2.458,0.0,0.0,0.0,0.0,0.0,-3.2972,0.0,-3.3262,-3.4053,-3.4491,-3.4537,-3.5122,-3.5768,-3.6445,-3.6492,-3.6492,-3.6492,-3.6492,-3.6148,-3.54,-3.4714,-3.3973,-3.3213,-3.2574,-3.2241,-3.2182,-3.2182,-3.2182,-3.2096,-3.0934,-3.0317,-3.0241,-2.9052,-2.851,-2.8431,-2.7914,-2.7637,-2.751,-2.6262,-2.5842,-2.5617,0.0,0.0,0.0,0.0,0.0,0.0,0.0,0.0,0.0,0.0,-2.0355,-2.0642,-2.1302,-1.9875,-1.9386,0.0,0.0,0.0,0.0,0.0,0.0,0.0,0.0,0.0,0.0,-2.1737,-2.4113,-2.7605,-2.8946,-3.0489,-3.2157,-3.1506,-2.8994,-2.5058,-2.4391,-2.2768,-2.0522,-2.0586,0.0,0.0,-2.0448,-2.0381,0.0,0.0,0.0,0.0,-2.0069,-2.0508,0.0,0.0,0.0,0.0,0.0,0.0,0.0,0.0,-2.2197,-2.3491,-2.567,0.0,-2.898,-2.7093,-2.6891,-2.676,0.0,-2.4717,-2.4144,-2.2836,-2.2381,-2.2693,-2.432,-2.3439,-2.3678,-2.7341,0.0,-2.8699,0.0,0.0,0.0,0.0,-3.4408,-3.411,-3.609,-3.5214,-3.4691,-3.5214,-3.5399,-3.5768,-3.6445,-3.6492,-3.6492,-3.6492,-3.6492,-3.6148,-3.54,-3.527,-3.4514,-3.3213,-3.3017,-3.2704,-3.2182,-3.2182,-3.2182,-3.2169,-3.132,-3.0696,-3.0254,-2.9636,-2.9022,-2.8455,-2.8336,-2.8265,-2.8283,-2.79,-2.6814,-2.5206,0.0,0.0,0.0,0.0,0.0,0.0,0.0,0.0,0.0,0.0,0.0,0.0,0.0,0.0,0.0,0.0,0.0,0.0,0.0,0.0,0.0,0.0,0.0,0.0,-2.0456,-2.1749,-2.4339,-2.8205,-2.9558,-3.1487,-3.3922,-3.3057,-3.037,-2.6143,-2.37,-2.1823,-2.0494,-2.0542,-2.0531,-2.0483,-2.0437,0.0,0.0,0.0,0.0,0.0,-2.0107,-2.0779,0.0,-2.3408,-2.4086,-2.4284,0.0,0.0,0.0,0.0,-2.1004,-2.1469,-2.2463,-2.5208,-2.7494,-2.6304,-2.63,-2.6356,-2.5432,-2.4458,-2.35,-2.2661,-2.2281,-2.2555,0.0,-2.3953,-2.4624,0.0,-2.8572,0.0,0.0,0.0,0.0,-3.671,-3.5906,-3.5439,-3.5954,-3.5625,-3.5414,-3.5476,-3.5768,-3.6107,-3.6476,-3.6492,-3.6492,-3.6492,-3.6492,-3.6289,-3.5879,-3.5544,-3.4846,-3.3699,-3.3353,-3.2832,-3.2182,-3.2182,-3.2182,-3.2169,-3.1468,-3.0973,-3.0522,-2.9919,-2.9192,-2.8534,-2.8512,-2.8524,-2.83,-2.6657,-2.5307,-2.4145,0.0,0.0,0.0,0.0,0.0,0.0,0.0,0.0,0.0,0.0,0.0,0.0,0.0,0.0,0.0,0.0,0.0,0.0,0.0,0.0,0.0,0.0,0.0,-2.0675,-2.1068,-2.1669,-2.4096,-2.8383,-2.939,-3.15,-3.4564,-3.4109,-3.1457,-2.6926,-2.2893,-2.0865,-2.0492,-2.0494,-2.05,-2.0484,-2.043,0.0,0.0,0.0,0.0,0.0,0.0,0.0,0.0,-2.4509,-2.5824,-2.6394,-2.5349,0.0,0.0,0.0,0.0,0.0,-2.1269,-2.4123,-2.6934,-2.703,-2.6732,-2.6282,-2.5808,-2.4007,-2.2371,-2.2124,-2.2224,-2.2622,0.0,-2.4911,0.0,0.0,0.0,0.0,0.0,0.0,0.0,-3.691,-3.7122,-3.6785,-3.5391,-3.6105,-3.6369,-3.5676,-3.623,-3.6492,-3.6492,-3.6492,-3.6492,-3.6492,-3.6492,-3.6492,-3.6492,-3.5879,-3.5124,-3.4312,-3.3699,-3.296,-3.2182,-3.2182,-3.2182,-3.2182,-3.1616,-3.1176,-3.0803,-3.0099,-2.9246,-2.8534,-2.8512,-2.8117,-2.7264,-2.424,-2.3117,-2.31,0.0,0.0,0.0,0.0,0.0,0.0,0.0,0.0,0.0,0.0,0.0,0.0,0.0,0.0,0.0,0.0,0.0,0.0,0.0,0.0,0.0,0.0,0.0,-2.1449,-2.3669,-2.3115,-2.4919,-2.9214,-3.0837,-3.2619,-3.4549,-3.5953,-3.3526,-2.7872,-2.5063,-2.2565,-2.0499,-2.05,-2.0494,-2.0484,-2.0439,0.0,0.0,0.0,0.0,0.0,0.0,0.0,0.0,-2.1425,-2.2926,-2.4338,-2.2154,0.0,0.0,0.0,0.0,0.0,-2.2238,-2.4382,-2.5424,-2.3344,-2.413,-2.4986,-2.3371,-2.2558,-2.2113,-2.1969,-2.2758,0.0,0.0,-2.7288,-2.8268,0.0,0.0,-3.3963,0.0,0.0,-3.6092,-3.8281,-3.727,-3.6998,-3.8496,-3.791,-3.7115,-3.64,-3.6554,-3.66,-3.6492,-3.6492,-3.6492,-3.6492,-3.6492,-3.6492,-3.6492,-3.6414,-3.5672,-3.4312,-3.4177,-3.3437,-3.2182,-3.2182,-3.2182,-3.2169,-3.2096,-3.1575,-3.0879,-3.0407,-2.9509,-2.8534,-2.8512,-2.6648,-2.3888,-2.3283,-2.3063,-2.3086,0.0,0.0,0.0,0.0,0.0,0.0,0.0,0.0,0.0,0.0,0.0,0.0,0.0,0.0,0.0,0.0,0.0,0.0,0.0,0.0,0.0,0.0,0.0,0.0,-2.4157,-2.5161,-2.7745,-3.2038,-3.3796,-3.5549,-3.719,-3.4245,-3.0937,-2.7278,-2.375,-2.1521,-2.0388,-2.0385,-2.0349,-2.0276,0.0,0.0,0.0,0.0,0.0,0.0,0.0,0.0,0.0,0.0,-2.3704,-2.5226,-2.2769,0.0,0.0,0.0,0.0,0.0,-2.0784,-2.2929,-2.4522,-2.3643,-2.587,-2.8049,-2.7182,-2.6286,-2.553,-2.5062,-2.5328,0.0,0.0,0.0,-3.0456,-3.4153,0.0,-3.5736,-3.6679,-3.7246,-3.7919,-3.8917,-3.8673,-3.843,-3.8451,-3.7884,-3.7222,-3.6662,-3.66,-3.6554,-3.6492,-3.6492,-3.6492,-3.6492,-3.6492,-3.6492,-3.6492,-3.6492,-3.5737,-3.4312,-3.4312,-3.3575,-3.2182,-3.2182,-3.2182,-3.2182,-3.2182,-3.1998,-3.1602,-3.1428,-3.0202,-2.85,-2.8533,-2.7439,-2.581,-2.3819,-2.3083,-2.3135,0.0,0.0,0.0,0.0,0.0,0.0,0.0,0.0,0.0,0.0,0.0,0.0,0.0,0.0,0.0,0.0,0.0,0.0,0.0,0.0,0.0,0.0,0.0,0.0,0.0,-2.7682,-3.0586,-3.487,-3.6613,-3.8313,-3.9741,-3.319,-2.9128,-2.7176,-2.3074,-2.0868,-2.0253,-2.0287,-2.0223,-2.0103,0.0,0.0,0.0,0.0,0.0,0.0,0.0,0.0,0.0,0.0,0.0,0.0,0.0,0.0,0.0,-2.1005,-1.9829,-1.9857,-2.0818,-2.2626,-2.4511,-2.563,-2.7926,-2.9967,-3.0224,-2.9109,-2.7968,-2.7751,0.0,0.0,0.0,-3.0775,0.0,-3.515,-3.6034,-3.6625,-3.7266,-3.8297,-3.8875,-3.8712,-3.9332,-3.9242,-3.7953,-3.7738,-3.746,-3.6937,-3.6662,-3.6554,-3.6492,-3.6492,-3.6492,-3.6492,-3.6492,-3.6492,-3.6492,-3.6492,-3.5737,-3.4312,-3.4312,-3.3575,-3.2182,-3.2182,-3.2182,-3.2182,-3.2182,-3.2226,-3.2177,-3.2226,-3.0701,-2.8494,-2.8518,-2.8526,-2.8069,-2.4459,-2.3142,-2.3135,0.0,0.0,0.0,0.0,0.0,0.0,0.0,0.0,0.0,0.0,0.0,0.0,0.0,0.0,0.0,0.0,0.0,0.0,0.0,0.0,0.0,0.0,0.0,0.0,0.0,-3.0891,-3.2288,-3.6517,-3.8344,-3.9738,-4.0606,-3.5301,-3.1458,-2.8878,-2.551,-2.2557,-2.0129,-2.0242,-2.0219,-2.0096,-2.0107,0.0,0.0,0.0,0.0,0.0,0.0,0.0,0.0,0.0,0.0,0.0,0.0,0.0,-2.3933,-2.3415,-2.2567,-2.2341,-2.4986,-2.5501,-2.5966,-2.8817,-2.8262,-2.7264,-2.8272,-2.7217,-2.6393,-2.78,0.0,0.0,0.0,-3.3798,-3.5702,-3.5375,-3.5988,-3.6316,-3.583,-3.5983,-3.6359,-3.7086,-3.7733,-3.8237,-3.8443,-3.8446,-3.8165,-3.7589,-3.6982,-3.66,-3.6492,-3.6492,-3.6492,-3.6492,-3.6492,-3.6492,-3.6492,-3.6492,-3.5737,-3.4312,-3.4312,-3.3575,-3.2182,-3.2182,-3.2182,-3.2182,-3.2182,-3.2172,-3.2203,-3.2216,-3.0739,-2.8486,-2.8522,-2.8466,-2.8027,-2.4481,-2.3125,-2.3135,0.0,0.0,0.0,0.0,0.0,0.0,0.0,0.0,0.0,0.0,0.0,0.0,0.0,0.0,0.0,0.0,0.0,0.0,0.0,0.0,0.0,0.0,0.0,-2.6599,-3.0297,-3.3422,-3.6577,-3.9813,-4.0545,-4.0216,-3.8813,-3.3147,-2.9363,-2.7167,-2.3284,-2.1244,-2.0684,-2.0241,-2.0285,-2.063,-2.0219,-2.004,0.0,0.0,0.0,0.0,0.0,0.0,0.0,0.0,-2.1633,-2.3052,-2.1621,-2.3047,-2.4838,-2.2618,-2.1617,-2.1616,-2.3527,-2.444,-2.5473,-2.776,-2.8703,-2.9409,-3.0667,-3.0744,-3.0931,-3.2083,-3.2408,0.0,0.0,0.0,-3.5579,-3.5434,-3.5694,-3.5852,-3.5611,-3.6118,-3.6751,-3.7448,-3.8326,-3.8839,-3.8674,-3.8574,-3.8124,-3.7314,-3.6846,-3.6554,-3.6492,-3.6492,-3.6492,-3.6492,-3.6492,-3.6289,-3.58,-3.5816,-3.5059,-3.363,-3.4109,-3.3575,-3.2182,-3.2182,-3.2182,-3.2182,-3.2212,-3.2179,-3.2102,-3.0535,-2.9369,-2.8542,-2.8482,-2.7149,-2.4945,-2.3579,-2.3085,-2.3135,0.0,0.0,0.0,0.0,0.0,0.0,0.0,0.0,0.0,0.0,0.0,0.0,0.0,0.0,0.0,0.0,0.0,0.0,0.0,-1.9988,0.0,0.0,0.0,-2.5595,-2.8439,-3.4346,-3.8261,-4.0055,-4.0905,-4.0114,-3.7686,-3.223,-2.8979,0.0,0.0,0.0,-2.251,-2.1199,-2.0784,-2.0945,-2.0214,-1.9926,0.0,0.0,0.0,0.0,0.0,0.0,0.0,0.0,-2.125,-2.2483,-2.153,-2.2895,-2.4518,-2.2678,-2.2371,-2.279,-2.3474,-2.459,-2.5949,-2.7724,-2.9131,-3.0542,-3.2315,-3.2958,-3.3508,-3.4653,-3.4485,-3.4184,-3.4293,0.0,0.0,0.0,-3.5549,-3.5707,-3.5943,-3.6508,-3.725,-3.819,-3.8942,-3.9423,-3.942,-3.9065,-3.8446,-3.7578,-3.7118,-3.6769,-3.6492,-3.6492,-3.6492,-3.6492,-3.6492,-3.6148,-3.54,-3.5599,-3.4942,-3.3353,-3.398,-3.3564,-3.2182,-3.2182,-3.2223,-3.2171,-3.2199,-3.1726,-3.0914,-2.9195,-2.8458,-2.8505,-2.8502,-2.6279,-2.3112,-2.3117,-2.3075,-2.3135,0.0,0.0,0.0,0.0,0.0,0.0,0.0,0.0,0.0,0.0,0.0,0.0,0.0,0.0,0.0,0.0,0.0,0.0,-1.9717,-1.9941,-2.0345,-2.1107,-2.3662,-2.5831,-2.7502,-3.3344,-3.6415,-3.6509,-3.9026,-3.9369,-3.7625,-3.3356,0.0,0.0,0.0,0.0,0.0,0.0,0.0,-2.095,-2.0151,-1.9776,-1.9718,0.0,0.0,0.0,0.0,0.0,0.0,0.0,-2.0726,-2.0039,-2.408,-2.3922,-2.2549,-2.4123,-2.5684,-2.6737,-2.5973,-2.6624,-2.7875,-2.9467,-2.9497,-2.9839,-3.2407,-3.2713,-3.2899,-3.4554,-3.4916,-3.4899,-3.4899,-3.5105,-3.5291,-3.5291,-3.5458,-3.5893,-3.6671,-3.6847,-3.7483,-3.903,-3.9344,-3.973,-4.0628,-4.0037,-3.9368,-3.8745,-3.8019,-3.7266,-3.6554,-3.6492,-3.6492,-3.6492,-3.6492,-3.6148,-3.54,-3.6094,-3.5466,-3.3564,-3.41,-3.355,-3.2182,-3.2182,-3.2171,-3.2206,-3.2206,-3.0737,-2.8517,-2.8517,-2.845,-2.8468,-2.8432,-2.622,-2.3127,-2.3134,-2.3135,-2.3135,0.0,0.0,0.0,0.0,0.0,0.0,0.0,0.0,0.0,0.0,0.0,0.0,0.0,0.0,0.0,0.0,0.0,0.0,-1.6956,-1.8789,-1.9128,-1.7343,-2.0534,-2.2315,-2.2258,-2.6333,-3.1431,-3.7419,-3.6892,-3.5107,-3.2131,0.0,0.0,0.0,0.0,0.0,0.0,0.0,0.0,-2.1686,-2.1479,-2.1003,-2.0474,0.0,0.0,0.0,0.0,0.0,0.0,0.0,0.0,0.0,-2.1534,-2.34,-2.5194,-2.3859,-2.4468,-2.5339,-2.439,-2.5863,-2.7676,-2.7744,0.0,0.0,0.0,-3.3656,0.0,0.0,-3.5726,-3.5673,-3.5141,-3.5245,-3.5446,-3.5446,-3.6021,-3.6564,-3.6893,-3.7444,-3.8201,-3.9225,-3.95,-3.9727,-4.0019,-3.9868,-3.9299,-3.8149,-3.7764,-3.7266,-3.6554,-3.6492,-3.6492,-3.6492,-3.6006,-3.54,-3.4647,-3.453,-3.3802,-3.2643,-3.2784,-3.2626,-3.2182,-3.2182,-3.2171,-3.2104,-3.0377,-2.9162,-2.8529,-2.8476,-2.7024,-2.468,-2.4711,-2.4052,-2.3127,-2.3134,-2.3135,-2.3047,0.0,0.0,0.0,0.0,0.0,0.0,0.0,0.0,-1.1546,-1.4676,-1.5501,-1.6474,0.0,0.0,0.0,-1.9642,-1.8963,-1.7635,-1.573,-1.8267,-1.8594,-1.5719,-1.8866,-2.1081,-2.1969,-2.4968,-2.8713,-3.3141,-3.3108,-3.191,0.0,0.0,0.0,0.0,0.0,0.0,0.0,0.0,0.0,-2.2963,-2.294,-2.2578,-2.2073,0.0,0.0,0.0,0.0,0.0,0.0,0.0,0.0,0.0,-2.0318,-2.1959,-2.3963,-2.35,-2.4643,-2.6124,-2.6269,-2.7888,0.0,-3.0005,-3.2034,-3.3997,-3.4378,0.0,0.0,0.0,-3.5723,-3.5621,-3.5235,-3.5572,-3.5929,-3.5929,-3.6721,-3.7471,-3.7823,-3.8325,-3.8965,-3.9829,-4.004,-4.0147,-4.0252,-4.0237,-3.9664,-3.8246,-3.8092,-3.7589,-3.6554,-3.6492,-3.6492,-3.6492,-3.6046,-3.5413,-3.4593,-3.4715,-3.3917,-3.2182,-3.2182,-3.2182,-3.2182,-3.2182,-3.2171,-3.2091,-2.9555,-2.8999,-2.9769,-2.977,-2.821,-2.5703,-2.4186,-2.3861,-2.4191,-2.3624,-2.3213,-2.2872,0.0,0.0,0.0,0.0,0.0,0.0,0.0,-0.7878,-0.8149,-1.226,-1.1159,-1.1553,0.0,0.0,0.0,-1.9126,-1.7602,-1.6177,-1.5644,-1.8239,-1.8584,-1.5829,-1.8614,-2.1689,-2.4809,-2.6996,-2.7331,-2.5729,-2.829,-2.9389,0.0,0.0,-3.2395,0.0,0.0,-3.2609,0.0,0.0,0.0,-2.4118,-2.41,-2.4025,-2.3891,-2.3162,0.0,0.0,0.0,0.0,0.0,0.0,0.0,0.0,-2.0045,-2.0189,-2.0572,-2.298,-2.5572,-2.802,-2.9738,-3.1246,-3.2702,-3.4223,-3.3601,0.0,-3.5397,-3.5379,-3.4963,-3.5171,0.0,-3.5198,-3.5308,-3.6034,-3.6616,-3.6616,-3.7496,-3.8418,-3.9163,-3.9395,-3.9846,-4.0611,-4.0697,-4.0745,-4.0888,-4.0888,-4.0319,-3.8908,-3.8745,-3.8092,-3.6662,-3.6554,-3.6492,-3.6492,-3.6402,-3.5923,-3.4932,-3.574,-3.4783,-3.2182,-3.2182,-3.2182,-3.2182,-3.2182,-3.2171,-3.203,-2.9566,-2.9683,-3.1556,-3.17,-3.0987,-2.9617,-2.6051,-2.5213,-2.5841,-2.4496,-2.3475,-2.2665,0.0,0.0,0.0,0.0,0.0,0.0,-0.7055,-0.8167,-0.9354,-1.0298,-1.1561,-1.274,-1.3707,-1.3394,0.0,-1.6892,-1.6679,-1.6177,-1.5644,-1.8239,-1.8833,-1.6636,-2.0512,-2.3088,-2.3879,-2.3742,-2.3446,-2.2963,-2.4888,-2.6064,0.0,0.0,0.0,0.0,0.0,0.0,0.0,0.0,0.0,-2.2173,-2.2831,-2.3067,-2.2966,-2.2805,-2.1752,0.0,0.0,0.0,0.0,0.0,0.0,0.0,-1.9848,-2.0784,-2.175,-2.2034,-2.447,-2.6962,-2.6552,-2.916,0.0,0.0,-3.3284,-3.4504,-3.5127,-3.5157,-3.5207,-3.5854,-3.5663,-3.5446,-3.5446,-3.619,-3.6772,-3.6881,-3.8048,-3.9109,-3.9453,-4.0031,-4.0508,-4.0823,-4.084,-4.0888,-4.0888,-4.0888,-4.05,-3.9489,-3.8978,-3.8262,-3.7238,-3.6785,-3.6492,-3.6492,-3.5749,-3.5037,-3.4467,-3.3593,-3.2822,-3.2182,-3.2182,-3.2182,-3.2182,-3.2182,-3.2171,-3.203,-2.9566,-2.9266,-3.053,-3.1336,-3.0685,-2.8919,-2.7053,-2.6151,-2.5689,-2.4087,-2.3461,-2.3147,0.0,0.0,0.0,0.0,0.0,0.0,0.0,0.0,-0.8131,-0.8131,-0.9172,-1.0282,-1.1358,-1.1468,0.0,0.0,-1.4809,-1.4117,-1.2459,-1.5992,-1.8189,-1.823,-2.1252,-2.2562,-2.18,-2.2115,-2.1826,-2.0856,-2.1786,0.0,0.0,0.0,0.0,0.0,0.0,0.0,0.0,0.0,0.0,0.0,0.0,-2.4421,-2.4302,-2.3524,-2.2256,-2.0717,-1.9518,0.0,0.0,0.0,0.0,0.0,0.0,0.0,-2.0746,-2.1711,-2.3528,-2.5639,-2.7423,0.0,0.0,-3.2973,0.0,-3.5041,-3.5152,-3.5245,-3.5408,-3.5793,-3.5669,-3.5655,-3.6055,-3.6852,-3.7572,-3.7993,-3.9092,-3.997,-4.0113,-4.0487,-4.084,-4.0888,-4.0888,-4.0776,-4.05,-4.071,-4.0336,-3.8957,-3.8964,-3.848,-3.715,-3.6739,-3.6492,-3.6492,-3.5989,-3.5583,-3.5369,-3.324,-3.2182,-3.2182,-3.2182,-3.2182,-3.2182,-3.2182,-3.1576,-3.0416,-3.0227,-3.0206,-3.0433,-3.1348,-3.0797,-2.9389,-2.8153,-2.704,-2.587,-2.4473,-2.3725,-2.3211,0.0,0.0,0.0,0.0,0.0,0.0,0.0,0.0,0.0,-0.6416,-0.6416,-0.7107,-0.8925,-0.913,-1.0027,0.0,0.0,0.0,-0.9678,-1.3992,-1.7472,-1.9363,-2.1406,-2.1854,-2.0464,-2.1652,-2.1494,-1.9926,-1.9685,0.0,0.0,0.0,0.0,0.0,0.0,0.0,0.0,0.0,0.0,0.0,0.0,0.0,0.0,0.0,0.0,0.0,-1.9627,-1.915,-1.9219,-1.9285,0.0,0.0,0.0,0.0,-1.9388,-2.1334,-2.2681,-2.4384,-2.8397,0.0,-3.2276,-3.4522,-3.5105,0.0,-3.5442,-3.5631,-3.571,-3.5891,-3.5824,-3.5971,-3.6717,-3.764,-3.8516,-3.9146,-4.0055,-4.0697,-4.0745,-4.084,-4.0888,-4.0888,-4.0823,-4.0597,-4.017,-4.0485,-4.0104,-3.8632,-3.9044,-3.8683,-3.7138,-3.6693,-3.6476,-3.6492,-3.6486,-3.6291,-3.5739,-3.3381,-3.2209,-3.2191,-3.2191,-3.2331,-3.2481,-3.2299,-3.1079,-2.9213,-3.0904,-3.1372,-3.0833,-3.1174,-3.0861,-3.0079,-2.8866,-2.7524,-2.6184,-2.5012,-2.4108,-2.3185,0.0,0.0,0.0,0.0,0.0,0.0,0.0,0.0,0.0,0.0,-0.6416,-0.6531,-0.6806,-0.6827,-0.773,-0.9965,-1.0158,-1.0835,-1.2418,0.0,0.0,-1.7963,-2.1417,-2.3239,-2.3013,-2.2424,-2.198,-2.168,-2.0148,0.0,0.0,0.0,0.0,0.0,0.0,0.0,0.0,0.0,0.0,0.0,0.0,0.0,0.0,0.0,0.0,0.0,0.0,-1.915,-1.9219,-1.9285,-1.9772,0.0,0.0,0.0,-1.9856,-1.9887,-2.1644,-2.3733,0.0,0.0,-3.1774,0.0,-3.5198,-3.5459,0.0,0.0,-3.6666,-3.7418,-3.714,-3.6825,-3.6973,-3.8206,-3.932,-3.95,-4.0199,-4.0745,-4.084,-4.0888,-4.0888,-4.0888,-4.0434,-4.0269,-4.071,-4.0223,-3.9979,-4.027,-3.9616,-3.8885,-3.8136,-3.706,-3.6523,-3.6492,-3.6486,-3.5272,-3.2819,-3.237,-3.2231,-3.2206,-3.2206,-3.2745,-3.3612,-3.2528,-3.1869,-3.1511,-3.0989,-3.1112,-3.1538,-3.0213,-2.9912,-2.9977,-2.7851,-2.6884,-2.6506,-2.4727,-2.3904,-2.3697,0.0,0.0,0.0,0.0,0.0,0.0,0.0,0.0,0.0,0.0,0.0,-0.6416,-0.6416,-0.6416,-0.6813,-0.778,-0.785,-0.88,-1.1052,-1.245,-1.3796,-1.5075,-1.7885,-1.9413,-1.9413,-2.0174,-2.0559,-2.0551,0.0,0.0,0.0,-2.7447,-2.9849,0.0,0.0,0.0,0.0,0.0,0.0,0.0,0.0,0.0,0.0,0.0,0.0,0.0,0.0,0.0,-1.92,-1.928,-1.9531,-1.9808,-1.9685,0.0,0.0,0.0,-2.0065,-2.2014,-2.5183,-2.8772,-3.2202,0.0,-3.5321,-3.548,-3.5949,-3.6712,-3.7432,-3.7814,-3.7682,-3.7636,-3.8129,-3.8931,-3.9637,-4.0096,-4.0504,-4.084,-4.0888,-4.0888,-4.0741,-4.0266,-4.0383,-4.0254,-3.9694,-4.0066,-3.994,-3.8923,-3.9634,-3.9493,-3.7903,-3.7001,-3.6507,-3.6492,-3.6486,-3.5102,-3.2252,-3.3533,-3.414,-3.4156,-3.3248,-3.2994,-3.3445,-3.2419,-3.1932,-3.1966,-3.1455,-3.1269,-3.1223,-3.0255,-2.9602,-2.8969,-2.7389,-2.6254,-2.5373,-2.4519,-2.417,-2.4026,0.0,0.0,0.0,0.0,0.0,0.0,0.0,0.0,0.0,0.0,0.0,-0.696,-0.6465,0.0,0.0,0.0,-0.6416,-0.71,-0.8763,-0.9865,-1.1213,-1.2914,-1.5535,-1.6942,-1.6984,-1.852,-1.9353,0.0,0.0,0.0,-2.7944,-2.7689,-3.027,0.0,-3.0395,0.0,0.0,0.0,0.0,0.0,0.0,0.0,0.0,0.0,0.0,0.0,0.0,0.0,-2.0753,-1.9902,-1.9745,-1.9987,-2.0241,-1.9812,0.0,0.0,0.0,0.0,0.0,0.0,-3.1142,-3.4143,-3.5205,-3.5633,0.0,0.0,-3.8422,-3.8504,-3.8573,-3.8757,-3.9435,-3.977,-4.0105,-4.059,-4.0806,-4.0888,-4.0888,-4.0888,-4.0676,-4.0067,-4.028,-4.0153,-3.9275,-3.9684,-3.9591,-3.845,-3.9418,-3.92,-3.734,-3.6754,-3.6507,-3.6492,-3.5804,-3.468,-3.309,-3.4832,-3.5697,-3.5703,-3.4265,-3.3581,-3.3582,-3.2492,-3.2122,-3.213,-3.1891,-3.1491,-3.1021,-3.0302,-2.9441,-2.8423,-2.7105,-2.5781,-2.4726,-2.4529,-2.4341,-2.4106,0.0,0.0,0.0,0.0,0.0,0.0,0.0,0.0,0.0,0.0,0.0,-0.8513,-0.6623,-0.6416,-0.6416,-0.6416,-0.6416,-0.6435,-0.6548,-1.0305,-1.2596,-1.2719,-1.6726,0.0,-1.9136,-1.912,-1.918,0.0,0.0,0.0,-2.8368,-2.835,-3.1035,-3.5701,-3.2639,-2.9294,-2.5918,0.0,0.0,0.0,0.0,0.0,0.0,0.0,0.0,0.0,0.0,0.0,0.0,-2.1589,-2.0993,-2.1524,-2.0656,-2.0367,-2.0098,0.0,0.0,0.0,0.0,-2.5544,0.0,-3.2003,0.0,0.0,0.0,0.0,-3.9743,-4.0249,-4.0368,-4.0391,-4.0418,-4.0631,-4.0836,-4.0871,-4.0871,-4.0888,-4.0888,-4.0888,-4.0871,-4.0871,-3.9946,-3.9699,-4.0663,-3.8929,-3.8504,-4.0572,-3.8824,-3.7345,-3.6613,-3.6537,-3.6492,-3.6492,-3.3842,-3.3425,-3.5525,-3.5653,-3.5709,-3.5709,-3.4841,-3.4513,-3.4611,-3.332,-3.2718,-3.2624,-3.1952,-3.1713,-3.1536,-3.0102,-2.9485,-2.9198,-2.6733,-2.5693,-2.5499,-2.4538,-2.4251,-2.4251,0.0,0.0,0.0,0.0,0.0,0.0,0.0,0.0,0.0,0.0,0.0,0.0,0.0,-0.9193,-0.8941,-1.0323,-1.0433,-1.0433,-1.0433,-1.1858,-1.2714,-1.2714,-1.5488,-1.7072,-1.7125,-1.8419,0.0,0.0,0.0,-2.1929,-2.6669,-2.6512,-3.0197,-3.6744,-3.2924,-3.044,-2.8994,-2.7296,0.0,0.0,0.0,0.0,0.0,0.0,0.0,0.0,0.0,0.0,0.0,0.0,-2.3049,-2.1743,-2.1451,-2.096,-2.0273,-1.9286,0.0,0.0,0.0,0.0,0.0,-3.0561,-3.3984,-3.6506,-3.6484,-3.9423,-4.218,-4.24,-4.1547,-4.1091,-4.2239,-4.1601,-4.0894,-4.0889,-4.0878,-4.0874,-4.0901,-4.0888,-4.0879,-4.0893,-4.0534,-3.9881,-3.8816,-3.8007,-3.7861,-3.869,-3.7966,-3.7429,-3.7154,-3.6708,-3.6477,-3.6492,-3.4581,-3.4013,-3.4892,-3.5411,-3.5675,-3.5707,-3.4996,-3.4643,-3.4634,-3.3339,-3.2684,-3.2624,-3.1661,-3.1217,-3.1128,-2.9943,-2.9198,-2.8516,-2.6446,-2.5586,-2.5294,-2.4538,-2.4152,-2.4152,0.0,0.0,0.0,-1.4569,0.0,-1.3667,-1.4336,-1.4444,0.0,0.0,0.0,0.0,0.0,0.0,-1.1528,-1.2984,-1.2862,-1.2705,-1.2705,-1.3355,-1.3736,-1.3736,-1.5754,-1.6876,-1.691,0.0,0.0,0.0,0.0,0.0,0.0,0.0,-2.8613,-3.552,-3.3671,0.0,0.0,0.0,0.0,-2.5315,0.0,0.0,-3.0677,0.0,0.0,0.0,0.0,0.0,0.0,0.0,0.0,0.0,0.0,0.0,0.0,0.0,0.0,0.0,-2.2419,0.0,0.0,0.0,0.0,-3.3939,-3.6,0.0,-4.3521,-4.348,-4.2573,-4.2142,-4.3278,-4.2537,-4.1747,-4.1768,-4.1253,-4.0909,-4.088,-4.0896,-4.0879,-4.091,-4.0899,-4.0297,-3.8783,-3.8645,-3.8311,-3.756,-3.7308,-3.7163,-3.7169,-3.6754,-3.632,-3.5914,-3.5213,-3.4754,-3.4576,-3.5323,-3.568,-3.571,-3.5223,-3.4799,-3.4301,-3.3458,-3.2698,-3.2089,-3.1217,-3.0859,-3.0859,-2.9852,-2.9002,-2.8132,-2.6542,-2.5684,-2.5197,-2.444,-2.4152,-2.4152,0.0,-1.662,-1.5955,-1.811,-1.6873,-1.6249,-1.8181,-1.8485,0.0,0.0,0.0,0.0,0.0,0.0,0.0,-1.4161,-1.3411,-1.2957,-1.2927,-1.4798,-1.5896,-1.5896,-1.777,-1.8843,-1.8913,0.0,0.0,0.0,0.0,0.0,0.0,0.0,-2.622,0.0,-3.4604,-3.1123,-2.3274,0.0,-2.7692,-2.7666,0.0,-2.7163,-3.2791,0.0,0.0,0.0,-4.1938,-4.1524,0.0,-2.6539,0.0,0.0,0.0,0.0,0.0,0.0,0.0,0.0,0.0,0.0,0.0,0.0,0.0,0.0,-3.6064,0.0,-4.3449,-4.3469,-4.3486,-4.3501,-4.3486,-4.3487,-4.3487,-4.3472,-4.2058,-4.0946,-4.0911,-4.0926,-4.0888,-4.0888,-4.0888,-4.0882,-4.0882,-4.0916,-3.993,-3.7648,-3.6876,-3.6479,-3.649,-3.6476,-3.6001,-3.4886,-3.5581,-3.5645,-3.4828,-3.5425,-3.571,-3.571,-3.571,-3.4964,-3.3713,-3.3628,-3.2686,-3.0949,-3.0859,-3.0859,-3.0769,-2.9852,-2.9002,-2.8132,-2.6914,-2.5974,-2.5197,-2.444,-2.4152,-2.4152,-1.7822,-1.7586,-1.7524,-1.8049,-1.777,-1.7612,-1.8063,-1.8205,-1.8116,0.0,0.0,0.0,0.0,0.0,0.0,0.0,-1.952,-1.8811,-1.8251,-1.8188,-1.8185,-1.8185,-1.8726,-1.9019,-1.9035,0.0,0.0,0.0,0.0,0.0,0.0,0.0,0.0,0.0,-2.6289,-2.5038,-2.2226,-2.3072,0.0,0.0,-2.3045,-2.8801,0.0,0.0,0.0,0.0,0.0,-3.8696,-4.1197,0.0,-3.3684,-3.0298,0.0,0.0,0.0,0.0,0.0,0.0,-2.1648,0.0,0.0,0.0,0.0,0.0,0.0,0.0,-4.181,-4.2438,-4.3067,-4.3373,-4.293,-4.3214,-4.3286,-4.2659,-4.2685,-4.2321,-4.1104,-4.0926,-4.0888,-4.0888,-4.0888,-4.0922,-4.0882,-4.0912,-3.9747,-3.6999,-3.6837,-3.6747,-3.6538,-3.6523,-3.6058,-3.5099,-3.5724,-3.5674,-3.4828,-3.5425,-3.571,-3.571,-3.5209,-3.4799,-3.4384,-3.3104,-3.2164,-3.1637,-3.0385,-2.9852,-2.984,-2.8991,-2.833,-2.7673,-2.6157,-2.5489,-2.5197,-2.444,-2.4152,-2.4152,-1.7526,-1.7783,-1.818,-1.8802,-1.9213,-1.9544,-1.9833,-1.9757,-1.9708,0.0,0.0,0.0,0.0,0.0,0.0,0.0,-2.2147,-2.1169,-2.0355,-1.954,-1.9087,-1.9087,-1.9087,-1.9087,-1.9087,0.0,0.0,0.0,0.0,0.0,0.0,0.0,0.0,0.0,0.0,0.0,0.0,0.0,0.0,0.0,-2.6554,0.0,0.0,-3.4778,-3.7154,0.0,0.0,0.0,-4.1586,-4.1079,-3.5705,0.0,0.0,0.0,0.0,0.0,0.0,0.0,0.0,0.0,0.0,0.0,0.0,0.0,0.0,0.0,0.0,-3.8042,-4.051,-4.2504,-4.2372,-4.2698,-4.2848,-4.2555,-4.265,-4.2339,-4.1104,-4.0891,-4.0884,-4.0871,-4.0888,-4.0888,-4.0888,-4.0886,-3.9885,-3.7448,-3.7374,-3.715,-3.6508,-3.68,-3.6526,-3.5578,-3.6215,-3.6056,-3.5194,-3.5533,-3.5548,-3.5304,-3.4881,-3.4288,-3.3518,-3.25,-3.1625,-3.0913,-2.9932,-2.9393,-2.9117,-2.7966,-2.7389,-2.702,-2.5771,-2.5099,-2.4824,-2.4341,-2.4152,-2.4152,0.0,-1.7576,-1.8363,-1.9983,-2.0858,-2.1657,-2.2681,-2.2288,-2.1992,0.0,0.0,0.0,0.0,0.0,0.0,0.0,-2.2736,-2.1401,-2.0408,-1.9596,-1.9126,-1.9036,-1.9126,-1.9126,-1.9053,-1.9129,0.0,0.0,0.0,0.0,0.0,0.0,0.0,0.0,0.0,0.0,0.0,0.0,0.0,-2.424,-3.1776,-3.0749,0.0,0.0,-4.0471,-4.0915,-4.0877,-4.0928,-4.0972,-4.0971,-3.4687,0.0,0.0,0.0,0.0,0.0,-2.4765,0.0,0.0,0.0,0.0,0.0,0.0,0.0,0.0,0.0,0.0,-3.2222,-3.6359,-4.0285,-4.093,-4.1333,-4.1625,-4.1767,-4.1688,-4.1445,-4.0972,-4.0902,-4.0896,-4.0918,-4.0888,-4.0888,-4.0888,-4.0806,-4.0067,-3.8389,-3.7975,-3.7492,-3.6631,-3.7105,-3.6999,-3.6258,-3.6722,-3.658,-3.571,-3.571,-3.5386,-3.462,-3.4538,-3.3602,-3.1889,-3.1801,-3.0913,-2.9485,-2.9485,-2.9209,-2.8664,-2.722,-2.6542,-2.6456,-2.5489,-2.4824,-2.4152,-2.4152,-2.4152,-2.4152,-1.7043,-1.792,-1.9116,-2.0502,-2.1539,-2.2773,-2.4551,-2.3858,-2.3591,0.0,0.0,0.0,0.0,0.0,0.0,0.0,0.0,0.0,-2.0849,-1.9944,-1.9239,-1.8642,-1.9225,-1.9298,-1.8697,-1.9333,0.0,0.0,0.0,0.0,0.0,0.0,0.0,0.0,0.0,0.0,0.0,0.0,0.0,-3.1411,-2.7114,0.0,-3.758,-3.9861,-4.0833,-4.0888,-4.0892,-4.1142,-4.1459,-4.1451,-4.0926,-3.8415,0.0,0.0,0.0,0.0,0.0,0.0,0.0,0.0,0.0,0.0,0.0,0.0,0.0,-3.0852,-3.3882,0.0,-3.1623,-3.3647,-3.479,-3.6476,-3.7114,-3.5281,-3.8044,-4.0566,-4.1006,-4.0954,-4.0918,-4.0888,-4.0888,-4.0888,-4.0888,-4.0331,-3.9412,-3.8161,-3.725,-3.694,-3.7277,-3.6788,-3.6639,-3.6867,-3.6376,-3.5997,-3.571,-3.571,-3.5196,-3.4165,-3.3577,-3.2636,-3.1323,-3.0362,-2.984,-2.9485,-2.9128,-2.885,-2.8746,-2.7788,-2.702,-2.636,-2.4922,-2.435,-2.4152,-2.4152,-2.4152,-2.4152,-1.6723,-1.7734,-1.9435,-2.196,-2.3964,-2.5927,-2.7885,-2.7436,0.0,0.0,0.0,0.0,0.0,0.0,0.0,0.0,0.0,0.0,-2.156,-2.034,-1.9532,-1.9167,-1.9517,-1.9591,-1.9204,-1.9167,-1.8653,0.0,0.0,0.0,0.0,0.0,0.0,0.0,0.0,0.0,0.0,0.0,-2.5102,-2.8395,-2.8389,0.0,-4.3129,-4.3144,-4.3145,-4.316,-4.3478,-4.3676,-4.3886,-4.3888,-4.3707,0.0,0.0,-3.4877,-3.5207,0.0,-3.0499,-2.5627,0.0,0.0,0.0,-2.8571,0.0,0.0,0.0,0.0,-3.2348,-3.2292,-3.231,-3.2673,-3.3734,-3.454,-3.4926,-3.4564,-3.6852,-3.8576,-3.834,-3.9843,-4.0982,-4.0935,-4.0888,-4.0888,-4.0888,-4.0268,-3.9306,-3.8019,-3.7112,-3.6847,-3.7461,-3.7035,-3.6887,-3.7114,-3.667,-3.6161,-3.571,-3.5386,-3.4607,-3.3492,-3.2821,-3.1777,-3.0351,-2.9749,-2.9393,-2.9117,-2.8943,-2.8757,-2.8757,-2.7977,-2.74,-2.6924,-2.5392,-2.4529,-2.4152,-2.4152,-2.4152,-2.4152,-1.6682,-1.744,-1.9199,-2.2669,-2.6118,-2.8931,-3.0572,-3.0451,0.0,0.0,0.0,0.0,0.0,0.0,0.0,0.0,0.0,0.0,0.0,-2.1908,-2.1083,-2.0789,-2.035,-2.0262,-2.0561,-1.9443,-1.8585,-1.8023,0.0,0.0,0.0,0.0,0.0,0.0,0.0,0.0,0.0,0.0,0.0,-2.567,0.0,-3.7714,-4.2711,-4.4741,-4.5488,-4.5532,-4.6038,-4.6187,-4.6223,-4.6194,-4.4527,-4.258,-4.3434,-4.4443,0.0,0.0,0.0,0.0,0.0,0.0,0.0,0.0,0.0,-2.9344,0.0,0.0,0.0,0.0,0.0,0.0,0.0,-3.2588,-3.2668,-3.3654,-3.5072,-3.5626,-3.4364,-3.7203,0.0,-3.9427,-4.0296,-4.0716,-4.0267,-3.9504,-3.8631,-3.7732,-3.6547,-3.6337,-3.7407,-3.7195,-3.7051,-3.7096,-3.6809,-3.6322,-3.5548,-3.5046,-3.4191,-3.2907,-3.2314,-3.1169,-2.9658,-2.9485,-2.9117,-2.8757,-2.8757,-2.8757,-2.8757,-2.807,-2.7778,-2.7494,-2.5868,-2.4913,-2.4341,-2.4143,-2.4053,-2.3945,-1.7392,-1.7355,-1.7836,-2.0589,-2.5747,-2.9672,-3.0108,-3.02,0.0,0.0,0.0,0.0,0.0,0.0,0.0,0.0,0.0,0.0,-2.6857,0.0,-2.5687,-2.4384,-2.2384,-2.1961,-2.3335,-2.1263,-1.8905,-1.6287,0.0,0.0,0.0,0.0,0.0,0.0,-2.2192,0.0,0.0,0.0,-2.9214,0.0,-3.5439,-3.4449,0.0,-4.2281,-4.5737,-4.5811,-4.6116,-4.6186,-4.6187,0.0,-4.3704,-4.0643,0.0,-4.2955,-4.5013,0.0,0.0,0.0,0.0,0.0,0.0,0.0,-3.3369,0.0,0.0,0.0,0.0,-2.6932,0.0,0.0,0.0,0.0,0.0,0.0,-2.9465,-3.1323,-2.9698,-3.1798,-3.3653,-3.4097,-3.8166,-4.0095,-3.806,-3.6375,-3.5885,-3.6977,-3.4469,-3.416,-3.7158,-3.6505,-3.633,-3.6873,-3.6215,-3.5548,-3.4799,-3.5141,-3.4454,-3.2747,-3.219,-3.13,-3.0079,-2.929,-2.885,-2.8757,-2.8757,-2.8757,-2.8757,-2.8653,-2.8269,-2.7494,-2.5868,-2.5294,-2.5001,-2.3818,-2.3429,-2.3329,-1.6617,-1.7971,-1.8905,-1.9217,-2.2655,-2.6799,-3.0989,-3.2377,0.0,0.0,0.0,0.0,0.0,0.0,0.0,0.0,0.0,-3.166,0.0,0.0,0.0,-2.317,-2.2134,-2.1727,-2.1933,-2.0581,-1.8818,-1.6706,-1.6061,0.0,0.0,0.0,0.0,0.0,-2.2942,0.0,-2.7896,0.0,0.0,0.0,0.0,0.0,0.0,-4.2713,-4.6941,-4.6861,-4.7327,-4.7166,-4.6676,0.0,-4.3219,0.0,0.0,0.0,0.0,0.0,0.0,0.0,0.0,0.0,0.0,0.0,0.0,0.0,-2.8647,0.0,-2.6889,0.0,0.0,0.0,0.0,0.0,0.0,0.0,-2.8568,0.0,0.0,0.0,-3.2674,0.0,0.0,-3.5845,-3.5824,-3.5235,-3.5424,-3.6917,-3.4196,-3.3873,-3.7112,-3.6401,-3.6228,-3.6908,-3.5763,-3.5141,-3.5141,-3.4564,-3.3602,-3.219,-3.1577,-3.0609,-2.9371,-2.9024,-2.8757,-2.8757,-2.8757,-2.8757,-2.8757,-2.8757,-2.8362,-2.7494,-2.6446,-2.5684,-2.5099,-2.3818,-2.3329,-2.3229,-1.5492,0.0,-1.9029,-1.8484,-2.0603,-2.4433,-3.0487,-3.2579,0.0,0.0,0.0,0.0,-3.6182,-3.5531,0.0,0.0,-3.5797,-3.4151,0.0,0.0,-2.8265,-2.6179,-2.348,0.0,-2.3559,-2.1097,-1.8934,-1.7176,-1.5801,0.0,0.0,0.0,0.0,0.0,0.0,-2.7503,-3.1983,0.0,0.0,-3.2668,-3.4367,-3.5288,-3.6444,-4.3715,-4.7126,-4.8068,-4.866,-4.8617,-4.8192,-4.7418,-4.414,0.0,-4.355,0.0,0.0,0.0,0.0,0.0,-3.7068,0.0,0.0,0.0,0.0,0.0,0.0,0.0,0.0,0.0,0.0,0.0,0.0,0.0,0.0,0.0,0.0,-2.7973,0.0,0.0,0.0,0.0,0.0,0.0,-3.3359,-3.2911,-3.3534,-3.6037,-3.3167,-3.3043,-3.7045,-3.6362,-3.6009,-3.6294,-3.5359,-3.4799,-3.4454,-3.3713,-3.2821,-3.1653,-3.0968,-3.0181,-2.9209,-2.8932,-2.8757,-2.8757,-2.8757,-2.8757,-2.8757,-2.856,-2.807,-2.7295,-2.634,-2.547,-2.4698,-2.352,-2.3129,-2.3029,-1.4335,-1.5422,-1.6863,-1.8593,-2.0958,-2.3848,-2.7685,-2.8926,0.0,0.0,0.0,0.0,0.0,0.0,0.0,0.0,0.0,-4.2506,-3.8721,0.0,-3.4619,-3.7101,-2.7996,-2.5449,0.0,-2.4206,-1.9434,-1.7099,0.0,0.0,0.0,0.0,0.0,0.0,0.0,-2.8903,-3.0932,-3.5204,-3.9244,-4.2748,-4.2964,-4.5803,-4.9414,0.0,-4.5602,-4.9291,-4.9702,0.0,0.0,-4.8538,-4.7177,-4.6396,-4.568,0.0,0.0,0.0,0.0,0.0,0.0,0.0,0.0,-3.371,0.0,0.0,0.0,0.0,-2.9959,0.0,0.0,0.0,0.0,0.0,0.0,0.0,0.0,0.0,0.0,0.0,0.0,0.0,0.0,0.0,0.0,-2.8113,-2.86,-3.3903,-3.0529,-3.0812,-3.6809,-3.6248,-3.544,-3.4799,-3.5141,-3.4288,-3.2152,-3.2895,-3.2537,-3.0902,-3.0441,-3.017,-3.0079,-2.9198,-2.8757,-2.8757,-2.8757,-2.8757,-2.8757,-2.7977,-2.7284,-2.6693,-2.5158,-2.4187,-2.3692,-2.282,-2.2526,-2.2325,0.0,0.0,-1.8143,-1.7377,-1.8936,-2.1777,-2.6283,-2.9194,0.0,0.0,0.0,0.0,0.0,-4.0204,-4.1081,0.0,0.0,-4.1844,-3.874,-3.6383,0.0,-3.4779,-2.8849,-2.6536,0.0,0.0,0.0,0.0,0.0,0.0,0.0,0.0,0.0,0.0,0.0,-3.0617,0.0,0.0,0.0,0.0,0.0,-4.5635,-4.8555,0.0,-4.9064,-5.0662,-5.0801,-5.098,-5.1048,-5.011,-4.8239,-4.6452,-4.7555,-4.5765,-4.3495,-4.4749,-4.4499,-4.3611,-4.2679,-4.3573,-4.3195,-3.6723,-3.5338,0.0,0.0,0.0,0.0,0.0,0.0,0.0,0.0,0.0,0.0,0.0,0.0,0.0,0.0,0.0,0.0,0.0,0.0,0.0,0.0,0.0,0.0,0.0,-3.122,0.0,-3.5342,-3.5535,-3.5046,-3.4095,-3.3746,-3.3054,-3.1928,-3.1753,-3.1323,-3.0441,-3.0878,-3.0519,-2.929,-2.9555,-2.9371,-2.8757,-2.8757,-2.8466,-2.7977,-2.7683,-2.6713,-2.5256,-2.4679,-2.3899,-2.2811,-2.2224,-2.192,-2.1827,-1.7539,0.0,-1.853,-1.7282,-1.9096,-2.2086,-2.5982,0.0,0.0,0.0,-3.6226,0.0,-4.0612,0.0,-4.1749,0.0,-4.3272,-4.2114,-3.9282,-3.7664,0.0,-3.592,-3.167,0.0,0.0,0.0,0.0,0.0,0.0,-1.8659,0.0,0.0,0.0,0.0,0.0,0.0,0.0,0.0,-4.1298,0.0,0.0,-4.7274,0.0,0.0,-5.0576,-5.0282,0.0,-5.1419,-5.1275,-5.1146,-4.9701,-4.8101,-4.8963,-4.7239,-4.5152,-4.6368,-4.601,-4.5101,-4.4403,-4.513,-4.4795,-3.9513,-3.7958,-3.6361,-3.1081,0.0,-3.2658,0.0,0.0,0.0,0.0,0.0,0.0,0.0,0.0,0.0,0.0,0.0,0.0,0.0,0.0,0.0,0.0,0.0,0.0,0.0,0.0,0.0,0.0,-3.5289,-3.4703,-3.3322,-3.2968,-3.2265,-3.1033,-3.0789,-3.0351,-2.9726,-3.0351,-2.9988,-2.885,-2.9463,-2.9371,-2.8757,-2.8466,-2.7966,-2.7284,-2.6713,-2.545,-2.389,-2.3601,-2.3011,-2.2123,-2.1827,-2.1623,-2.1216,0.0,0.0,-1.8267,-1.849,-2.1467,-2.4508,0.0,0.0,-3.2911,0.0,-3.6814,-3.9048,-4.1342,-4.2624,-4.3465,-4.4039,-4.4421,-4.3522,-4.0768,-3.9475,0.0,0.0,-3.6291,-3.5433,-3.8903,0.0,0.0,0.0,0.0,0.0,0.0,0.0,0.0,0.0,-2.4184,0.0,-3.6456,-3.8784,-4.38,-5.0246,-5.0492,-5.0804,-5.1121,-5.1245,-5.0012,-4.8519,-5.0883,-5.1889,-5.2072,-5.1674,-5.1536,-5.1271,-4.9935,-4.9917,-5.0198,-4.9262,-4.9637,-4.9813,-4.7286,-4.6839,-4.6102,-4.2015,-4.0293,-3.8511,-3.4356,-3.5952,-3.7796,0.0,0.0,0.0,0.0,0.0,0.0,0.0,0.0,0.0,0.0,0.0,0.0,0.0,0.0,0.0,0.0,0.0,0.0,0.0,0.0,0.0,0.0,-3.5386,-3.4145,-3.2624,-3.2955,-3.1916,-2.9485,-2.992,-2.9635,-2.8757,-2.885,-2.8839,-2.8757,-2.885,-2.885,-2.8653,-2.7882,-2.7189,-2.6491,-2.5061,-2.3791,-2.2793,-2.2021,-2.1623,-2.1623,-2.1623,-2.1318,-2.0712,-1.9141,-2.0703,-2.2364,0.0,-2.3591,-2.4942,0.0,0.0,0.0,0.0,-3.9015,-4.0893,-4.2512,-4.3663,-4.4208,-4.3989,-4.4064,0.0,0.0,0.0,0.0,-4.3103,-3.8992,-3.7398,-3.9033,-3.2788,0.0,-2.8459,0.0,0.0,-2.2513,0.0,0.0,0.0,0.0,0.0,-3.649,-3.9353,-4.4352,-5.0341,-5.0547,-4.982,-4.8887,0.0,-5.0142,-4.8794,-5.1173,-5.2209,-5.2435,-5.2327,-5.2069,-5.167,-5.1292,-5.057,-4.9934,-5.0099,-5.0002,-4.9743,-4.9507,-4.9564,-4.8952,-4.6025,-4.3712,-4.1378,-3.8389,-3.8844,-3.9244,-3.6867,-3.9264,0.0,0.0,0.0,0.0,0.0,0.0,0.0,0.0,0.0,0.0,0.0,0.0,0.0,0.0,0.0,0.0,0.0,0.0,0.0,0.0,0.0,-3.0994,-3.1867,-3.1311,-3.0339,-2.9024,-2.9117,-2.9024,-2.885,-2.9555,-2.9463,-2.885,-2.9555,-2.8877,-2.7274,-2.7084,-2.6021,-2.4464,-2.4079,-2.3203,-2.2013,-2.1818,-2.1105,-2.0292,-2.0696,-2.049,-1.9776,-2.1251,0.0,0.0,-2.6698,0.0,0.0,-3.0863,-3.1933,0.0,-3.7906,-4.0172,0.0,-4.2426,-4.4738,-4.5768,-4.4582,-4.4766,0.0,-4.2741,0.0,0.0,-4.2735,-4.1382,-4.0847,-4.1477,-3.681,0.0,-3.1172,0.0,0.0,-2.2919,0.0,0.0,0.0,0.0,-2.9128,0.0,-4.0597,-4.5354,-4.9114,-5.0272,-5.0154,0.0,-5.0939,-5.0901,-5.0325,-5.177,-5.2426,-5.2635,-5.2743,-5.2601,-5.2352,-5.2027,-5.1636,-5.1218,-5.0823,-5.0647,-5.0583,-5.0577,-5.0623,-5.0221,-4.8432,-4.6642,-4.4526,-4.1628,-4.1324,-4.1316,-4.0213,-4.103,-4.153,-4.0168,-3.6439,0.0,0.0,0.0,0.0,0.0,0.0,0.0,0.0,0.0,0.0,0.0,0.0,0.0,0.0,0.0,0.0,0.0,0.0,-3.0094,-3.1592,-3.0489,-2.9523,-2.8664,-2.8549,-2.8549,-2.8664,-2.929,-2.929,-2.8664,-2.9198,-2.8412,-2.6607,-2.632,-2.5051,-2.3285,-2.3003,-2.2207,-2.1318,-2.1623,-2.0909,-1.968,-1.9864,-1.9554,-1.8945,0.0,0.0,0.0,0.0,0.0,0.0,0.0,-3.4599,0.0,-3.9034,0.0,-4.2565,-4.2332,-4.5746,-4.7341,-4.5546,-4.5881,-4.4825,-4.1661,-4.3283,-4.3507,-4.1553,-4.3322,-4.4474,-4.4761,-4.1488,-3.781,0.0,0.0,0.0,0.0,0.0,0.0,0.0,0.0,0.0,0.0,-4.2084,-4.6498,-4.7788,-5.0012,-5.1034,-5.1298,-5.1589,-5.184,-5.2084,-5.2472,-5.2654,-5.2654,-5.2937,-5.3127,-5.3083,-5.2471,-5.2715,-5.2981,-5.163,-5.1472,-5.1619,-5.1009,-5.0779,-5.051,-4.976,-4.8817,-4.7356,-4.4547,-4.372,-4.3763,-4.4518,-4.2998,-4.2846,-4.719,-4.0024,0.0,0.0,0.0,0.0,0.0,0.0,0.0,0.0,0.0,0.0,0.0,0.0,0.0,0.0,0.0,0.0,0.0,0.0,-2.9804,-3.1492,-3.0101,-2.9015,-2.8297,-2.8126,-2.8126,-2.8308,-2.8538,-2.8477,-2.8102,-2.8102,-2.7305,-2.5935,-2.5275,-2.4088,-2.2593,-2.1912,-2.1224,-2.0814,-2.1216,-2.0593,-1.9361,-1.9027,-1.861,-1.7996,0.0,0.0,0.0,0.0,0.0,-3.6426,-3.9064,-3.9634,-4.041,-4.2206,-4.471,-4.6051,-4.538,-4.6653,-4.7194,-4.6354,-4.5833,0.0,0.0,0.0,0.0,-4.4012,-4.435,-4.4897,-4.5677,-4.1391,-3.7984,0.0,0.0,0.0,0.0,0.0,0.0,0.0,0.0,0.0,-3.8622,-4.301,0.0,-4.9913,-5.0607,-5.0945,-5.1034,-5.1487,-5.174,-5.184,-5.2536,-5.2761,-5.2806,-5.3085,-5.3212,-5.3281,-5.3274,-5.3126,-5.2944,-5.2911,-5.2243,-5.1561,-5.1661,-5.1202,-5.0644,-5.051,-4.9221,-4.8048,-4.8105,-4.697,-4.6141,-4.698,-4.6765,-4.5821,-4.4026,-3.9751,-3.4832,0.0,0.0,0.0,0.0,0.0,0.0,0.0,0.0,0.0,0.0,0.0,0.0,0.0,0.0,0.0,0.0,0.0,0.0,0.0,-2.9351,-2.8093,-2.7812,-2.7907,-2.7907,-2.7812,-2.8004,-2.7694,-2.6723,-2.6723,-2.5548,-2.3475,-2.3384,-2.2501,-2.1216,-2.1121,-2.0609,-1.9887,-1.9983,-1.9034,-1.7674,-1.7569,-1.7041,-1.6311,0.0,0.0,0.0,0.0,0.0,0.0,0.0,-4.443,-4.554,-4.4669,-4.5412,-4.5957,-4.5651,-4.7491,-4.8438,-4.7865,-4.7815,-4.7588,-4.6904,-4.6515,-4.5974,-4.5196,-4.5162,-4.5241,-4.5303,-4.3515,-4.022,-3.5412,0.0,-2.8693,0.0,0.0,0.0,0.0,0.0,-3.2125,0.0,0.0,-4.6638,-4.887,-5.0291,-5.0891,-5.0945,-5.1487,-5.169,-5.179,-5.2536,-5.2806,-5.285,-5.3103,-5.3295,-5.34,-5.3499,-5.3682,-5.3843,-5.3554,-5.2972,-5.2466,-5.2588,-5.2011,-5.1376,-5.1318,-5.0336,-4.9374,-4.9217,-4.8196,-4.7501,-4.8318,-4.8014,-4.6544,-4.3027,-3.9558,-3.6252,-3.3224,0.0,0.0,0.0,0.0,0.0,0.0,0.0,0.0,0.0,0.0,0.0,0.0,0.0,0.0,0.0,0.0,0.0,0.0,0.0,0.0,-2.7668,-2.7657,-2.7657,-2.7679,-2.7306,-2.6829,-2.6244,-2.5654,-2.4375,-2.271,-2.271,-2.2013,-2.0925,-2.0925,-2.0403,-1.968,-1.968,-1.8729,-1.7252,-1.7252,-1.6624,-1.5891,0.0,-3.3342,0.0,0.0,-4.0342,-4.312,-4.466,-4.7968,-4.9426,-4.7087,-4.6283,-4.6068,-4.6401,-4.8505,-4.9839,-4.9526,-4.9847,-4.961,-4.846,-4.8088,-4.7394,-4.6227,-4.6024,-4.5835,-4.5563,-4.5954,-4.2943,-3.6388,-3.5514,-3.1423,-2.4505,0.0,0.0,0.0,0.0,0.0,0.0,-4.3423,-4.6638,-4.805,-5.01,-5.0891,-5.0945,-5.1487,-5.169,-5.179,-5.2536,-5.2806,-5.285,-5.3146,-5.3355,-5.3499,-5.3539,-5.4158,-5.4703,-5.4059,-5.3719,-5.3552,-5.3552,-5.2936,-5.2204,-5.1952,-5.1259,-5.0451,-4.9658,-4.8811,-4.8443,-4.9175,-4.861,-4.6853,-4.3089,-4.0929,-3.8827,-3.6174,-3.3672,0.0,0.0,0.0,0.0,0.0,0.0,0.0,0.0,0.0,0.0,0.0,0.0,0.0,0.0,0.0,0.0,0.0,0.0,-2.586,-2.662,-2.7125,-2.7232,-2.7096,-2.6502,-2.5954,-2.5266,-2.4492,-2.3402,-2.2123,-2.2123,-2.1725,-2.0925,-2.0719,-2.0197,-1.9361,-1.9257,-1.8206,-1.6935,-1.6935,-1.6518,-1.5891,0.0,0.0,0.0,0.0,0.0,-4.466,-4.6317,-4.8713,-5.0309,-5.0043,-4.9508,-4.9502,-5.0385,-5.021,-5.0338,-5.0963,-5.0439,-5.0033,-4.9898,-4.8646,-4.7851,-4.7716,-4.7056,-4.7148,-4.8053,-4.7282,-4.5043,-4.1354,-3.7682,-3.3111,-2.7806,-2.5586,-2.6815,0.0,-3.2211,-3.6749,-4.356,-4.5231,-4.7561,-5.0175,-5.0677,-5.0891,-5.0945,-5.1487,-5.169,-5.179,-5.2536,-5.2806,-5.285,-5.3193,-5.34,-5.3521,-5.3717,-5.4296,-5.4857,-5.481,-5.4599,-5.438,-5.438,-5.3743,-5.2895,-5.2106,-5.1198,-5.0502,-5.0385,-4.9669,-4.9171,-4.9872,-4.9644,-4.8041,-4.3866,-4.5686,-4.5287,-3.7516,-3.8624,0.0,0.0,0.0,0.0,0.0,0.0,0.0,0.0,-2.1336,0.0,0.0,0.0,0.0,0.0,0.0,0.0,-2.5665,-2.5039,-2.4282,-2.3639,-2.6084,-2.6709,-2.5476,-2.569,-2.4698,-2.282,-2.2719,-2.2123,-2.1019,-2.1019,-2.1019,-2.0814,-2.0094,-1.9257,-1.8422,-1.7674,-1.6836,-1.5992,-1.5992,-1.5992,-1.5891,0.0,0.0,0.0,0.0,0.0,0.0,-4.7932,-4.9626,-5.0627,-5.076,-5.0574,-5.0404,-5.0301,-5.0548,-5.0896,-5.1183,-5.1792,-5.1944,-5.1454,-5.096,-5.0108,-4.8734,-4.8515,-4.825,-4.786,-4.7905,-4.6237,-4.2699,-3.9181,-3.5032,-3.0331,-2.9796,-3.1991,-3.6578,-3.9221,-4.2112,-4.513,-4.8045,-4.9701,-5.0415,-5.0764,-5.0891,-5.0945,-5.1487,-5.169,-5.179,-5.2536,-5.2806,-5.285,-5.3277,-5.3459,-5.3539,-5.3676,-5.4246,-5.4866,-5.4876,-5.4713,-5.4612,-5.5132,-5.463,-5.3877,-5.3509,-5.2715,-5.1905,-5.1338,-5.0527,-4.992,-5.0076,-4.9778,-4.8931,-4.7117,-4.5979,-4.479,-4.3213,-4.2044,-4.1596,0.0,0.0,0.0,0.0,0.0,0.0,0.0,0.0,0.0,0.0,0.0,0.0,0.0,0.0,0.0,-2.2267,0.0,-2.5224,-2.3483,-2.5972,-2.6683,-2.5526,-2.5004,-2.3908,-2.2526,-2.1818,-2.1326,-2.0925,-2.0925,-2.0609,-2.0197,-1.9783,-1.8938,-1.7674,-1.7358,-1.6624,-1.5891,-1.6105,-1.5571,-1.4922,-4.28,0.0,-4.2704,0.0,-4.6155,-4.682,-4.9107,-5.0057,-5.0524,-5.0702,-5.0719,-5.0584,-5.0264,-5.0832,-5.1302,-5.1522,-5.2806,-5.3314,-5.2738,-5.2731,-5.186,-5.0022,-4.9854,-4.9274,-4.818,-4.8661,-4.7567,-4.4837,-4.1719,-3.8463,-3.5063,-3.4868,-3.7222,-4.1805,-4.4733,-4.6596,-4.7596,-5.0558,-5.1384,-5.0711,-5.078,-5.0819,-5.0945,-5.1487,-5.169,-5.179,-5.2536,-5.2806,-5.285,-5.3318,-5.3499,-5.3539,-5.3676,-5.4265,-5.4836,-5.4876,-5.4886,-5.5016,-5.5633,-5.5323,-5.4705,-5.4161,-5.3541,-5.2768,-5.1584,-5.083,-5.0302,-5.0057,-4.9693,-4.9365,-4.9146,-4.6615,-4.493,-4.6024,-4.4326,-4.3029,-4.3436,-4.317,0.0,0.0,-3.8991,-3.6533,-3.5278,-2.9529,0.0,0.0,0.0,0.0,0.0,0.0,0.0,0.0,0.0,0.0,-2.358,-2.5776,-2.6274,-2.5197,-2.4097,-2.3111,-2.203,-2.1224,-2.0925,-2.0925,-2.0925,-2.0403,-1.968,-1.9472,-1.852,-1.7252,-1.7047,-1.6524,-1.5998,-1.6217,-1.5678,-1.4815,-4.4997,-4.545,-4.6069,-4.788,-4.8322,-4.8782,-4.9715,-4.9914,-4.9961,-5.0101,-5.0101,-5.0388,-5.1116,-5.1217,-5.1505,-5.2232,-5.3126,-5.37,-5.37,-5.3215,-5.2528,-5.1725,-5.0957,-5.0283,-4.9691,-4.9691,-4.9371,-4.8752,-4.5699,-4.3802,-4.3024,-4.0698,-4.2078,-4.6562,-4.7338,-4.9355,-5.2132,-5.2381,-5.2125,-5.1442,-5.0844,-5.0729,-5.0945,-5.1487,-5.169,-5.179,-5.2536,-5.2806,-5.285,-5.3318,-5.3499,-5.3521,-5.3736,-5.4296,-5.4905,-5.4905,-5.5306,-5.5787,-5.5787,-5.5726,-5.528,-5.3543,-5.3056,-5.2548,-5.0795,-5.0367,-5.0207,-4.9871,-4.9495,-4.9146,-4.8943,-4.8713,-4.7389,-4.3923,-4.5328,-4.5596,-4.2027,-4.0737,0.0,-3.9131,-3.1273,-2.813,-3.3878,-2.5978,0.0,0.0,0.0,0.0,0.0,0.0,0.0,-2.4882,-2.5652,-2.5274,-2.3657,-2.5021,-2.5187,-2.4088,-2.3011,-2.1928,-2.0925,-2.0925,-2.0925,-2.0925,-2.0925,-2.0403,-1.968,-1.8736,-1.8108,-1.7477,-1.6643,-1.6324,-1.6324,-1.6324,-1.6324,-1.6111,-4.7189,-4.7336,-4.7614,-4.8272,-4.8564,-4.8791,-4.9089,-4.9249,-4.9294,-4.934,-4.9357,-4.9503,-4.9786,-5.0672,-5.1383,-5.1749,-5.2986,-5.3783,-5.3915,-5.3823,-5.3472,-5.2701,-5.2008,-5.1391,-5.0693,-5.0176,-4.9815,-4.9631,-4.6562,-4.5475,-4.6251,-4.551,-4.7669,-5.2208,-5.245,-5.2779,-5.3143,-5.2844,-5.23,-5.1459,-5.099,-5.0819,-5.0945,-5.1487,-5.169,-5.179,-5.2536,-5.2806,-5.285,-5.3318,-5.3499,-5.3539,-5.3736,-5.4262,-5.4836,-5.4836,-5.525,-5.5724,-5.5724,-5.532,-5.4586,-5.3347,-5.2612,-5.2012,-5.1362,-5.1021,-5.0597,-4.9778,-4.9384,-4.9146,-4.8943,-4.875,-4.8218,-4.7022,-4.7161,-4.6783,-4.5103,-4.4317,-4.3354,-4.1773,-3.8942,-3.7178,-3.7093,-3.1945,0.0,0.0,0.0,0.0,0.0,0.0,0.0,0.0,-2.6075,-2.6466,-2.3667,-2.5684,-2.5877,-2.4088,-2.3791,-2.261,-2.0925,-2.0925,-2.0925,-2.0925,-2.0925,-2.0086,-1.884,-1.8527,-1.7582,-1.6418,-1.6105,-1.5998,-1.5998,-1.6217,-1.5678,-1.4702,-4.8292,-4.8356,-4.8436,-4.8564,-4.8769,-4.8894,-4.8894,-4.8956,-4.9001,-4.9001,-4.9063,-4.9124,-4.9168,-5.0255,-5.1104,-5.152,-5.2963,-5.3963,-5.4045,-5.4239,-5.396,-5.3266,-5.2846,-5.2304,-5.1545,-5.108,-5.0838,-5.0838,-4.9217,-4.8907,-4.9855,-5.0207,-5.1924,-5.4797,-5.4797,-5.4564,-5.4088,-5.3443,-5.2892,-5.2462,-5.1864,-5.1696,-5.1806,-5.2254,-5.2284,-5.2219,-5.2785,-5.2926,-5.285,-5.3235,-5.3459,-5.3561,-5.3833,-5.4311,-5.4806,-5.4806,-5.525,-5.5724,-5.5703,-5.5107,-5.4259,-5.3245,-5.2398,-5.1664,-5.1157,-5.0836,-5.043,-4.9612,-4.927,-4.9079,-4.882,-4.8642,-4.8458,-4.8229,-4.765,-4.699,-4.6257,-4.5699,-4.434,-4.1524,-4.0734,-3.944,-3.7007,-3.393,-3.1265,0.0,0.0,0.0,0.0,0.0,-2.3709,-2.3945,-2.6551,-2.6919,-2.4847,-2.5724,-2.5479,-2.4088,-2.3294,-2.2207,-2.0925,-2.0925,-2.0925,-2.0925,-2.0925,-1.9983,-1.8422,-1.8422,-1.7477,-1.5998,-1.5998,-1.6105,-1.6205,-1.6324,-1.5785,-1.5007,-4.8483,-4.869,-4.8769,-4.8786,-4.8894,-4.9001,-4.9001,-4.9001,-4.9001,-4.9001,-4.9107,-4.9229,-4.9229,-5.0032,-5.0923,-5.1657,-5.3186,-5.4171,-5.4222,-5.4367,-5.4201,-5.3511,-5.3425,-5.3063,-5.2321,-5.2252,-5.2218,-5.2218,-5.3063,-5.3477,-5.3494,-5.4441,-5.4866,-5.4866,-5.4814,-5.4886,-5.4939,-5.4053,-5.3783,-5.4046,-5.3241,-5.3006,-5.3159,-5.3419,-5.3176,-5.2812,-5.3194,-5.3106,-5.285,-5.3085,-5.3336,-5.3542,-5.3979,-5.4425,-5.4806,-5.4836,-5.5301,-5.5766,-5.5724,-5.5068,-5.4182,-5.3226,-5.2379,-5.1488,-5.0348,-5.0016,-4.9844,-4.9476,-4.9174,-4.8906,-4.866,-4.855,-4.8324,-4.7715,-4.7097,-4.6454,-4.585,-4.5196,-4.3322,-3.9233,-3.7898,-3.6523,-3.4598,-3.2849,-3.2314,-3.3309,0.0,0.0,0.0,0.0,-2.1653,-2.766,-2.6927,-2.6481,-2.6699,-2.4992,-2.4088,-2.3989,-2.1912,-2.0925,-2.0925,-2.0925,-2.0925,-2.0925,-2.0814,-1.9879,-1.8422,-1.8318,-1.7477,-1.6217,-1.6217,-1.6424,-1.6624,-1.6299,-1.6287,-1.6231,-4.8707,-4.8769,-4.8832,-4.894,-4.9001,-4.9001,-4.9001,-4.9001,-4.9063,-4.9107,-4.9168,-4.929,-4.953,-5.0352,-5.1184,-5.2027,-5.2894,-5.3668,-5.4397,-5.4431,-5.4425,-5.4253,-5.3701,-5.3322,-5.3132,-5.2528,-5.2218,-5.2218,-5.358,-5.4253,-5.427,-5.5219,-5.5692,-5.5765,-5.5191,-5.5053,-5.5087,-5.4294,-5.4039,-5.4046,-5.3374,-5.2765,-5.235,-5.2803,-5.2585,-5.2058,-5.2604,-5.2772,-5.285,-5.3085,-5.3336,-5.3542,-5.3979,-5.4471,-5.4924,-5.5138,-5.5437,-5.5724,-5.5684,-5.4586,-5.3349,-5.3072,-5.2241,-5.1231,-5.0195,-5.0289,-5.0338,-4.9439,-4.9061,-4.8855,-4.8623,-4.855,-4.8419,-4.8172,-4.7335,-4.6595,-4.6305,-4.5425,-4.4007,-4.1841,-4.1355,-4.0117,-3.739,-3.6351,-3.4369,-3.0879,-2.884,-2.7231,-2.6201,-2.1755,-2.1618,-2.6825,-2.5101,-2.4267,-2.4492,-2.3989,-2.3502,-2.282,-2.1522,-2.0925,-2.0925,-2.0925,-2.0925,-2.0917,-2.03,-1.9361,-1.8318,-1.7786,-1.6942,-1.5998,-1.5998,-1.5998,-1.5968,-1.5124,-1.4838,-1.4588,-4.8832,-4.8894,-4.8894,-4.9001,-4.9001,-4.9001,-4.9063,-4.9124,-4.9168,-4.929,-4.9411,-4.9667,-5.0206,-5.0678,-5.1443,-5.2666,-5.307,-5.3576,-5.446,-5.4512,-5.4512,-5.4512,-5.4132,-5.3908,-5.3908,-5.3477,-5.327,-5.327,-5.4443,-5.5029,-5.5156,-5.5681,-5.606,-5.6212,-5.5427,-5.5156,-5.5319,-5.4839,-5.4682,-5.4723,-5.4361,-5.377,-5.3124,-5.353,-5.3051,-5.2258,-5.2732,-5.2826,-5.2806,-5.2955,-5.3235,-5.3582,-5.4121,-5.4554,-5.4952,-5.5345,-5.5618,-5.5745,-5.5662,-5.4389,-5.2886,-5.1944,-5.1242,-5.0627,-4.9957,-4.9994,-5.0002,-4.9337,-4.903,-4.8804,-4.8623,-4.8513,-4.8229,-4.7733,-4.7035,-4.6371,-4.585,-4.5142,-4.4162,-4.2707,-4.2204,-4.0955,-3.8369,-3.6873,-3.479,-3.1758,-2.9059,-2.7231,-2.6747,-2.3424,-2.2753,-2.5586,-2.3565,-2.2793,-2.3683,-2.3302,-2.271,-2.1725,-2.1224,-2.0925,-2.0925,-2.0925,-2.0925,-2.0925,-2.0403,-1.9569,-1.8422,-1.7891,-1.7047,-1.5879,-1.5759,-1.5816,-1.5791,-1.4994,-1.4476,-1.3909,-4.9001,-4.9001,-4.9001,-4.9001,-4.9063,-4.9124,-4.9229,-4.9229,-4.929,-4.9488,-4.9752,-5.0137,-5.0867,-5.1158,-5.1856,-5.3287,-5.3408,-5.3718,-5.446,-5.4512,-5.4512,-5.4512,-5.4512,-5.4512,-5.4512,-5.4512,-5.4512,-5.4575,-5.5374,-5.5917,-5.6143,-5.6356,-5.6526,-5.6528,-5.5724,-5.5459,-5.5507,-5.5277,-5.5354,-5.5507,-5.5507,-5.4963,-5.4196,-5.4461,-5.3762,-5.2654,-5.2956,-5.2976,-5.2806,-5.2806,-5.3109,-5.3582,-5.4274,-5.4616,-5.4876,-5.5489,-5.5724,-5.5745,-5.5618,-5.4367,-5.2612,-5.0656,-5.0133,-5.0005,-4.9731,-4.9566,-4.9396,-4.9211,-4.8943,-4.8732,-4.8623,-4.8458,-4.7849,-4.6532,-4.6333,-4.5936,-4.4594,-4.4415,-4.3931,-4.2645,-4.1789,-4.0452,-3.8295,-3.6249,-3.468,-3.3797,-3.0563,-2.8773,-2.898,-2.5915,-2.4205,-2.4332,-2.2501,-2.219,-2.3493,-2.2619,-2.1827,-2.0925,-2.0925,-2.0925,-2.0925,-2.0925,-2.0925,-2.0925,-2.0609,-1.9672,-1.8422,-1.8108,-1.7153,-1.5867,-1.5644,-1.5664,-1.5842,-1.5011,-1.427,-1.3711,-4.9001,-4.9124,-4.9168,-4.9168,-4.9307,-4.9428,-4.9488,-4.9488,-4.9488,-4.9649,-5.0292,-5.0798,-5.1038,-5.1606,-5.2408,-5.3322,-5.3408,-5.3718,-5.446,-5.4512,-5.4512,-5.4512,-5.4512,-5.4512,-5.4512,-5.4512,-5.4575,-5.4717,-5.6102,-5.6906,-5.7069,-5.7921,-5.7915,-5.7314,-5.6545,-5.5924,-5.5507,-5.5277,-5.5354,-5.5507,-5.5507,-5.4647,-5.3405,-5.3939,-5.3173,-5.1919,-5.2426,-5.2708,-5.2806,-5.2806,-5.3023,-5.3484,-5.4274,-5.4547,-5.476,-5.5418,-5.5618,-5.5618,-5.5596,-5.4281,-5.2479,-5.0602,-5.0031,-4.9852,-4.9588,-4.9365,-4.9211,-4.9116,-4.8839,-4.8623,-4.8587,-4.8458,-4.7236,-4.4044,-4.5132,-4.5276,-4.2072,-4.2811,-4.3393,-4.2583,-4.1869,-4.0576,-3.831,-3.6768,-3.5278,-3.3784,-3.0563,-2.868,-2.8773,-2.6011,-2.4106,-2.3529,-2.2902,-2.2584,-2.2383,-2.1514,-2.1019,-2.0925,-2.0925,-2.0925,-2.0925,-2.0925,-2.0925,-2.0814,-1.9361,-1.8632,-1.8318,-1.6842,-1.6099,-1.5885,-1.5843,-1.5831,-1.5665,-1.3615,-1.2941,-1.27,-4.9107,-4.9229,-4.935,-4.935,-4.9428,-4.953,-4.9607,-4.959,-4.9803,-5.0393,-5.0469,-5.0976,-5.2218,-5.233,-5.2823,-5.3891,-5.4074,-5.4292,-5.462,-5.4575,-5.4512,-5.4512,-5.4512,-5.4512,-5.4512,-5.4592,-5.4717,-5.4797,-5.6287,-5.7161,-5.7468,-5.8282,-5.8584,-5.8262,-5.7035,-5.636,-5.6069,-5.5589,-5.5431,-5.5507,-5.5507,-5.4577,-5.3229,-5.3816,-5.3046,-5.179,-5.2293,-5.2618,-5.2806,-5.2806,-5.3023,-5.3444,-5.4206,-5.4503,-5.4671,-5.5369,-5.5221,-5.4737,-5.4277,-5.3126,-5.1757,-5.0361,-4.9898,-4.9731,-4.9457,-4.9289,-4.9164,-4.903,-4.8785,-4.8605,-4.855,-4.842,-4.7542,-4.533,-4.5739,-4.5602,-4.3373,-4.3278,-4.3257,-4.2583,-4.115,-3.9627,-3.8235,-3.6105,-3.4459,-3.3797,-3.1122,-2.9235,-2.8773,-2.7084,-2.5266,-2.3129,-2.2215,-2.1903,-2.2089,-2.131,-2.0925,-2.0925,-2.0925,-2.0925,-2.0925,-2.0925,-2.0925,-2.0822,-2.0086,-1.9257,-1.8318,-1.7575,-1.6736,-1.5879,-1.5734,-1.568,-1.5416,-1.3577,-1.2622,-1.199,-4.9324,-4.9411,-4.9547,-4.9547,-4.9607,-4.9666,-4.9784,-4.9784,-5.0118,-5.1011,-5.0697,-5.1205,-5.3166,-5.2978,-5.3229,-5.4454,-5.4717,-5.4842,-5.4842,-5.47,-5.4637,-5.4637,-5.4637,-5.4637,-5.4637,-5.478,-5.4929,-5.5164,-5.6501,-5.7393,-5.7936,-5.8689,-5.9032,-5.8966,-5.7719,-5.7052,-5.6824,-5.6087,-5.5771,-5.5753,-5.5578,-5.4577,-5.3229,-5.3816,-5.3046,-5.179,-5.2293,-5.2599,-5.2761,-5.2806,-5.298,-5.3363,-5.4156,-5.4425,-5.4597,-5.5295,-5.468,-5.3694,-5.3025,-5.2119,-5.1147,-5.0107,-4.9759,-4.9585,-4.9321,-4.9211,-4.9131,-4.8909,-4.875,-4.8624,-4.8513,-4.8324,-4.762,-4.5909,-4.5988,-4.567,-4.3968,-4.3463,-4.3136,-4.2583,-4.0498,-3.8839,-3.8161,-3.5588,-3.394,-3.3713,-3.15,-2.9795,-2.8762,-2.8049,-2.633,-2.352,-2.1717,-2.1216,-2.2198,-2.131,-2.0925,-2.0925,-2.0925,-2.0925,-2.0925,-2.0925,-2.0925,-2.0925,-2.0506,-1.9569,-1.8422,-1.8003,-1.7047,-1.5867,-1.5668,-1.559,-1.5344,-1.3719,-1.2595,-1.1765,-4.9564,-4.959,-4.9708,-4.9708,-4.986,-4.9952,-5.0011,-5.0092,-5.0409,-5.1011,-5.1146,-5.1776,-5.3218,-5.3445,-5.3862,-5.471,-5.4886,-5.4992,-5.4992,-5.4992,-5.4992,-5.4992,-5.4992,-5.4992,-5.4992,-5.4992,-5.5401,-5.63,-5.7174,-5.8024,-5.8931,-5.9668,-5.965,-5.9001,-5.8895,-5.8421,-5.7667,-5.6859,-5.6526,-5.6455,-5.5788,-5.4577,-5.3229,-5.3816,-5.3046,-5.179,-5.2293,-5.2554,-5.2635,-5.2761,-5.2893,-5.3175,-5.4121,-5.4392,-5.4522,-5.5217,-5.4136,-5.2703,-5.2627,-5.2018,-5.1121,-4.9986,-4.9625,-4.9439,-4.9244,-4.915,-4.9068,-4.8857,-4.8787,-4.8715,-4.855,-4.8151,-4.6631,-4.2923,-4.436,-4.4624,-4.0968,-4.1839,-4.2785,-4.252,-4.0576,-3.9,-3.8175,-3.6091,-3.4528,-3.3797,-3.15,-2.9795,-2.8762,-2.8049,-2.6819,-2.5187,-2.2114,-2.1121,-2.2426,-2.142,-2.0925,-2.0925,-2.0925,-2.0925,-2.0925,-2.0925,-2.0925,-2.0814,-1.9257,-1.8527,-1.8318,-1.673,-1.5998,-1.5885,-1.5867,-1.5861,-1.5612,-1.3218,-1.2404,-1.2202,-5.0523,-5.0506,-5.041,-4.9946,-5.0034,-5.0109,-4.9993,-5.0206,-5.0679,-5.1632,-5.1234,-5.1715,-5.4025,-5.3601,-5.3634,-5.4844,-5.5343,-5.5641,-5.5641,-5.6037,-5.6037,-5.5484,-5.5242,-5.5242,-5.5484,-5.5242,-5.5441,-5.6157,-5.7097,-5.8027,-5.8757,-5.9681,-5.9949,-5.9668,-5.9211,-5.8843,-5.8492,-5.7684,-5.7052,-5.6578,-5.6297,-5.5262,-5.3879,-5.3776,-5.3193,-5.2383,-5.2264,-5.2397,-5.2635,-5.2761,-5.303,-5.3428,-5.4139,-5.4476,-5.4727,-5.5102,-5.4349,-5.3232,-5.2532,-5.1386,-5.0232,-4.9797,-4.9555,-4.9352,-4.9211,-4.9098,-4.8927,-4.8732,-4.8624,-4.8476,-4.8035,-4.7775,-4.692,-4.4659,-4.518,-4.5215,-4.3282,-4.2891,-4.2785,-4.2724,-4.0255,-3.8399,-3.8101,-3.5734,-3.4011,-3.3713,-3.2064,-3.0441,-2.8773,-2.63,-2.4777,-2.4295,-2.2013,-2.1615,-2.3502,-2.1818,-2.1224,-2.1928,-2.1224,-2.0925,-2.0925,-2.0925,-2.0609,-2.0094,-1.9465,-1.8624,-1.7575,-1.6942,-1.6411,-1.5891,-1.5891,-1.5458,-1.4691,-1.2974,-1.1976,-1.1116,-5.1434,-5.121,-5.0942,-5.0483,-5.0305,-5.0189,-5.0149,-5.0302,-5.0898,-5.2208,-5.1546,-5.1939,-5.4591,-5.3676,-5.3579,-5.5161,-5.5582,-5.5918,-5.6313,-5.6825,-5.6843,-5.6222,-5.5925,-5.5943,-5.6167,-5.5925,-5.6106,-5.6706,-5.7721,-5.8462,-5.9002,-5.9937,-6.0262,-6.0072,-5.958,-5.9352,-5.9299,-5.8509,-5.786,-5.7316,-5.6806,-5.5683,-5.4226,-5.379,-5.3123,-5.2455,-5.2294,-5.2379,-5.2608,-5.2962,-5.3244,-5.3567,-5.4104,-5.4528,-5.4844,-5.4903,-5.4363,-5.3509,-5.239,-5.1073,-4.9913,-4.9679,-4.9452,-4.9244,-4.9211,-4.9012,-4.8839,-4.8642,-4.8569,-4.8401,-4.7897,-4.7591,-4.7106,-4.6063,-4.5817,-4.5442,-4.4575,-4.3529,-4.2769,-4.2537,-3.9908,-3.8101,-3.8101,-3.5601,-3.3966,-3.3725,-3.2612,-3.108,-2.8866,-2.5635,-2.3908,-2.4088,-2.2316,-2.2316,-2.4088,-2.2013,-2.1224,-2.203,-2.1224,-2.0925,-2.0917,-2.0609,-2.0197,-1.968,-1.9153,-1.8304,-1.7147,-1.6935,-1.6411,-1.5891,-1.5891,-1.5244,-1.4056,-1.329,-1.22,-1.1109,-5.2312,-5.1632,-5.1156,-5.1315,-5.0674,-5.0246,-5.0415,-5.0509,-5.1106,-5.2521,-5.2166,-5.2607,-5.4731,-5.3718,-5.3774,-5.5786,-5.5472,-5.5685,-5.7011,-5.7098,-5.7098,-5.7098,-5.7116,-5.7116,-5.7116,-5.7116,-5.7514,-5.8311,-5.909,-5.9583,-5.9804,-6.0647,-6.0661,-6.0089,-6.0089,-6.0089,-6.0054,-5.9317,-5.9018,-5.886,-5.7263,-5.5701,-5.4244,-5.379,-5.2803,-5.179,-5.2307,-5.2481,-5.2618,-5.3345,-5.3487,-5.3508,-5.4123,-5.4565,-5.4871,-5.4661,-5.4031,-5.3189,-5.2151,-5.1265,-5.0445,-4.9665,-4.9345,-4.9197,-4.9197,-4.8996,-4.8751,-4.8642,-4.8587,-4.855,-4.8344,-4.7596,-4.6847,-4.6478,-4.5835,-4.5032,-4.3948,-4.3333,-4.2691,-4.1901,-3.9586,-3.8101,-3.8101,-3.6029,-3.4384,-3.3713,-3.3056,-3.1524,-2.8855,-2.631,-2.4894,-2.4894,-2.332,-2.3011,-2.4088,-2.2013,-2.0925,-2.0917,-2.0925,-2.0925,-2.0917,-2.0094,-1.968,-1.9576,-1.7884,-1.7252,-1.7147,-1.6311,-1.5891,-1.5891,-1.5891,-1.5244,-1.4169,-1.4169,-1.3398,-1.2195,-5.3289,-5.2606,-5.1973,-5.157,-5.092,-5.0628,-5.1146,-5.1004,-5.1444,-5.3311,-5.2612,-5.2586,-5.4196,-5.4419,-5.4722,-5.533,-5.6486,-5.7565,-5.8357,-5.8418,-5.8418,-5.8418,-5.7682,-5.7443,-5.7877,-5.7514,-5.7594,-5.8244,-5.9219,-5.9903,-6.0395,-6.1386,-6.1697,-6.1418,-6.101,-6.0825,-6.0722,-6.0033,-5.9475,-5.8966,-5.8492,-5.7333,-5.583,-5.5005,-5.4239,-5.3473,-5.3034,-5.2932,-5.3109,-5.3484,-5.3776,-5.4052,-5.4565,-5.4791,-5.4871,-5.4661,-5.4428,-5.3905,-5.232,-5.1678,-5.1106,-4.9714,-4.923,-4.9116,-4.9012,-4.882,-4.8642,-4.8569,-4.8458,-4.8288,-4.7897,-4.7317,-4.6735,-4.6032,-4.5615,-4.5194,-4.4686,-4.3672,-4.2921,-4.2691,-3.9947,-3.8101,-3.8101,-3.5601,-3.3882,-3.3725,-3.1952,-3.0249,-2.8762,-2.6778,-2.546,-2.4894,-2.312,-2.2426,-2.3011,-2.1623,-2.1326,-2.2021,-2.1224,-2.0925,-2.0917,-2.0609,-1.9887,-1.8736,-1.8206,-1.7364,-1.6311,-1.5998,-1.5891,-1.5891,-1.5891,-1.5244,-1.4169,-1.4169,-1.2965,-1.1105,-5.4156,-5.3524,-5.2879,-5.2213,-5.1542,-5.1127,-5.128,-5.1342,-5.1888,-5.3434,-5.3217,-5.3401,-5.4688,-5.504,-5.5418,-5.6086,-5.7547,-5.8582,-5.8984,-5.8984,-5.9024,-5.9081,-5.8437,-5.8183,-5.8484,-5.819,-5.8356,-5.9046,-6.0018,-6.0702,-6.108,-6.2083,-6.2369,-6.2003,-6.1641,-6.1472,-6.1336,-6.0945,-6.0558,-6.0131,-5.9811,-5.8726,-5.7163,-5.5971,-5.5,-5.4121,-5.3421,-5.3267,-5.3404,-5.3795,-5.4072,-5.4352,-5.468,-5.473,-5.4686,-5.4571,-5.4486,-5.419,-5.2723,-5.2023,-5.1361,-5.0034,-4.9392,-4.9049,-4.8909,-4.875,-4.8569,-4.8494,-4.8401,-4.821,-4.7955,-4.7335,-4.6707,-4.6081,-4.5649,-4.514,-4.4333,-4.3512,-4.2814,-4.2285,-3.9768,-3.8101,-3.8101,-3.5935,-3.4301,-3.3713,-3.15,-2.9795,-2.8762,-2.7358,-2.6244,-2.5392,-2.4106,-2.3211,-2.3011,-2.2021,-2.1623,-2.1827,-2.1224,-2.0925,-2.0917,-2.0609,-1.9879,-1.884,-1.8527,-1.7681,-1.6411,-1.6411,-1.6205,-1.5891,-1.5891,-1.5244,-1.4169,-1.4169,-1.2965,-1.1328,-5.4842,-5.4339,-5.3694,-5.3137,-5.2333,-5.1637,-5.1189,-5.161,-5.2312,-5.3173,-5.3932,-5.475,-5.5685,-5.5652,-5.6064,-5.7489,-5.8484,-5.9024,-5.9024,-5.9024,-5.9081,-5.9177,-5.9234,-5.9139,-5.9024,-5.9024,-5.9454,-6.0332,-6.1136,-6.1675,-6.1939,-6.2789,-6.2855,-6.2214,-6.2109,-6.2075,-6.1987,-6.1951,-6.1897,-6.1806,-6.1117,-5.9849,-5.8272,-5.6909,-5.5496,-5.4209,-5.3838,-5.3602,-5.3565,-5.4198,-5.4409,-5.4424,-5.4552,-5.4505,-5.4409,-5.4409,-5.4359,-5.4121,-5.3241,-5.226,-5.1299,-5.0498,-4.9697,-4.9049,-4.8909,-4.875,-4.8569,-4.8494,-4.8363,-4.8306,-4.8267,-4.7506,-4.6799,-4.6401,-4.5784,-4.4852,-4.3399,-4.3031,-4.2458,-4.1205,-3.929,-3.8101,-3.8026,-3.6517,-3.4964,-3.3713,-3.1589,-2.9886,-2.8866,-2.8132,-2.721,-2.6284,-2.5586,-2.4796,-2.389,-2.2911,-2.1928,-2.0925,-2.0925,-2.0925,-2.0925,-2.0094,-1.968,-1.9576,-1.8736,-1.7891,-1.7041,-1.7041,-1.6624,-1.5891,-1.5891,-1.5244,-1.4169,-1.4169,-1.3398,-1.2091,-5.5096,-5.4563,-5.4046,-5.4028,-5.287,-5.2099,-5.2611,-5.2295,-5.2506,-5.3875,-5.4437,-5.4783,-5.4998,-5.6338,-5.7054,-5.6767,-5.8252,-5.9177,-5.9215,-5.9215,-5.9272,-5.9272,-5.9272,-5.9253,-5.9234,-5.9215,-5.9647,-6.0528,-6.1334,-6.2101,-6.2844,-6.3668,-6.3878,-6.3624,-6.3131,-6.2873,-6.2794,-6.2148,-6.1915,-6.195,-6.1768,-6.0734,-5.9259,-5.8887,-5.7401,-5.5415,-5.5212,-5.4705,-5.4128,-5.4321,-5.4409,-5.4409,-5.4424,-5.4424,-5.4409,-5.4324,-5.4289,-5.4086,-5.3155,-5.2244,-5.1299,-5.0498,-4.961,-4.8909,-4.8714,-4.8623,-4.855,-4.8382,-4.8306,-4.8172,-4.7816,-4.7291,-4.666,-4.6,-4.5214,-4.4502,-4.3914,-4.2892,-4.1901,-4.095,-3.9215,-3.7875,-3.7218,-3.5318,-3.3797,-3.297,-3.2001,-3.0913,-2.9886,-2.8958,-2.8132,-2.7305,-2.5771,-2.4992,-2.4992,-2.332,-2.1928,-2.0925,-2.0925,-2.0925,-2.0917,-2.0719,-1.9879,-1.8632,-1.8527,-1.7575,-1.6205,-1.6205,-1.6099,-1.5891,-1.5891,-1.5244,-1.4169,-1.4169,-1.2856,-1.0777,-5.5199,-5.4979,-5.4653,-5.4366,-5.3647,-5.2997,-5.2681,-5.3021,-5.3503,-5.3926,-5.493,-5.5612,-5.5758,-5.678,-5.7517,-5.7574,-5.8625,-5.9272,-5.9309,-5.929,-5.929,-5.929,-5.929,-5.929,-5.929,-5.9703,-6.0342,-6.1168,-6.1581,-6.2444,-6.3683,-6.4096,-6.4244,-6.4102,-6.3749,-6.3554,-6.3445,-6.2977,-6.2861,-6.2903,-6.2776,-6.1868,-6.0462,-6.0024,-5.833,-5.6158,-5.575,-5.5069,-5.434,-5.4409,-5.4409,-5.4409,-5.4409,-5.4409,-5.4375,-5.4324,-5.4254,-5.4106,-5.3569,-5.2454,-5.134,-5.0931,-4.9837,-4.8804,-4.8642,-4.8587,-4.855,-4.8344,-4.8306,-4.8172,-4.7674,-4.7204,-4.666,-4.5918,-4.5284,-4.4614,-4.3781,-4.3031,-4.2189,-4.1095,-3.9331,-3.7829,-3.673,-3.5114,-3.3953,-3.3518,-3.2686,-3.1637,-3.026,-2.9704,-2.8566,-2.6683,-2.5818,-2.4865,-2.361,-2.271,-2.181,-2.0925,-2.0925,-2.0925,-2.0925,-2.0925,-2.0197,-1.9049,-1.9049,-1.8101,-1.6518,-1.6518,-1.5986,-1.5137,-1.5137,-1.4374,-1.329,-1.2743,-1.0992,-0.8689,-5.5259,-5.5371,-5.5297,-5.463,-5.4401,-5.384,-5.2473,-5.3576,-5.4398,-5.3742,-5.5169,-5.6385,-5.6776,-5.7202,-5.7822,-5.8728,-5.9082,-5.929,-5.929,-5.929,-5.9309,-5.9346,-5.9309,-5.9309,-5.9346,-6.0022,-6.0848,-6.1787,-6.1937,-6.2801,-6.4284,-6.4284,-6.4244,-6.4143,-6.4102,-6.4061,-6.3958,-6.3867,-6.3848,-6.3915,-6.3761,-6.2792,-6.1453,-6.0743,-5.8988,-5.6854,-5.6101,-5.5216,-5.4409,-5.4458,-5.4491,-5.4472,-5.4519,-5.4552,-5.4519,-5.4409,-5.4268,-5.4144,-5.4037,-5.2846,-5.1565,-5.1471,-5.021,-4.8953,-4.866,-4.8587,-4.8532,-4.8344,-4.8306,-4.8132,-4.7591,-4.716,-4.666,-4.5918,-4.5477,-4.478,-4.3486,-4.3185,-4.2553,-4.107,-3.9247,-3.7691,-3.6615,-3.5372,-3.4607,-3.4319,-3.3091,-3.1801,-3.0351,-2.9886,-2.8555,-2.5972,-2.5789,-2.4641,-2.2215,-2.2097,-2.17,-2.1019,-2.0814,-2.0814,-2.0925,-2.0719,-2.03,-1.9472,-1.9361,-1.8304,-1.6723,-1.6723,-1.5547,-1.384,-1.384,-1.3068,-1.1642,-1.0331,-0.8355,-0.6369,-5.5431,-5.5507,-5.5472,-5.5367,-5.477,-5.4073,-5.3472,-5.3617,-5.3814,-5.3957,-5.4988,-5.5987,-5.6722,-5.7594,-5.8326,-5.8747,-5.9082,-5.929,-5.929,-5.929,-5.9383,-5.9562,-5.9383,-5.9383,-5.9581,-5.9495,-6.0248,-6.1787,-6.2557,-6.3402,-6.4284,-6.4284,-6.4284,-6.4284,-6.4143,-6.4143,-6.4244,-6.3977,-6.3977,-6.4061,-6.4061,-6.3069,-6.1572,-6.1578,-6.0041,-5.7789,-5.7018,-5.5723,-5.4424,-5.4661,-5.4765,-5.4776,-5.5026,-5.5088,-5.5034,-5.4746,-5.4541,-5.4392,-5.4144,-5.3274,-5.2289,-5.1655,-5.0708,-4.9692,-4.879,-4.855,-4.8494,-4.8306,-4.8306,-4.8035,-4.7178,-4.6954,-4.6566,-4.5459,-4.4889,-4.4316,-4.3426,-4.2802,-4.1836,-4.0255,-3.8339,-3.7014,-3.6858,-3.5507,-3.4551,-3.4147,-3.2463,-3.1146,-3.0441,-2.868,-2.7369,-2.6989,-2.5548,-2.4482,-2.4097,-2.2593,-2.1684,-2.1591,-2.0688,-2.0498,-2.0925,-2.0197,-1.9368,-1.8527,-1.7884,-1.6399,-1.4595,-1.4595,-1.383,-1.2635,-1.2635,-1.1311,-0.9109,-0.6906,-0.525,-0.4027,-5.5507,-5.5507,-5.5566,-5.5724,-5.5407,-5.4868,-5.3976,-5.4314,-5.4454,-5.3698,-5.4525,-5.5324,-5.5685,-5.6747,-5.7617,-5.7999,-5.8802,-5.9419,-5.9631,-5.9631,-5.9666,-5.9753,-5.9666,-5.9666,-5.9753,-6.0119,-6.0915,-6.2123,-6.2297,-6.3105,-6.4481,-6.4481,-6.452,-6.4634,-6.4481,-6.4385,-6.4443,-6.4143,-6.4102,-6.4203,-6.4061,-6.3349,-6.2384,-6.1897,-6.0172,-5.7882,-5.6136,-5.5126,-5.4629,-5.4765,-5.4905,-5.5053,-5.5167,-5.5193,-5.5167,-5.4914,-5.4828,-5.4739,-5.4528,-5.3361,-5.2108,-5.1765,-5.0533,-4.9249,-4.8716,-4.855,-4.8457,-4.8306,-4.8363,-4.8093,-4.7089,-4.6918,-4.6578,-4.5494,-4.514,-4.4597,-4.3588,-4.3152,-4.2189,-4.0154,-3.8635,-3.7525,-3.6986,-3.5669,-3.4634,-3.4108,-3.2525,-3.13,-3.0543,-2.9061,-2.7641,-2.6376,-2.5518,-2.4347,-2.2685,-2.1887,-2.1285,-2.0783,-2.0285,-2.0181,-2.0498,-2.0197,-1.9687,-1.8848,-1.8213,-1.7147,-1.5873,-1.5345,-1.3706,-1.1407,-1.1407,-0.9541,-0.6684,-0.5025,-0.3576,-0.2572]},{"header":{"parameterUnit":"m.s-1","parameterCategory":1,"la1":30.6,"la2":28.766,"lo1":-90.7593,"lo2":-88.6598,"dx":0.0162,"dy":0.0183,"nx":116,"ny":114,"refTime":"2022-12-24T18:00:00:Z","depth":0,"parameterNumber":3,"parameterNumberName":"V-component_of_WINDS"},"data":[0.0,0.0,0.0,0.0,0.0,0.0,0.0,0.0,0.0,0.0,0.0,0.0,0.0,0.0,0.0,0.0,0.0,0.0,0.0,0.0,0.0,0.0,0.0,0.0,0.0,0.0,0.0,0.0,0.0,0.0,0.0,0.0,0.0,0.0,0.0,0.0,0.0,0.0,0.0,0.0,0.0,0.0,0.0,0.0,0.0,0.0,0.0,0.0,0.0,0.0,0.0,0.0,0.0,0.0,0.0,0.0,0.0,0.0,0.0,0.0,0.0,0.0,0.0,0.0,0.0,0.0,0.0,0.0,0.0,0.0,0.0,0.0,0.0,0.0,0.0,0.0,0.0,0.0,0.0,0.0,0.0,0.0,0.0,0.0,0.0,0.0,0.0,0.0,0.0,0.0,0.0,0.0,0.0,0.0,0.0,0.0,0.0,0.0,0.0,0.0,0.0,0.0,0.0,0.0,0.0,0.0,0.0,0.0,0.0,0.0,0.0,0.0,0.0,0.0,0.0,0.0,0.0,0.0,0.0,0.0,0.0,0.0,0.0,0.0,0.0,0.0,0.0,0.0,0.0,0.0,0.0,0.0,0.0,0.0,0.0,0.0,0.0,0.0,0.0,0.0,0.0,0.0,0.0,0.0,0.0,0.0,0.0,0.0,0.0,0.0,0.0,0.0,0.0,0.0,0.0,0.0,0.0,0.0,0.0,0.0,0.0,0.0,0.0,0.0,0.0,0.0,0.0,0.0,0.0,0.0,0.0,0.0,0.0,0.0,0.0,0.0,0.0,0.0,0.0,0.0,0.0,0.0,0.0,0.0,0.0,0.0,0.0,0.0,0.0,0.0,0.0,0.0,0.0,0.0,0.0,0.0,0.0,0.0,0.0,0.0,0.0,0.0,0.0,0.0,0.0,0.0,0.0,0.0,0.0,0.0,0.0,0.0,0.0,0.0,0.0,0.0,0.0,0.0,0.0,0.0,0.0,0.0,0.0,0.0,0.0,0.0,0.0,0.0,0.0,0.0,0.0,0.0,0.0,0.0,0.0,0.0,0.0,0.0,0.0,0.0,0.0,0.0,0.0,0.0,0.0,0.0,0.0,0.0,0.0,0.0,0.0,0.0,0.0,0.0,0.0,0.0,0.0,0.0,0.0,0.0,0.0,0.0,0.0,0.0,0.0,0.0,0.0,0.0,0.0,0.0,0.0,0.0,0.0,0.0,0.0,0.0,0.0,0.0,0.0,0.0,0.0,0.0,0.0,0.0,0.0,0.0,0.0,0.0,0.0,0.0,0.0,0.0,0.0,0.0,0.0,0.0,0.0,0.0,0.0,0.0,0.0,0.0,0.0,0.0,0.0,0.0,0.0,0.0,0.0,0.0,0.0,0.0,0.0,0.0,0.0,0.0,0.0,0.0,0.0,0.0,0.0,0.0,0.0,0.0,0.0,0.0,0.0,0.0,0.0,0.0,0.0,0.0,0.0,0.0,0.0,0.0,0.0,0.0,0.0,0.0,0.0,0.0,0.0,0.0,0.0,0.0,0.0,0.0,0.0,0.0,0.0,0.0,0.0,0.0,0.0,0.0,0.0,0.0,0.0,0.0,0.0,0.0,0.0,0.0,0.0,0.0,0.0,0.0,0.0,0.0,0.0,0.0,0.0,0.0,0.0,0.0,0.0,0.0,0.0,0.0,0.0,0.0,0.0,0.0,0.0,0.0,0.0,0.0,0.0,0.0,0.0,0.0,0.0,0.0,0.0,0.0,0.0,0.0,0.0,0.0,0.0,0.0,0.0,0.0,0.0,0.0,0.0,0.0,0.0,0.0,0.0,0.0,0.0,0.0,0.0,0.0,0.0,0.0,0.0,0.0,0.0,0.0,0.0,0.0,0.0,0.0,0.0,0.0,0.0,0.0,0.0,0.0,0.0,0.0,0.0,0.0,0.0,0.0,0.0,0.0,0.0,0.0,0.0,0.0,0.0,0.0,0.0,0.0,0.0,0.0,0.0,0.0,0.0,0.0,0.0,0.0,0.0,0.0,0.0,0.0,0.0,0.0,0.0,0.0,0.0,0.0,0.0,0.0,0.0,0.0,0.0,0.0,0.0,0.0,0.0,0.0,0.0,0.0,0.0,0.0,0.0,0.0,0.0,0.0,0.0,0.0,0.0,0.0,0.0,0.0,0.0,0.0,0.0,0.0,0.0,0.0,0.0,0.0,0.0,0.0,0.0,0.0,0.0,0.0,0.0,0.0,0.0,0.0,0.0,0.0,0.0,0.0,0.0,0.0,0.0,0.0,0.0,0.0,0.0,0.0,0.0,0.0,0.0,0.0,0.0,0.0,0.0,0.0,0.0,0.0,0.0,0.0,0.0,0.0,0.0,0.0,0.0,0.0,0.0,0.0,0.0,0.0,0.0,0.0,0.0,0.0,0.0,0.0,0.0,0.0,0.0,0.0,0.0,0.0,0.0,0.0,0.0,0.0,0.0,0.0,0.0,0.0,0.0,0.0,0.0,0.0,0.0,0.0,0.0,0.0,0.0,0.0,0.0,0.0,0.0,0.0,0.0,0.0,0.0,0.0,0.0,0.0,0.0,0.0,0.0,0.0,0.0,0.0,0.0,0.0,0.0,0.0,0.0,0.0,0.0,0.0,0.0,0.0,0.0,0.0,0.0,0.0,0.0,0.0,0.0,0.0,0.0,0.0,0.0,0.0,0.0,0.0,0.0,0.0,0.0,0.0,0.0,0.0,0.0,0.0,0.0,0.0,0.0,0.0,0.0,0.0,0.0,0.0,0.0,0.0,0.0,0.0,0.0,0.0,0.0,0.0,0.0,0.0,0.0,0.0,0.0,0.0,0.0,0.0,0.0,0.0,0.0,0.0,0.0,0.0,0.0,0.0,0.0,0.0,0.0,0.0,0.0,0.0,0.0,0.0,0.0,0.0,0.0,0.0,0.0,0.0,0.0,0.0,0.0,0.0,0.0,0.0,0.0,0.0,0.0,0.0,0.0,0.0,0.0,0.0,0.0,0.0,0.0,0.0,0.0,0.0,0.0,0.0,0.0,0.0,0.0,0.0,0.0,0.0,0.0,0.0,0.0,0.0,0.0,0.0,0.0,0.0,0.0,0.0,0.0,0.0,0.0,0.0,0.0,0.0,0.0,0.0,0.0,0.0,0.0,0.0,0.0,0.0,0.0,0.0,0.0,0.0,0.0,0.0,0.0,0.0,0.0,0.0,0.0,0.0,0.0,0.0,0.0,0.0,0.0,0.0,0.0,0.0,0.0,0.0,0.0,0.0,0.0,0.0,0.0,0.0,0.0,0.0,0.0,0.0,0.0,0.0,0.0,0.0,0.0,0.0,0.0,0.0,0.0,0.0,0.0,0.0,0.0,0.0,0.0,0.0,0.0,0.0,0.0,0.0,0.0,0.0,0.0,0.0,0.0,0.0,0.0,0.0,0.0,0.0,0.0,0.0,0.0,0.0,0.0,0.0,0.0,0.0,0.0,0.0,0.0,0.0,0.0,0.0,0.0,0.0,0.0,0.0,0.0,0.0,0.0,0.0,0.0,0.0,0.0,0.0,0.0,0.0,0.0,0.0,0.0,0.0,0.0,0.0,0.0,0.0,0.0,0.0,0.0,0.0,0.0,0.0,0.0,0.0,0.0,0.0,0.0,0.0,0.0,0.0,0.0,0.0,0.0,0.0,0.0,0.0,0.0,0.0,0.0,0.0,0.0,0.0,0.0,0.0,0.0,0.0,0.0,0.0,0.0,0.0,0.0,0.0,0.0,0.0,0.0,0.0,0.0,0.0,0.0,0.0,0.0,0.0,0.0,0.0,0.0,0.0,0.0,0.0,0.0,0.0,0.0,0.0,0.0,0.0,0.0,0.0,0.0,0.0,0.0,0.0,0.0,0.0,0.0,0.0,0.0,0.0,0.0,0.0,0.0,0.0,0.0,0.0,0.0,0.0,0.0,0.0,0.0,0.0,0.0,0.0,0.0,0.0,0.0,0.0,0.0,0.0,0.0,0.0,0.0,0.0,0.0,0.0,0.0,0.0,0.0,0.0,0.0,0.0,0.0,0.0,0.0,0.0,0.0,0.0,0.0,0.0,0.0,0.0,0.0,0.0,0.0,0.0,0.0,0.0,0.0,0.0,0.0,0.0,0.0,0.0,0.0,0.0,0.0,0.0,0.0,0.0,0.0,0.0,0.0,0.0,0.0,0.0,0.0,0.0,0.0,0.0,0.0,0.0,0.0,0.0,0.0,0.0,0.0,0.0,0.0,0.0,0.0,0.0,0.0,0.0,0.0,0.0,0.0,0.0,0.0,0.0,0.0,0.0,0.0,0.0,0.0,0.0,0.0,0.0,0.0,0.0,0.0,0.0,0.0,0.0,0.0,0.0,0.0,0.0,0.0,0.0,0.0,0.0,0.0,0.0,0.0,0.0,0.0,0.0,0.0,0.0,0.0,0.0,0.0,0.0,0.0,0.0,0.0,0.0,0.0,0.0,0.0,0.0,0.0,0.0,0.0,0.0,0.0,0.0,0.0,0.0,0.0,0.0,0.0,0.0,0.0,0.0,0.0,0.0,0.0,0.0,0.0,0.0,0.0,0.0,0.0,0.0,0.0,0.0,0.0,0.0,0.0,0.0,0.0,0.0,0.0,0.0,0.0,0.0,0.0,0.0,0.0,0.0,0.0,0.0,0.0,0.0,0.0,0.0,0.0,0.0,0.0,0.0,0.0,0.0,0.0,0.0,0.0,0.0,0.0,0.0,0.0,0.0,0.0,0.0,0.0,0.0,0.0,0.0,0.0,0.0,0.0,0.0,0.0,0.0,0.0,0.0,0.0,0.0,0.0,0.0,0.0,0.0,0.0,0.0,0.0,0.0,0.0,0.0,0.0,0.0,0.0,0.0,0.0,0.0,0.0,0.0,0.0,0.0,0.0,0.0,0.0,0.0,0.0,0.0,0.0,0.0,0.0,0.0,0.0,0.0,0.0,0.0,0.0,0.0,0.0,0.0,0.0,0.0,0.0,0.0,0.0,0.0,0.0,0.0,0.0,0.0,0.0,0.0,0.0,0.0,0.0,0.0,0.0,0.0,0.0,0.0,0.0,0.0,0.0,0.0,0.0,0.0,0.0,0.0,0.0,0.0,0.0,0.0,0.0,0.0,0.0,0.0,0.0,0.0,0.0,0.0,0.0,0.0,0.0,0.0,0.0,0.0,0.0,0.0,0.0,0.0,0.0,0.0,0.0,0.0,0.0,0.0,0.0,0.0,0.0,0.0,0.0,0.0,0.0,0.0,0.0,0.0,0.0,0.0,0.0,0.0,0.0,0.0,0.0,0.0,0.0,0.0,0.0,0.0,0.0,0.0,0.0,0.0,0.0,0.0,0.0,0.0,0.0,0.0,0.0,0.0,0.0,0.0,0.0,0.0,0.0,0.0,0.0,0.0,0.0,0.0,0.0,0.0,0.0,0.0,0.0,0.0,0.0,0.0,0.0,0.0,0.0,0.0,0.0,0.0,0.0,0.0,0.0,0.0,0.0,0.0,0.0,0.0,0.0,0.0,0.0,0.0,0.0,0.0,0.0,0.0,0.0,0.0,0.0,0.0,0.0,0.0,0.0,0.0,0.0,0.0,0.0,0.0,0.0,0.0,0.0,0.0,0.0,0.0,0.0,0.0,0.0,0.0,0.0,0.0,0.0,0.0,0.0,0.0,0.0,0.0,0.0,0.0,0.0,0.0,0.0,0.0,0.0,0.0,0.0,0.0,0.0,0.0,0.0,0.0,0.0,0.0,0.0,0.0,0.0,0.0,0.0,0.0,0.0,0.0,0.0,0.0,0.0,0.0,0.0,0.0,0.0,0.0,0.0,0.0,0.0,0.0,0.0,0.0,0.0,0.0,0.0,0.0,0.0,0.0,0.0,0.0,0.0,0.0,0.0,0.0,0.0,0.0,0.0,0.0,0.0,0.0,0.0,0.0,0.0,0.0,0.0,0.0,0.0,0.0,0.0,0.0,0.0,0.0,0.0,0.0,0.0,0.0,0.0,0.0,0.0,0.0,0.0,0.0,0.0,0.0,0.0,0.0,0.0,0.0,0.0,0.0,0.0,0.0,-1.8029,-1.4914,0.0,0.0,0.0,0.0,0.0,0.0,0.0,0.0,0.0,0.0,0.0,0.0,0.0,0.0,0.0,0.0,0.0,0.0,0.0,0.0,0.0,0.0,0.0,0.4472,0.3033,0.223,0.3715,0.0,0.0,0.0,0.0,0.0,0.0,0.0,0.0,0.0,0.0,0.0,0.0,0.6722,0.9997,0.8293,0.7026,0.6161,0.0,0.0,0.0,0.0,0.0,0.0,0.0,0.0,0.0,0.0,0.0,0.0,0.0,0.0,0.0,0.0,0.0,0.0,0.0,0.0,0.0,0.0,0.0,0.0,0.0,0.0,0.0,0.0,0.0,0.0,0.0,0.0,0.0,0.0,0.0,0.0,0.0,0.0,0.0,0.0,0.0,0.0,0.0,0.0,0.0,0.0,0.0,0.0,0.0,0.0,0.0,0.0,0.0,0.0,0.0,0.0,0.0,0.0,0.0,0.0,0.0,0.0,0.0,0.0,0.0,0.0,0.0,0.0,0.0,0.0,-2.0771,-1.8731,0.0,0.0,0.0,0.0,0.0,0.0,0.0,0.0,0.0,0.0,0.0,0.0,0.0,0.0,0.0,0.0,0.0,0.0,0.0,0.0,0.0,0.9126,0.7952,0.6836,0.561,0.4178,0.3549,0.2245,-0.0034,-0.031,0.0,0.0,0.0,0.0,0.0,-0.5169,-0.785,0.0,0.0,0.0,0.5338,0.4775,0.0,0.0,0.0,0.0,0.0,0.0,0.0,0.0,0.0,0.0,0.0,0.0,0.0,0.0,0.0,0.0,0.0,0.0,0.0,0.0,0.0,0.0,0.0,0.0,0.0,0.0,0.0,0.0,0.0,0.0,0.0,0.0,0.0,0.0,0.0,0.0,0.0,0.0,0.0,0.0,0.0,0.0,0.0,0.0,0.0,0.0,0.0,0.0,0.0,0.0,0.0,0.0,0.0,0.0,0.0,0.0,0.0,0.0,0.0,0.0,0.0,0.0,0.0,0.0,0.0,0.0,-2.2952,-2.3739,-2.4339,-2.4441,-2.5689,-2.7554,-2.3831,-2.354,-2.5299,-2.0508,0.0,0.0,0.0,0.0,0.0,0.0,0.0,0.0,0.0,0.0,0.0,0.0,0.0,0.0,0.0,0.0,0.0,0.0,0.0,0.8482,0.9085,0.5421,0.2763,0.2369,-0.0272,-0.095,0.1336,-0.0651,0.0,0.0,0.0,0.0,-0.2967,-0.3874,-0.4704,-0.5558,0.0,0.0,0.203,0.1583,0.5212,1.2221,0.0,0.0,0.0,0.0,0.0,0.0,0.0,0.0,0.0,0.0,0.0,0.0,0.0,0.0,0.0,0.0,0.0,0.0,0.0,0.0,0.0,0.0,0.0,0.0,0.0,0.0,0.0,0.0,0.0,0.0,0.0,0.0,0.0,0.0,0.0,0.0,0.0,0.0,0.0,0.0,0.0,0.0,0.0,0.0,-1.7169,-1.7679,0.0,0.0,0.0,0.0,0.0,0.0,0.0,0.0,0.0,0.0,0.0,0.0,0.0,-2.0522,-2.1603,-2.3789,-2.4985,-2.5227,-2.7514,-2.8823,-2.9271,-2.9271,-2.9686,-3.0359,-2.9782,0.0,-2.71,-2.5663,0.0,0.0,0.0,0.0,0.0,0.0,0.0,0.0,0.0,0.0,0.0,0.0,0.0,0.0,0.0,0.0,0.0,0.0,0.0,0.0,0.0,0.2211,-0.0125,-0.0962,-0.2202,-0.2679,-0.2003,-0.1648,0.0,0.0,0.0,0.0315,-0.1533,-0.5882,-0.9196,-1.1357,-1.0638,-0.8121,-0.3899,-0.3772,0.0373,0.7824,0.9115,1.2575,1.7308,1.4572,0.0,0.0,0.0,0.0,0.0,0.0,0.0,0.0,0.0,0.0,0.0,0.0,0.0,0.0,0.0,0.0,0.0,0.0,0.0,0.0,0.0,0.0,0.0,0.0,0.0,0.0,0.0,0.0,0.0,0.0,0.0,0.0,0.0,0.0,0.0,0.0,0.0,0.0,0.0,-1.616,-1.8008,-1.9275,-1.685,-1.4588,0.0,0.0,0.0,0.0,0.0,0.0,0.0,0.0,0.0,-2.3686,-2.3785,-2.488,-2.7164,-2.839,-2.9042,-2.9128,-3.049,-3.108,-3.1028,-3.1028,-3.1215,-3.1544,-3.1769,-3.1333,-3.0322,-2.7924,-2.5415,-2.2908,0.0,0.0,0.0,0.0,-2.0585,-2.0602,0.0,0.0,0.0,0.0,0.0,0.0,0.0,0.0,0.0,0.0,0.0,0.0,0.1382,-0.1194,-0.3205,-0.3985,-0.4972,-0.588,-0.6665,-0.4541,-0.41,0.0,-0.3154,-0.1615,-0.1818,-0.8481,-1.3674,-1.7206,-1.8487,-1.6407,-1.1189,-1.0773,-0.6381,0.1074,0.1172,0.758,1.8251,1.6913,1.4811,0.0,0.0,0.0,0.0,0.0,0.0,0.0,0.0,0.0,0.0,0.0,0.0,0.0,0.0,0.0,0.0,0.0,0.0,0.0,0.0,0.0,0.0,0.0,0.0,0.0,0.0,0.0,0.0,0.0,0.0,0.0,0.0,0.0,0.0,0.0,0.0,0.0,0.0,-1.7837,-1.9488,-2.0959,-1.9457,-1.7485,0.0,0.0,0.0,0.0,0.0,0.0,-2.1908,-2.2186,-2.3901,-2.7271,-2.7337,-2.8519,-3.1083,-3.1278,-3.1376,-3.1393,-3.1694,-3.175,-3.1528,-3.1528,-3.1714,-3.1967,-3.2266,-3.2453,-3.2403,-2.9981,-2.8263,-2.6988,-2.5281,-2.3846,-2.2971,-2.4671,-2.4892,-2.4819,0.0,0.0,0.0,0.0,0.0,0.0,0.0,0.0,0.0,0.0,0.0,0.0045,-0.0159,-0.4274,-0.6658,-0.5863,-0.9909,-1.2238,-1.1698,-1.0372,-0.8752,-0.6756,-0.4069,-0.3336,-0.4852,-1.0705,-1.5032,-1.7643,-1.951,-2.0211,-1.9887,-1.9609,-1.5232,-0.7622,-0.7175,0.1664,1.6039,1.2743,1.5037,2.0183,0.0,0.0,0.0,0.0,0.0,0.0,0.0,0.0,0.0,0.0,0.0,0.0,0.0,0.0,0.0,0.0,0.0,0.0,0.0,0.0,0.0,0.0,0.0,0.0,0.0,0.0,0.0,0.0,0.0,0.0,0.0,0.0,0.0,0.0,0.0,0.0,0.0,0.0,0.0,-2.3408,-2.3198,0.0,0.0,0.0,0.0,-2.0185,-2.1757,-2.3571,-2.5543,-2.6531,-2.8068,-3.0228,-3.0294,-3.0377,-3.0551,-3.0551,-3.0551,-3.0551,-3.0593,-3.0781,-3.1123,-3.1123,-3.1359,-3.1825,-3.1825,-3.1914,-3.2092,-3.2791,-3.1653,-2.9449,-2.95,-2.8033,-2.6103,-2.79,-2.8536,-2.8761,0.0,0.0,0.0,0.999,0.8656,0.7259,0.6287,0.4459,0.2699,0.1406,-0.17,-0.4111,-0.4962,-0.8963,-1.2091,-1.3307,-1.4914,-1.5633,-1.4944,-1.3092,-1.1755,-1.1184,-0.8832,-0.9619,-1.4069,-1.7286,-2.0037,-2.2335,-2.2262,-2.2298,-2.243,-2.1632,-1.9845,-1.7286,-1.6269,-1.0123,0.0048,0.9265,1.3783,1.4888,1.6621,1.4917,0.0,0.0,0.0,0.0,0.0,0.0,0.0,0.0,0.0,0.0,0.0,0.0,0.0,0.0,0.0,0.0,0.0,0.0,0.0,0.0,0.0,0.0,0.0,0.0,0.0,0.0,0.0,0.0,0.0,0.0,0.0,0.0,0.0,0.0,0.0,0.0,0.0,-2.4428,-2.501,0.0,-2.2664,-2.4011,-2.4746,-2.4166,-2.6471,-2.818,-2.8841,-2.9218,-2.9731,-3.0426,-3.0443,-3.051,-3.0699,-3.0683,-3.0683,-3.0683,-3.0781,-3.074,-3.0634,-3.0699,-3.0845,-3.1123,-3.1376,-3.1677,-3.2039,-3.2351,-3.2172,-3.1673,-3.1733,-3.1405,-3.0948,-3.1583,-3.1801,-3.1847,0.0,0.0,0.0,0.8576,0.652,0.4526,0.3577,0.1623,-0.0287,-0.1787,-0.5218,-0.812,-0.9646,-1.2842,-1.5546,-1.7265,-1.8013,-1.8109,-1.745,-1.5516,-1.4313,-1.4049,0.0,-1.433,0.0,-2.1154,-2.2836,-2.4744,-2.4056,-2.3653,-2.3517,-2.2627,-2.2298,-2.229,-2.1141,-1.794,-1.2537,0.0672,0.8624,1.291,1.9256,1.9685,1.6247,0.0,0.0,0.0,0.0,0.0,0.0,0.0,0.0,0.0,0.0,0.0,0.0,0.0,0.0,0.0,0.0,0.0,0.0,0.0,0.0,0.0,0.0,0.0,0.0,0.0,0.0,0.0,0.0,0.0,0.0,0.0,0.0,0.0,0.0,0.0,-2.4629,-2.4606,-2.6333,-2.6716,-2.4663,-2.675,-2.8048,-2.7682,-2.9198,-3.0199,-3.0241,-3.0199,-3.0172,-3.013,-3.0274,-3.0443,-3.0617,-3.0617,-3.0617,-3.0658,-3.0699,-3.0634,-3.0443,-3.0443,-3.0526,-3.0651,-3.0902,-3.1201,-3.1473,-3.1473,-3.1825,-3.2332,-3.2484,-3.2827,-3.325,-3.325,-3.3316,-3.3393,0.0,0.0,0.5807,0.5807,0.3638,0.1109,-0.1247,-0.2133,-0.3952,-0.7898,-0.9742,-1.1561,-1.3701,-1.5556,-1.6791,-1.7144,-1.9044,-1.9927,-1.9204,-1.7834,-1.6393,0.0,0.0,0.0,-2.081,-2.1788,-2.3022,-2.4542,-2.4566,-2.4303,-2.3688,-2.3171,-2.2759,-2.2445,-2.1441,-2.0893,-2.0126,-1.2719,-0.0334,1.4688,1.9602,2.1945,2.1955,0.0,0.0,0.0,0.0,0.0,0.0,0.0,0.0,0.0,0.0,0.0,0.0,0.0,0.0,0.0,0.0,0.0,0.0,0.0,0.0,0.0,0.0,0.0,0.0,0.0,0.0,0.0,0.0,0.0,0.0,0.0,0.0,0.0,-2.2886,-2.365,-2.4201,-2.4173,-2.7336,-2.8817,-2.7059,-2.8762,-3.0113,-3.0426,-2.9617,-2.9303,-2.975,-2.9677,-2.9617,-2.9589,-3.0,-3.0189,-3.0189,-3.0189,-3.0248,-3.0375,-3.0274,-3.0316,-3.0485,-3.0443,-3.0443,-3.0526,-3.0526,-3.0526,-3.0526,-3.0526,-3.0845,-3.1435,-3.1915,-3.2366,-3.2795,-3.2795,-3.3068,-3.3393,0.9813,0.7689,0.5884,0.5939,0.2388,-0.0744,-0.1555,-0.3826,-0.6191,-0.8278,-1.0086,-1.2103,-1.4501,-1.6078,-1.7567,-1.91,-2.0001,-2.054,-2.0677,-1.8357,-1.7023,0.0,0.0,0.0,-2.3158,-2.3748,-2.4241,-2.4684,-2.4199,-2.3996,-2.3996,-2.3743,-2.3735,-2.3778,-2.2358,-2.1985,-2.1765,-1.2728,-0.6497,-0.1598,1.1261,1.9385,2.3468,0.0,0.0,0.0,0.0,0.0,0.0,0.0,0.0,0.0,0.0,0.0,0.0,0.0,0.0,0.0,0.0,0.0,0.0,0.0,0.0,0.0,0.0,0.0,0.0,0.0,0.0,0.0,0.0,0.0,0.0,0.0,0.0,-2.383,-2.5171,-2.6325,-2.7322,-2.7961,-2.8785,-2.909,-2.8602,-2.9042,-2.9393,-2.9483,-2.9257,-2.9166,-2.9303,-2.9572,-2.9705,-2.9589,-3.0,-3.0146,-3.0076,-3.0033,-2.9989,-3.0033,-3.0162,-3.0231,-3.0274,-3.0401,-3.0468,-3.0526,-3.0526,-3.0675,-3.0925,-3.0634,-3.0821,-3.1393,-3.1842,-3.235,-3.2844,-3.3129,-3.3304,-3.3393,0.9759,0.6791,0.4285,0.4319,0.0176,-0.3192,-0.3271,-0.5343,-0.738,-0.88,-1.0791,-1.3011,-1.5457,-1.7006,-1.8523,-2.0035,-2.0773,-2.1043,-2.0754,-1.8788,0.0,0.0,0.0,0.0,-2.4742,-2.4905,-2.4842,-2.4642,-2.4281,-2.3955,-2.3627,-2.3585,-2.3549,-2.361,-2.2232,-2.1966,-2.2026,-1.6033,-1.1771,-0.8153,0.0999,1.0897,2.0486,2.2938,2.3173,2.2129,2.0921,2.0204,1.985,1.9983,0.0,0.0,0.0,0.0,0.0,0.0,0.0,0.0,0.0,0.0,0.0,0.0,0.0,0.0,0.0,0.0,0.0,0.0,0.0,0.0,0.0,0.0,0.0,0.0,-2.3861,-2.6043,-2.7237,-2.7981,-2.8555,-2.8888,-2.9042,-2.9073,-2.8934,-2.8826,-2.8952,-2.9422,-2.8857,-2.8778,-2.9422,-2.94,-2.9393,-2.9544,-2.9913,-2.9973,-2.9649,-2.9621,-2.9531,-2.9335,-2.9649,-2.987,-2.9941,-3.03,-3.0485,-3.0526,-3.0526,-3.0634,-3.0821,-3.0593,-3.0716,-3.1078,0.0,0.0,0.0,0.0,-3.3214,-3.3352,0.9721,0.5576,0.2037,0.1965,-0.2302,-0.5697,-0.5638,-0.6623,-0.792,-0.9452,-1.159,-1.3965,-1.6504,-1.8126,-1.9377,-2.0406,-2.1313,-2.138,-2.0145,-1.9381,0.0,-2.3762,0.0,0.0,-2.5276,-2.5136,-2.4703,-2.4198,-2.4277,-2.3767,-2.2934,-2.2924,-2.2836,-2.2552,-2.1706,-2.1282,-2.1354,-2.0742,-1.6323,-0.9641,-0.9026,0.0122,1.413,2.0649,2.331,2.3331,2.2128,2.1712,2.1685,2.1149,0.0,0.0,0.0,0.0,0.0,0.0,0.0,0.0,0.0,0.0,0.0,0.0,0.0,0.0,0.0,0.0,0.0,0.0,0.0,0.0,0.0,0.0,0.0,0.0,-2.635,-2.8523,-2.8826,-2.8653,-2.8367,-2.8088,-2.859,-2.8795,-2.8415,-2.8332,-2.874,-2.9767,-2.8545,-2.8414,-2.9859,0.0,0.0,0.0,0.0,-2.9797,-2.9138,-2.9326,-2.914,-2.8695,-2.9187,-2.9603,-2.9826,-3.0315,-3.0632,-3.0758,-3.0758,-3.0758,-3.0758,-3.0758,-3.0817,-3.0925,-3.084,-3.1044,-3.1565,-3.2422,-3.2923,-3.325,0.9821,0.5811,0.2312,0.1764,-0.2845,-0.646,-0.6404,-0.7176,-0.8434,-1.0292,-1.1974,-1.4237,-1.7483,-1.8512,-1.9571,-2.0939,-2.1463,-2.1457,-2.0712,0.0,0.0,0.0,0.0,0.0,-2.3203,-2.3075,-2.2889,-2.2564,-2.2818,-2.2696,-2.2291,-2.2605,-2.2531,-2.2189,-2.1876,-2.1184,-2.0508,-2.1054,-2.0041,-1.7587,-1.1119,-0.2905,0.5616,0.6887,0.7437,0.7434,0.7036,1.1348,1.7236,1.7585,1.6374,1.4631,1.4408,0.0,0.0,0.0,0.0,0.0,0.0,0.0,0.0,0.0,0.0,0.0,0.0,0.0,0.0,0.0,0.0,0.0,0.0,0.0,0.0,-2.4823,-2.6547,-2.8099,-2.8728,-2.791,-2.7565,-2.8334,-2.8091,-2.786,-2.776,-2.8075,-2.8449,-2.8858,-2.8815,-2.9044,-2.966,-2.9748,-2.9618,-2.92,-3.0042,-3.0107,-2.9335,-2.9794,-2.9971,-2.9869,-3.0188,0.0,-3.115,-3.1463,-3.1847,-3.2266,-3.2266,-3.2266,-3.2266,-3.2266,-3.2266,-3.2237,-3.154,-3.1511,-3.202,-3.3072,-3.3186,-3.2859,0.8386,0.5163,0.1948,-0.0148,-0.393,-0.6725,-0.6786,-0.7507,-0.8745,-1.0691,-1.2236,-1.4208,-1.7008,-1.75,-1.8159,-1.9321,-1.9894,-2.049,0.0,0.0,0.0,0.0,0.0,-2.2295,-2.213,-2.2109,-2.2094,-2.1926,-2.2308,-2.2308,-2.1926,-2.2168,-2.2109,-2.1767,-2.1389,-2.0924,-2.0524,-2.0303,-2.0294,-2.0023,-1.5627,-1.1893,-0.7886,0.0498,0.3613,0.3465,0.344,0.6263,0.998,0.9895,0.9036,0.793,0.7468,0.2833,-0.2348,0.0,0.0,0.0,0.0,0.0,0.0,0.0,0.0,0.0,0.0,0.0,0.0,0.0,0.0,-2.125,0.0,0.0,-2.5724,-2.6515,-2.7288,-2.8004,-2.8705,-2.8194,-2.8095,-2.8961,-2.8167,-2.7829,-2.8398,-2.8375,-2.8604,-2.9317,-2.9167,-2.9411,-3.0177,-2.9984,-2.9848,-2.9741,-3.0253,-3.0151,-2.9422,-2.972,-2.9743,-2.9436,-2.9902,-3.0253,-3.0561,-3.1029,-3.1566,-3.2039,-3.2131,-3.2331,-3.259,-3.268,-3.268,-3.2658,-3.2236,-3.2303,-3.2771,-3.3552,-3.3775,-3.3775,0.6313,0.3632,0.0767,-0.2181,-0.5028,-0.6955,-0.7114,-0.779,-0.8942,-1.0745,-1.2243,-1.385,-1.5807,-1.6003,-1.6416,-1.7494,-1.8241,0.0,0.0,0.0,0.0,0.0,0.0,-2.1196,-2.1307,-2.1569,-2.1617,-2.1541,-2.1947,-2.1938,-2.1532,-2.1532,-2.1391,-2.1151,-2.0636,-2.0429,-2.0325,-1.9421,-1.945,-2.002,-1.946,-1.9923,-1.9344,-0.5745,-0.0714,-0.0938,-0.087,0.0241,0.1628,0.0974,0.0509,0.0112,-0.0389,-0.2686,-0.5125,-0.4439,-0.6154,0.0,0.0,0.0,0.0,0.0,0.0,0.0,0.0,0.0,-1.7422,-2.1158,-2.2441,-2.3346,-2.4679,-2.5605,-2.6548,-2.791,-2.7933,-2.8094,-2.8811,-2.8525,-2.8611,-2.9633,-2.8719,-2.833,-2.9228,-2.8907,-2.9104,-3.0203,-2.9734,-2.9859,-3.1005,-3.0323,-3.0066,-3.0326,-3.0448,-3.0129,-2.9451,-2.9694,-2.9563,-2.9101,-2.9563,-2.9864,-3.0027,-3.06,-3.1154,-3.1656,-3.1902,-3.2351,-3.2928,-3.3065,-3.311,-3.311,-3.311,-3.3362,-3.3787,-3.4106,-3.4363,-3.4672,0.409,0.0711,-0.1888,-0.286,-0.5613,-0.7654,-0.7635,-0.8199,-0.9099,-1.0421,-1.1698,-1.296,-1.4136,-1.4689,-1.5518,-1.6971,-1.8001,0.0,0.0,0.0,0.0,0.0,0.0,-2.0738,-2.0389,-2.0957,-2.109,-2.0688,-2.0978,-2.0791,-2.0398,-2.0398,-2.0189,-1.9807,-1.9916,-1.9453,-1.8638,-1.8904,-1.9036,-1.9125,-1.9292,-1.9854,-2.0411,-1.8546,-1.8109,-1.8471,-1.8377,-1.3372,-0.6885,-0.7038,-0.7307,-0.7506,-0.7154,-1.326,-1.9955,-1.6981,0.0,-1.7006,-1.3066,-1.3151,0.0,-1.8142,-1.8721,-2.0062,0.0,0.0,-2.4233,-2.7244,-2.8221,-2.8455,-2.8067,-2.8828,-2.9142,-2.8227,-2.7961,-2.8237,-2.929,-2.7984,-2.7755,-2.9983,-2.9729,-2.9361,-2.9317,-2.964,-3.0188,-3.0866,-3.0631,-3.0865,-3.199,-3.1176,-3.0514,-3.0137,-3.0527,-3.0382,-2.9566,-3.0192,-3.0469,-3.0364,-3.0602,-3.0924,-3.1453,-3.1678,-3.2035,-3.2613,-3.3291,-3.3892,-3.4444,-3.4603,-3.4651,-3.4651,-3.4651,-3.4944,-3.5338,-3.5143,-3.4634,-3.4289,0.4085,-0.1046,-0.5205,-0.5509,-0.6629,-0.7598,-0.784,-0.8117,-0.8715,-0.9932,-1.0612,-1.1354,-1.2315,-1.2509,-1.2961,-1.4013,-1.577,0.0,-1.7659,0.0,0.0,0.0,0.0,-1.9715,-1.9478,-2.0034,-2.0163,-1.985,-2.0159,-2.0259,-2.0005,-2.0005,-1.9916,-1.9746,-1.9761,-1.948,-1.8984,-1.8172,-1.8078,-1.8318,-1.7513,-1.7989,-1.9265,-1.9265,-1.9877,-2.0681,-2.0548,-1.8147,0.0,0.0,-1.5755,-1.6013,-1.6844,-1.9325,-2.1731,-2.0419,-2.0049,0.0,-1.9425,-1.9263,0.0,0.0,-2.167,-2.2429,-2.5369,-2.4773,-2.44,-2.7235,-2.8298,-2.8441,-2.7881,-2.8532,-2.8911,0.0,-2.7782,-2.7897,-2.8567,-2.8061,-2.8102,-2.9386,-3.0079,-3.0366,-3.0144,-2.9988,-3.0324,-3.1214,-3.0831,-3.0804,-3.1247,-3.0908,-3.0571,-3.0412,-3.0556,-3.0511,-3.019,-3.0437,-3.0568,-3.0568,-3.0642,-3.0807,-3.1073,-3.1131,-3.1664,-3.2633,-3.3271,-3.3986,-3.4691,-3.4739,-3.4851,-3.4899,-3.4899,-3.5024,-3.5237,-3.5651,-3.574,-3.5832,0.4287,-0.1987,-0.7332,-0.7296,-0.7151,-0.7187,-0.7686,-0.7888,-0.8317,-0.9307,-0.9563,-0.9883,-1.0481,-1.0169,-1.0342,-1.1393,-1.3543,-1.5124,0.0,-1.8076,0.0,0.0,0.0,0.0,-1.8831,-1.895,-1.8984,-1.8854,-1.9042,-1.9089,-1.9005,-1.9005,-1.9097,-1.9173,-1.8885,-1.8836,-1.8819,-1.7311,-1.7025,-1.7423,-1.6221,-1.6535,-1.79,-1.79,-1.8355,-1.9068,-1.9305,-1.935,0.0,0.0,-1.9599,-2.0069,-2.1016,-2.1094,-2.0767,-2.0628,-2.002,-1.9806,-2.1614,0.0,0.0,-2.2902,-2.3712,-2.4389,-2.4645,-2.4253,-2.4379,-2.64,-2.7404,-2.7736,-2.7162,-2.7908,-2.8392,-2.7789,-2.7523,-2.7577,-2.7934,-2.7947,-2.8091,-2.8556,-2.9481,-3.0071,-3.0081,-3.0262,-3.0689,-3.1438,-3.0794,-3.0384,-3.0618,-3.0262,-3.0054,-3.0129,-3.0251,-3.0312,-3.0312,-3.0507,-3.0568,-3.0568,-3.0568,-3.0568,-3.0568,-3.0568,-3.1175,-3.2266,-3.2848,-3.3614,-3.4366,-3.4594,-3.4739,-3.4851,-3.4899,-3.4977,-3.5195,-3.5933,-3.644,-3.6764,0.4173,-0.2068,-0.7365,-0.7314,-0.676,-0.6521,-0.7035,-0.7579,-0.8058,-0.8477,-0.8715,-0.8787,-0.8682,-0.7907,-0.818,-1.0077,-1.1975,-1.3676,-1.5064,-1.7093,0.0,0.0,0.0,-1.801,-1.8434,-1.7891,-1.7601,-1.7716,-1.731,-1.6992,-1.6762,-1.6762,-1.7016,-1.7425,-1.7,-1.6902,-1.7049,-1.6147,-1.6049,-1.6437,-1.5891,-1.6139,-1.678,-1.678,-1.6307,-1.5921,-1.737,0.0,0.0,0.0,-1.6235,-1.7137,-1.6101,-1.769,0.0,-1.8469,-1.7267,-1.6574,-1.7611,-1.8916,-2.0499,-2.2755,-2.4963,-2.6544,-2.6382,-2.6189,-2.6077,-2.5955,-2.6905,-2.7577,-2.685,-2.7723,-2.8327,-2.7469,-2.7335,-2.7456,-2.792,-2.7443,-2.7201,-2.767,-2.7842,-2.808,0.0,-3.0481,-3.1667,-3.1511,-3.0349,-2.9924,-3.0693,-2.932,-2.8634,-2.8853,-2.9373,-2.9623,-2.9623,-3.0251,-3.0568,-3.0568,-3.0568,-3.0568,-3.0568,-3.0568,-3.0911,-3.1595,-3.221,-3.2848,-3.3495,-3.4366,-3.4691,-3.4691,-3.4851,-3.5195,-3.5616,-3.6062,-3.6215,-3.6316,0.4813,0.0168,-0.4218,-0.6567,-0.6594,-0.6307,-0.636,-0.6897,-0.7301,-0.7256,-0.7406,0.0,0.0,0.0,0.0,0.0,-1.0388,-1.1827,-1.3052,-1.4918,0.0,0.0,0.0,-1.7011,-1.7251,-1.6854,-1.6555,-1.6525,-1.6432,-1.6468,-1.6476,-1.6064,-1.5942,-1.6051,-1.5375,-1.5087,-1.4966,-1.4257,-1.4054,-1.4323,-1.4015,-1.4538,-1.5365,-1.5365,-1.5184,-1.4832,0.0,0.0,0.0,0.0,0.0,-1.4308,-1.5391,-1.5777,-1.5924,-1.5879,-1.6794,-1.8202,-2.003,-2.138,-2.2762,-2.4816,-2.5887,-2.6233,-2.5804,-2.5664,-2.5535,-2.5206,-2.5591,-2.5862,-2.5425,-2.6343,-2.6935,-2.6155,-2.6755,-2.7201,-2.704,-2.6918,-2.6863,-2.6918,-2.7702,0.0,0.0,0.0,0.0,-3.0109,-2.9375,-2.8972,-2.9228,-2.8794,-2.8492,-2.857,-2.8762,-2.8889,-2.8889,-2.9608,-2.9931,-2.9931,-3.0387,-3.0568,-3.0568,-3.0568,-3.0911,-3.1537,-3.1751,-3.2431,-3.3443,-3.3716,-3.4202,-3.4691,-3.4756,-3.493,-3.5195,-3.5661,-3.5977,-3.6298,0.698,0.2265,-0.2096,-0.395,-0.5294,0.0,0.0,0.0,0.0,0.0,0.0,0.0,0.0,0.0,0.0,0.0,0.0,-1.0045,-1.102,0.0,0.0,0.0,0.0,-1.4745,-1.4992,-1.4624,-1.4494,-1.4752,-1.4739,-1.5031,-1.5382,-1.4717,-1.4522,-1.4649,-1.3661,-1.3313,-1.3218,-1.2758,-1.2468,-1.2375,-1.2197,-1.2393,-1.2816,-1.2687,-1.2549,0.0,0.0,0.0,0.0,0.0,-1.1262,-1.1921,-1.3274,-1.4062,-1.4619,-1.5171,-1.6983,-1.9261,-2.1534,-2.2603,-2.364,-2.5673,-2.6025,-2.5804,-2.5382,-2.5182,-2.5052,-2.4861,-2.4747,-2.4615,-2.4426,-2.5278,-2.5793,-2.5428,-2.6523,-2.7242,-2.6615,-2.6754,-2.6817,-2.6546,-2.7224,-2.7562,0.0,0.0,0.0,-2.9062,-2.8527,-2.8117,-2.8117,-2.792,-2.7802,-2.7802,-2.8051,-2.8117,-2.8051,-2.8826,-2.9359,-2.9623,-3.0251,-3.0568,-3.0568,-3.0568,-3.0807,-3.1204,-3.1422,-3.2074,-3.3039,-3.3287,-3.3885,-3.4546,-3.4594,-3.4691,-3.4883,-3.5362,-3.5803,-3.6316,1.0361,0.4214,-0.0861,0.0,0.0,0.0,0.0,0.0,0.0,0.0,0.0,0.0,0.0,0.0,0.0,0.0,0.0,0.0,-0.9117,0.0,0.0,0.0,0.0,0.0,-1.1825,-1.1316,-1.1573,-1.2571,-1.2389,-1.2645,-1.3413,-1.2759,-1.2661,-1.3046,-1.186,-1.1453,-1.1751,-1.1532,-1.1067,-1.0545,-1.0464,-1.0058,-0.9371,-0.9048,0.0,0.0,0.0,0.0,0.0,0.0,-0.8859,-1.028,-1.0228,-1.273,-1.5776,-1.6297,-1.7722,-1.9712,-2.1922,-2.2574,-2.3161,-2.531,-2.5535,-2.5241,-2.5241,-2.4981,-2.4694,-2.4612,-2.4157,-2.3713,0.0,0.0,-2.4872,-2.5029,-2.6408,-2.7278,-2.6802,-2.7044,-2.7042,0.0,0.0,0.0,0.0,0.0,0.0,-2.8298,0.0,-2.7484,-2.7484,-2.685,-2.6533,-2.6533,-2.7095,-2.7351,-2.7162,-2.8051,-2.8826,-2.9623,-3.0251,-3.0568,-3.0568,-3.0568,-3.0568,-3.0628,-3.1204,-3.1823,-3.2453,-3.3093,-3.3732,-3.43,-3.4448,-3.4546,-3.4739,-3.5253,-3.5759,-3.6256,0.0,0.0,0.0,0.0,0.0,0.0,0.0,0.0,0.0,0.0,0.0,0.0,0.0,0.0,0.0,0.0,0.0,0.0,0.0,0.0,0.0,0.0,0.0,0.0,0.0,0.0,0.0,0.0,0.0,-1.0732,-1.1144,-1.0119,-0.9664,-0.978,-0.8781,-0.8338,-0.826,-0.8344,-0.8211,-0.8058,-0.8628,-0.8679,-0.8476,0.0,0.0,0.0,0.0,0.0,0.0,-0.7182,-0.9921,-1.2941,-1.4437,-1.5757,-1.6988,-1.7952,-1.9375,-2.0952,-2.2538,-2.3759,-2.4668,-2.5133,-2.4945,-2.4599,-2.4166,-2.3886,-2.3363,-2.2181,-2.1509,-2.0831,0.0,0.0,0.0,-2.2639,-2.4627,0.0,-2.6546,-2.6647,0.0,-2.6546,0.0,-2.6533,-2.6533,-2.6533,0.0,0.0,-2.685,-2.6782,-2.6782,-2.6589,-2.6533,-2.6533,-2.6521,-2.6533,-2.6465,-2.767,-2.8634,-2.9373,-3.019,-3.0568,-3.0568,-3.0568,-3.0568,-3.0628,-3.0747,-3.1437,-3.2382,-3.2586,-3.3282,-3.43,-3.4349,-3.4448,-3.4626,-3.5357,-3.5847,-3.6207,0.0,0.0,0.0,0.0,0.0,0.0,0.0,0.0,0.0,0.0,0.0,0.0,0.0,0.0,0.0,0.0,0.0,0.0,0.0,0.0,0.0,0.0,0.0,0.0,0.0,0.0,0.0,0.0,0.0,0.0,-0.902,-0.8076,-0.7693,-0.7733,-0.6836,-0.6523,-0.6552,-0.6552,-0.6489,0.0,0.0,-0.6667,0.0,0.0,0.0,0.0,0.0,0.0,0.0,-0.9468,-1.1824,-1.4188,-1.5851,-1.6747,-1.7473,-1.9062,-2.0324,-2.1607,-2.3294,-2.4155,-2.4599,-2.4731,-2.4371,-2.3704,-2.2753,-2.2562,-2.2044,-2.0169,-1.9239,-1.848,-1.7516,0.0,0.0,0.0,0.0,0.0,-2.605,-2.6514,-2.6728,0.0,-2.6533,0.0,-2.6533,-2.6533,-2.6533,0.0,-2.6533,-2.6533,-2.6533,-2.6533,-2.6533,-2.6533,-2.627,-2.6213,-2.6213,-2.7149,-2.8051,-2.8967,-2.9794,-3.0312,-3.0568,-3.0568,-3.0568,-3.0568,-3.0568,-3.1248,-3.2398,-3.2398,-3.314,-3.4201,-3.4201,-3.43,-3.4497,-3.4911,-3.5448,-3.5994,0.0,0.0,0.0,0.0,0.0,0.0,0.0,0.0,0.0,-0.5618,-0.5556,0.0,0.0,0.0,0.0,0.0,0.0,0.0,0.0,0.0,0.0,0.0,0.0,0.0,0.0,0.0,0.0,0.0,0.0,0.0,0.0,0.0,-0.6075,-0.6231,-0.5455,-0.528,-0.5603,-0.5471,-0.5287,-0.5053,-0.4956,-0.4488,0.0,0.0,0.0,0.0,0.0,0.0,0.0,0.0,-1.3886,-1.5167,-1.6393,-1.7312,-1.8319,-2.0159,-2.1208,-2.208,-2.3883,-2.3948,-2.3582,-2.4154,-2.3717,-2.2754,-2.1428,-2.1169,-2.0586,-1.8254,-1.7158,-1.6477,-1.5914,-1.7301,-1.879,-1.9481,0.0,-2.5661,-2.5535,-2.6491,-2.6992,-2.6584,-2.6533,-2.6533,-2.6533,-2.6533,-2.6533,-2.6533,-2.6533,-2.6533,-2.6533,-2.6533,-2.6465,-2.6383,-2.627,-2.6131,-2.6062,-2.6607,-2.7378,-2.8427,-2.9156,-2.9931,-3.0568,-3.0568,-3.0568,-3.0628,-3.0687,-3.1364,-3.2398,-3.2492,-3.314,-3.4101,-3.4101,-3.4151,-3.43,-3.4349,-3.4911,-3.5698,0.0,0.0,0.0,0.0,0.0,0.0,0.0,0.0,0.0,0.0,-0.622,-0.5941,0.0,0.0,0.0,0.0,0.0,0.0,0.0,0.0,0.0,0.0,0.0,0.0,0.0,0.0,0.0,0.0,0.0,0.0,0.0,0.0,-0.3918,-0.3946,-0.3736,-0.3675,-0.3674,-0.3503,-0.3171,-0.2905,-0.3198,-0.3147,0.0,0.0,0.0,0.0,0.0,0.0,0.0,0.0,-1.5035,-1.8627,-2.0242,-2.1155,-2.1924,-2.2743,-2.2739,-2.2669,-2.357,-2.3265,-2.2872,-2.3361,-2.2745,-2.1691,-2.0754,-1.9995,-1.8805,-1.6119,-1.5143,-1.4439,-1.3283,-1.4852,-1.6785,-1.8315,0.0,0.0,0.0,0.0,-2.6634,0.0,0.0,0.0,0.0,0.0,0.0,0.0,-2.6533,-2.6533,-2.6533,-2.6533,-2.6327,-2.6037,-2.598,-2.5758,-2.5453,-2.6239,-2.7031,-2.7815,-2.8889,-2.9685,-3.0387,-3.0507,-3.0568,-3.0642,-3.1146,-3.1766,-3.2437,-3.2895,-3.3475,-3.4101,-3.4101,-3.4101,-3.4151,-3.4497,-3.5005,-3.5593,0.0,0.0,0.0,0.0,0.0,0.0,0.0,-0.5631,-0.6441,-0.7149,-0.7498,-0.7263,-0.6154,-0.5806,-0.5423,0.0,0.0,0.0,0.0,0.0,0.0,0.0,0.0,0.0,0.0,0.0,0.0,0.0,0.0,0.0,-0.3162,-0.3054,-0.2815,-0.2589,-0.2644,-0.2554,-0.2347,-0.2184,-0.2023,-0.1864,-0.2123,-0.2228,0.0,0.0,0.0,0.0,0.0,0.0,0.0,0.0,-1.3677,-1.783,-1.9697,-2.076,-2.1375,-2.1993,-2.2004,-2.1852,-2.2446,-2.1886,-2.1344,-2.1886,-2.1354,-2.0301,-1.86,-1.8051,-1.7022,-1.3942,-1.316,-1.2795,-1.1822,0.0,0.0,0.0,0.0,0.0,0.0,0.0,0.0,0.0,0.0,0.0,0.0,0.0,0.0,-2.6533,-2.6533,-2.6533,-2.6533,-2.6396,-2.6188,-2.591,-2.5828,-2.5688,-2.5453,-2.6252,-2.7043,-2.7841,-2.8789,-2.9526,-3.0219,-3.0387,-3.0447,-3.0507,-3.119,-3.1823,-3.2437,-3.2986,-3.3543,-3.4101,-3.4101,-3.4101,-3.4151,-3.43,-3.4785,-3.5357,0.0,0.0,0.0,0.0,0.0,0.0,0.0,-0.6234,-0.7203,-0.8121,-0.8758,-0.8533,-0.683,-0.6141,-0.5444,0.0,0.0,0.0,0.0,0.0,0.0,0.0,0.0,0.0,0.0,0.0,0.0,-0.2396,-0.2286,0.0,0.0,0.0,0.0,0.0,-0.1864,-0.1777,-0.152,-0.1333,-0.1251,0.0,0.0,-0.152,0.0,0.0,0.0,0.0,0.0,0.0,0.0,0.0,-1.141,-1.4798,-1.7005,-1.877,-2.0051,-2.045,-2.0692,-2.1011,-2.1441,-2.0672,-1.9825,-2.042,-2.0119,-1.908,-1.6646,-1.6307,-1.5547,-1.2175,-1.1533,-1.1464,-1.0983,0.0,0.0,0.0,0.0,0.0,0.0,0.0,0.0,0.0,0.0,0.0,0.0,0.0,0.0,-2.6533,-2.6533,-2.6533,-2.6533,-2.6339,-2.6131,-2.591,-2.5688,-2.5606,-2.5535,-2.6277,-2.7069,-2.792,-2.8675,-2.9485,-3.0249,-3.042,-3.0539,-3.0715,-3.15,-3.2167,-3.2798,-3.3219,-3.3793,-3.4311,-3.4165,-3.4101,-3.4101,-3.4101,-3.4529,-3.5085,0.0,0.0,0.0,0.0,0.0,0.0,0.0,-0.6697,-0.7799,-0.9344,-0.9415,-0.9009,-0.7979,-0.7292,-0.6346,0.0,0.0,0.0,0.0,0.0,0.0,0.0,0.0,0.0,0.0,0.0,0.0,-0.178,-0.1666,0.0,0.0,0.0,0.0,0.0,0.0,-0.1339,-0.1201,-0.0907,0.0,0.0,0.0,0.0,0.0,0.0,0.0,0.0,0.0,-0.4533,-0.4972,-0.7903,-0.9212,-1.0004,-1.2626,-1.6567,-2.0032,-1.9524,-2.011,-2.0944,-2.0934,-2.0079,-1.9231,-1.9825,-1.9529,-1.8501,-1.6168,-1.5581,-1.4612,-1.1391,-1.0612,-1.0574,-1.062,-1.1784,0.0,0.0,0.0,-2.0725,0.0,0.0,0.0,0.0,0.0,0.0,0.0,0.0,-2.6533,-2.6533,-2.6533,-2.6533,-2.6533,-2.6339,-2.6131,-2.591,-2.5688,-2.5535,-2.5312,-2.607,-2.6812,-2.7537,-2.8403,-2.9489,-3.0764,-3.0891,-3.1204,-3.1754,-3.2572,-3.3295,-3.3974,-3.4017,-3.4422,-3.5007,-3.436,-3.4101,-3.4101,-3.4101,-3.4399,-3.4787,0.0,0.0,0.0,0.0,0.0,0.0,-0.5829,-0.6318,-0.7026,-0.8553,-0.9097,-0.906,-0.8186,-0.7883,-0.6868,-0.4865,0.0,0.0,0.0,0.0,0.0,0.0,0.0,0.0,0.0,0.0,-0.2204,-0.2126,-0.2053,0.0,0.0,0.0,0.0,0.0,0.0,-0.1055,-0.0603,-0.0544,0.0,0.0,0.0,0.0,0.0,0.0,0.0,0.0,0.0,0.0,-0.5382,-0.6558,-0.7925,-0.912,-0.9451,-1.2565,-1.6224,-1.7284,-1.8303,-1.9127,-1.9621,-1.9063,-1.8434,-1.8736,-1.8232,-1.7292,-1.5713,-1.4731,-1.3516,-1.1401,-1.0698,-1.0501,-1.0596,-1.1658,-1.3221,0.0,0.0,0.0,0.0,0.0,0.0,0.0,0.0,0.0,0.0,0.0,-2.6465,-2.6339,-2.6639,-2.6756,-2.6602,-2.6235,-2.6058,-2.6235,-2.6008,-2.6226,-2.6964,-2.7748,-2.8503,-2.9255,-3.0044,-3.0723,-3.1237,-3.1353,-3.1545,-3.1823,-3.2882,-3.3636,-3.413,-3.4164,-3.4599,-3.5104,-3.4239,-3.3949,-3.4101,-3.4101,-3.448,-3.5024,0.0,0.0,0.0,0.0,0.0,-0.4949,-0.6009,-0.6256,-0.6735,-0.7981,-0.872,-0.8797,-0.8052,-0.7759,-0.6912,-0.5045,-0.4729,0.0,0.0,0.0,0.0,0.0,0.0,0.0,0.0,0.0,-0.2252,-0.212,-0.2108,-0.1914,0.0,0.0,-0.1456,-0.0573,0.0,0.0,0.0,0.0,0.0,0.0,0.0,0.0,0.0,0.0,0.0,0.0,0.0,0.0,0.0,0.0,0.0,-0.8098,-0.7433,-0.9319,-1.2354,-1.5014,-1.6556,-1.7614,-1.8373,-1.8273,-1.7951,-1.7878,-1.7397,-1.6564,-1.5309,-1.4246,-1.3044,-1.1525,-1.0965,-1.0751,-1.0804,-1.178,-1.3116,-1.4725,0.0,-1.8823,0.0,0.0,0.0,0.0,0.0,0.0,0.0,-2.6089,-2.632,-2.6367,-2.6726,-2.6867,-2.687,-2.6515,-2.6406,-2.6627,-2.6419,-2.6883,-2.8119,-2.8841,-2.9605,-3.0378,-3.1124,-3.1583,-3.1766,-3.1871,-3.2023,-3.2259,-3.3362,-3.406,-3.4486,-3.4591,-3.4981,-3.5471,-3.4659,-3.4422,-3.4613,-3.4455,-3.4808,-3.5345,0.0,0.0,0.0,0.0,0.0,0.0,-0.6389,-0.6768,-0.7205,-0.8175,-0.8429,-0.8215,-0.738,-0.6971,-0.6334,-0.5354,-0.4617,0.0,0.0,0.0,0.0,0.0,0.0,0.0,0.0,0.0,-0.1716,-0.1521,-0.1445,-0.1426,-0.1378,-0.1283,-0.1048,-0.0715,0.0,0.0,0.0,0.0,0.0,0.0,0.0,0.0,0.0,0.0,0.0,0.0,0.0,0.0,0.0,0.0,0.0,0.0,0.0,-0.7669,-0.9413,-1.2942,-1.5166,-1.6775,-1.7481,-1.787,-1.7878,-1.7473,-1.7162,-1.6495,-1.5047,-1.4341,-1.3504,-1.1647,-1.1246,-1.1226,-1.1267,-1.2024,-1.302,-1.4275,-1.5916,0.0,-2.0544,0.0,0.0,0.0,0.0,0.0,-2.43,-2.529,-2.6131,-2.6672,-2.6709,-2.687,-2.7162,-2.7186,-2.7186,-2.7198,-2.6986,-2.7273,-2.8059,-2.8841,-2.9605,-3.0378,-3.1124,-3.1808,-3.2398,-3.2398,-3.2721,-3.3325,-3.3988,-3.4707,-3.5409,-3.5323,-3.5717,-3.6342,-3.5967,-3.579,-3.571,-3.5324,-3.5416,-3.5682,0.0,0.0,0.0,0.0,0.0,0.0,0.0,-0.5569,-0.5529,-0.6155,-0.6471,-0.6663,-0.6592,-0.6298,-0.5913,-0.5545,-0.5173,0.0,0.0,0.0,0.0,0.0,0.0,0.0,0.0,0.0,-0.2178,-0.1717,-0.1782,-0.1547,-0.1067,-0.1198,-0.1024,-0.0571,-0.0571,-0.0386,0.0,0.0,0.0,0.0,0.0,0.0,0.0,0.0,0.0,0.0,0.0,0.0,0.0,0.0,0.0,0.0,0.0,0.0,0.0,-0.9803,-1.2341,-1.4634,-1.5437,-1.6221,-1.6706,-1.6083,-1.5791,-1.5455,-1.4506,-1.3972,-1.319,-1.161,-1.1454,-1.1537,-1.1331,-1.1985,-1.3272,-1.5525,-1.6495,0.0,0.0,0.0,0.0,0.0,0.0,-2.5059,0.0,0.0,-2.6061,-2.6444,-2.6822,-2.7198,-2.7505,-2.7878,-2.7915,-2.7553,-2.7464,-2.8297,-2.9977,-3.0272,-3.1015,-3.2361,-3.2597,-3.2848,-3.3031,-3.3031,-3.3143,-3.3368,-3.4272,-3.4946,-3.5389,-3.5431,-3.581,-3.6301,-3.5518,-3.5023,-3.4863,-3.5616,-3.5828,-3.581,0.0,0.0,0.0,0.0,0.0,0.0,0.0,-0.5093,-0.4892,-0.5096,-0.5221,-0.5388,-0.578,-0.5433,-0.5199,-0.5229,-0.5161,0.0,0.0,0.0,0.0,0.0,0.0,0.0,0.0,-0.2219,-0.2012,-0.1627,-0.1663,-0.1475,-0.0988,-0.1196,-0.1007,-0.0562,-0.0562,-0.041,0.0,0.0,0.0,0.0,0.0,0.0,-0.2016,0.0,0.0,0.0,0.0,0.0,0.0,0.0,0.0,0.0,0.0,0.0,0.0,0.0,-0.9984,-1.2212,-1.3646,-1.4776,-1.5528,-1.5213,-1.4942,-1.4694,-1.4378,-1.3774,-1.3086,-1.234,-1.212,-1.2035,-1.1959,-1.2365,-1.334,-1.5153,-1.6016,0.0,0.0,0.0,0.0,0.0,0.0,0.0,0.0,-2.5911,-2.636,-2.6541,-2.7061,-2.7605,-2.7993,-2.833,-2.8366,-2.8029,-2.8017,-2.8762,-3.0443,-3.0745,-3.1576,-3.2846,-3.3157,-3.3326,-3.3326,-3.3326,-3.3326,-3.3382,-3.4423,-3.5008,0.0,-3.569,-3.6104,-3.6416,-3.5888,-3.5566,-3.5449,-3.6309,-3.6567,-3.661,0.0,0.0,0.0,0.0,0.0,0.0,0.0,-0.5269,-0.511,-0.4921,-0.4617,-0.4521,-0.4892,-0.4465,-0.4258,-0.4536,0.0,0.0,0.0,0.0,0.0,0.0,0.0,0.0,0.0,-0.1486,-0.1419,-0.1413,-0.1306,-0.1234,-0.1185,-0.1182,-0.0988,-0.066,-0.0659,-0.0582,-0.0404,0.0,0.0,0.0,-0.1164,-0.1654,0.0,0.0,0.0,0.0,0.0,0.0,0.0,0.0,0.0,0.0,0.0,0.0,0.0,0.0,0.0,0.0,0.0,-1.3465,-1.4435,-1.48,-1.447,-1.4091,-1.4442,-1.3764,0.0,-1.3425,-1.2997,-1.2637,-1.3096,-1.3123,-1.3311,-1.3918,-1.5063,0.0,0.0,0.0,0.0,0.0,-2.4066,0.0,-2.4725,-2.6012,-2.6947,-2.6983,-2.744,-2.7945,-2.8474,-2.851,-2.851,-2.851,-2.851,-2.8882,-2.9704,-3.0443,-3.1267,-3.2074,-3.286,-3.3241,-3.3326,-3.3326,-3.3326,-3.3382,-3.4356,-3.4876,-3.4942,-3.6037,-3.6492,-3.6554,-3.6876,-3.7011,-3.7008,-3.7333,-3.7601,-3.7801,0.0,0.0,0.0,0.0,0.0,0.0,0.0,0.0,0.0,0.0,-0.4559,-0.4435,-0.4334,-0.3999,-0.3856,0.0,0.0,0.0,0.0,0.0,0.0,0.0,0.0,0.0,0.0,-0.1854,-0.1792,-0.1688,-0.1834,-0.1531,-0.0842,-0.1031,-0.0759,-0.0164,-0.0426,-0.0497,-0.0448,0.0,0.0,0.0,-0.1564,-0.2097,0.0,0.0,0.0,0.0,-0.4495,-0.5018,0.0,0.0,0.0,0.0,0.0,0.0,0.0,0.0,-0.7212,-0.8146,-0.9534,0.0,-1.2601,-1.2562,-1.2898,-1.3124,0.0,-1.3004,-1.3246,-1.2463,-1.2598,-1.3234,-1.4397,-1.3738,-1.3947,-1.6837,0.0,-1.776,0.0,0.0,0.0,0.0,-2.5344,-2.5938,-2.6584,-2.6777,-2.7103,-2.7512,-2.7657,-2.7945,-2.8474,-2.851,-2.851,-2.851,-2.851,-2.8882,-2.9704,-2.9858,-3.067,-3.2074,-3.2304,-3.2704,-3.3326,-3.3326,-3.3326,-3.3312,-3.4031,-3.4543,-3.4957,-3.5634,-3.6161,-3.6585,-3.7095,-3.7002,-3.6693,-3.8225,-3.8472,-3.8264,0.0,0.0,0.0,0.0,0.0,0.0,0.0,0.0,0.0,0.0,0.0,0.0,0.0,0.0,0.0,0.0,0.0,0.0,0.0,0.0,0.0,0.0,0.0,0.0,-0.1925,-0.1712,-0.1649,-0.1787,-0.1743,-0.1512,-0.1259,-0.1371,-0.1127,-0.0685,-0.0724,-0.0762,-0.076,-0.0448,-0.0807,-0.1612,-0.1923,0.0,0.0,0.0,0.0,0.0,-0.4228,-0.4893,0.0,-0.6657,-0.7192,-0.7482,0.0,0.0,0.0,0.0,-0.7028,-0.7655,-0.8735,-1.0442,-1.1955,-1.2266,-1.2685,-1.2926,-1.268,-1.2868,-1.2959,-1.2497,-1.2735,-1.3352,0.0,-1.425,-1.465,0.0,-1.7595,0.0,0.0,0.0,0.0,-2.5585,-2.6207,-2.6705,-2.7093,-2.746,-2.7669,-2.7717,-2.7945,-2.821,-2.8498,-2.851,-2.851,-2.851,-2.851,-2.8736,-2.9184,-2.9561,-3.0291,-3.1563,-3.1928,-3.2547,-3.3326,-3.3326,-3.3326,-3.3312,-3.3894,-3.4399,-3.4957,-3.5499,-3.6049,-3.6522,-3.7157,-3.7173,-3.7049,-3.8605,-3.8969,-3.8828,0.0,0.0,0.0,0.0,0.0,0.0,0.0,0.0,0.0,0.0,0.0,0.0,0.0,0.0,0.0,0.0,0.0,0.0,0.0,0.0,0.0,0.0,0.0,-0.19,-0.189,-0.1468,-0.1474,-0.2047,-0.1605,-0.1651,-0.2114,-0.1862,-0.1717,-0.1588,-0.13,-0.1185,-0.1208,-0.1164,-0.1389,-0.1837,-0.2192,0.0,0.0,0.0,0.0,0.0,0.0,0.0,0.0,-0.6854,-0.765,-0.8259,-0.7871,0.0,0.0,0.0,0.0,0.0,-0.9028,-1.074,-1.2204,-1.2604,-1.2822,-1.3032,-1.3363,-1.2967,-1.2657,-1.2967,-1.3222,-1.366,0.0,-1.4968,0.0,0.0,0.0,0.0,0.0,0.0,0.0,-2.5844,-2.6357,-2.6726,-2.7156,-2.783,-2.816,-2.7873,-2.8179,-2.851,-2.851,-2.851,-2.851,-2.851,-2.851,-2.851,-2.851,-2.9184,-2.9999,-3.0895,-3.1563,-3.239,-3.3326,-3.3326,-3.3326,-3.3326,-3.3756,-3.4322,-3.497,-3.5398,-3.5955,-3.6522,-3.7157,-3.7482,-3.7698,-3.8791,-3.9244,-3.9413,0.0,0.0,0.0,0.0,0.0,0.0,0.0,0.0,0.0,0.0,0.0,0.0,0.0,0.0,0.0,0.0,0.0,0.0,0.0,0.0,0.0,0.0,0.0,-0.2396,-0.2383,-0.2022,-0.2235,-0.3071,-0.2495,-0.2496,-0.3099,-0.2435,-0.2124,-0.2071,-0.1643,-0.1528,-0.1658,-0.1389,-0.1478,-0.1837,-0.2284,0.0,0.0,0.0,0.0,0.0,0.0,0.0,0.0,-0.6807,-0.756,-0.8203,-0.7467,0.0,0.0,0.0,0.0,0.0,-1.0076,-1.229,-1.3589,-1.1703,-1.2097,-1.2869,-1.2624,-1.2763,-1.3025,-1.3266,-1.4221,0.0,0.0,-1.6886,-1.7492,0.0,0.0,-2.0306,0.0,0.0,-2.2882,-2.486,-2.4903,-2.5786,-2.8356,-2.767,-2.7464,-2.8311,-2.8303,-2.8339,-2.851,-2.851,-2.851,-2.851,-2.851,-2.851,-2.851,-2.8578,-2.9406,-3.0895,-3.1044,-3.1869,-3.3326,-3.3326,-3.3326,-3.3312,-3.3382,-3.4008,-3.4902,-3.4979,-3.5638,-3.6522,-3.7157,-3.7706,-3.8228,-3.8941,-3.9547,-3.9986,0.0,0.0,0.0,0.0,0.0,0.0,0.0,0.0,0.0,0.0,0.0,0.0,0.0,0.0,0.0,0.0,0.0,0.0,0.0,0.0,0.0,0.0,0.0,0.0,-0.3395,-0.3257,-0.353,-0.4289,-0.3925,-0.3893,-0.4155,-0.3599,-0.3115,-0.2807,-0.2549,-0.2452,-0.2549,-0.2413,-0.2544,-0.294,0.0,0.0,0.0,0.0,0.0,0.0,0.0,0.0,0.0,0.0,-0.7759,-0.8625,-0.7784,0.0,0.0,0.0,0.0,0.0,-0.9914,-1.1872,-1.3245,-1.2571,-1.412,-1.5789,-1.5615,-1.5407,-1.5189,-1.5059,-1.5673,0.0,0.0,0.0,-1.8481,-2.0521,0.0,-2.1261,-2.1391,-2.2159,-2.3237,-2.4555,-2.4756,-2.5557,-2.7554,-2.7273,-2.7418,-2.8259,-2.8339,-2.8431,-2.851,-2.851,-2.851,-2.851,-2.851,-2.851,-2.851,-2.851,-2.9328,-3.0895,-3.0895,-3.1723,-3.3326,-3.3326,-3.3326,-3.3326,-3.3326,-3.3718,-3.4488,-3.4752,-3.5362,-3.6152,-3.7018,-3.7594,-3.7907,-3.8868,-3.9581,-4.007,0.0,0.0,0.0,0.0,0.0,0.0,0.0,0.0,0.0,0.0,0.0,0.0,0.0,0.0,0.0,0.0,0.0,0.0,0.0,0.0,0.0,0.0,0.0,0.0,0.0,-0.4508,-0.4776,-0.5445,-0.5146,-0.4959,-0.488,-0.4517,-0.4094,-0.3517,-0.3243,-0.3212,-0.3344,-0.3258,-0.352,-0.3953,0.0,0.0,0.0,0.0,0.0,0.0,0.0,0.0,0.0,0.0,0.0,0.0,0.0,0.0,0.0,-0.8594,-0.8519,-0.8893,-1.0379,-1.1904,-1.3308,-1.4353,-1.6123,-1.774,-1.8071,-1.7577,-1.6972,-1.684,0.0,0.0,0.0,-1.8859,0.0,-2.0602,-2.1332,-2.179,-2.1624,-2.2222,-2.3128,-2.4072,-2.4221,-2.488,-2.6329,-2.667,-2.7092,-2.7834,-2.8259,-2.8431,-2.851,-2.851,-2.851,-2.851,-2.851,-2.851,-2.851,-2.851,-2.9328,-3.0895,-3.0895,-3.1723,-3.3326,-3.3326,-3.3326,-3.3326,-3.3326,-3.3663,-3.4355,-3.471,-3.5318,-3.5983,-3.6832,-3.7344,-3.7761,-3.8954,-3.9682,-4.007,0.0,0.0,0.0,0.0,0.0,0.0,0.0,0.0,0.0,0.0,0.0,0.0,0.0,0.0,0.0,0.0,0.0,0.0,0.0,0.0,0.0,0.0,0.0,0.0,0.0,-0.5447,-0.5621,-0.6603,-0.573,-0.5055,-0.4716,-0.4647,-0.4491,-0.4187,-0.3302,-0.3271,-0.3822,-0.3524,-0.3656,-0.4089,-0.4228,0.0,0.0,0.0,0.0,0.0,0.0,0.0,0.0,0.0,0.0,0.0,0.0,0.0,-0.9427,-0.9819,-1.0106,-1.0776,-1.2869,-1.4063,-1.5143,-1.6806,-1.64,-1.598,-1.741,-1.7256,-1.7058,-1.7796,0.0,0.0,0.0,-2.0915,-2.1771,-2.1255,-2.141,-2.1392,-2.0791,-2.0566,-2.1204,-2.3062,-2.2449,-2.2862,-2.5325,-2.5568,-2.5986,-2.6812,-2.7742,-2.8339,-2.851,-2.851,-2.851,-2.851,-2.851,-2.851,-2.851,-2.851,-2.9328,-3.0895,-3.0895,-3.1723,-3.3326,-3.3326,-3.3326,-3.3326,-3.3326,-3.3903,-3.4837,-3.4852,-3.5518,-3.6461,-3.6507,-3.7266,-3.8399,-3.9561,-4.0054,-4.007,0.0,0.0,0.0,0.0,0.0,0.0,0.0,0.0,0.0,0.0,0.0,0.0,0.0,0.0,0.0,0.0,0.0,0.0,0.0,0.0,0.0,0.0,0.0,-0.5533,-0.6164,-0.6572,-0.7027,-0.7469,-0.6694,-0.628,-0.6147,-0.5696,-0.5442,-0.5281,-0.4579,-0.4516,-0.487,-0.4534,-0.4776,-0.5335,-0.4714,-0.4535,0.0,0.0,0.0,0.0,0.0,0.0,0.0,0.0,-0.7661,-0.8333,-0.7923,-0.8904,-1.0161,-0.9893,-1.0023,-1.066,-1.2247,-1.3478,-1.4707,-1.6598,-1.7417,-1.8022,-1.9256,-1.9681,-1.9896,-2.0341,-2.0448,0.0,0.0,0.0,-2.1484,-2.1081,-2.1025,-2.0909,-2.0664,-2.0643,-2.1111,-2.2279,-2.2016,-2.265,-2.5115,-2.5411,-2.608,-2.736,-2.8018,-2.8431,-2.851,-2.851,-2.851,-2.851,-2.851,-2.8736,-2.925,-2.9263,-3.0075,-3.1636,-3.1119,-3.1723,-3.3326,-3.3326,-3.3326,-3.3326,-3.3649,-3.4058,-3.4425,-3.5126,-3.5627,-3.6044,-3.6786,-3.7539,-3.8412,-3.9242,-3.9783,-4.007,0.0,0.0,0.0,0.0,0.0,0.0,0.0,0.0,0.0,0.0,0.0,0.0,0.0,0.0,0.0,0.0,0.0,0.0,0.0,-0.4845,0.0,0.0,0.0,-0.5557,-0.6175,-0.7222,-0.7871,-0.7967,-0.7581,-0.7344,-0.7155,-0.6557,-0.6358,0.0,0.0,0.0,-0.6243,-0.5631,-0.5666,-0.6105,-0.5228,-0.5014,0.0,0.0,0.0,0.0,0.0,0.0,0.0,0.0,-0.763,-0.8183,-0.7889,-0.9076,-1.047,-1.0097,-1.0851,-1.1927,-1.2679,-1.3771,-1.5133,-1.6658,-1.8027,-1.9271,-2.0193,-2.0895,-2.145,-2.1759,-2.1549,-2.1257,-2.1118,0.0,0.0,0.0,-2.0731,-2.0615,-2.0752,-2.0866,-2.1182,-2.1938,-2.192,-2.2418,-2.4039,-2.4648,-2.5568,-2.6928,-2.7592,-2.8087,-2.851,-2.851,-2.851,-2.851,-2.851,-2.8882,-2.9704,-2.9739,-3.0509,-3.2069,-3.1548,-3.199,-3.3326,-3.3326,-3.3368,-3.3607,-3.3931,-3.4321,-3.4636,-3.5416,-3.5937,-3.6322,-3.7313,-3.8059,-3.8656,-3.9244,-3.9767,-4.007,0.0,0.0,0.0,0.0,0.0,0.0,0.0,0.0,0.0,0.0,0.0,0.0,0.0,0.0,0.0,0.0,0.0,0.0,-0.4962,-0.5111,-0.5026,-0.5116,-0.5517,-0.5845,-0.616,-0.724,-0.7823,-0.776,-0.8029,-0.801,-0.7569,-0.709,0.0,0.0,0.0,0.0,0.0,0.0,0.0,-0.6156,-0.5683,-0.5717,-0.5981,0.0,0.0,0.0,0.0,0.0,0.0,0.0,-0.7238,-0.7244,-0.8705,-0.9665,-1.0336,-1.074,-1.2876,-1.4974,-1.462,-1.5526,-1.6749,-1.7357,-1.8253,-1.9101,-1.9859,-2.0441,-2.106,-2.1697,-2.1818,-2.1807,-2.1807,-2.1512,-2.1205,-2.1205,-2.0886,-2.0723,-2.1172,-2.106,-2.1207,-2.2082,-2.1921,-2.191,-2.2059,-2.3115,-2.4125,-2.5041,-2.613,-2.7325,-2.8431,-2.851,-2.851,-2.851,-2.851,-2.8882,-2.9704,-2.9754,-3.056,-3.2131,-3.2078,-3.254,-3.3326,-3.3326,-3.3607,-3.4086,-3.4086,-3.4742,-3.569,-3.569,-3.6415,-3.7437,-3.8075,-3.8691,-3.9261,-3.9868,-4.007,-4.007,0.0,0.0,0.0,0.0,0.0,0.0,0.0,0.0,0.0,0.0,0.0,0.0,0.0,0.0,0.0,0.0,0.0,0.0,-0.1111,-0.3652,-0.3848,-0.0833,-0.3667,-0.5357,-0.5344,-0.6019,-0.6753,-0.7698,-0.7926,-0.7863,-0.764,0.0,0.0,0.0,0.0,0.0,0.0,0.0,0.0,-0.689,-0.6567,-0.6522,-0.6702,0.0,0.0,0.0,0.0,0.0,0.0,0.0,0.0,0.0,-0.8482,-1.0054,-1.1548,-1.1316,-1.2467,-1.383,-1.3729,-1.5008,-1.6548,-1.7336,0.0,0.0,0.0,-2.1544,0.0,0.0,-2.2216,-2.1968,-2.164,-2.1282,-2.0984,-2.0984,-2.1007,-2.1004,-2.098,-2.1077,-2.1284,-2.1855,-2.1558,-2.1795,-2.2989,-2.3367,-2.42,-2.5975,-2.6565,-2.7325,-2.8431,-2.851,-2.851,-2.851,-2.9028,-2.9704,-3.0519,-3.1091,-3.1937,-3.2929,-3.2927,-3.3056,-3.3326,-3.3326,-3.3607,-3.4128,-3.4486,-3.5063,-3.5705,-3.6121,-3.6688,-3.7465,-3.8051,-3.8678,-3.9261,-3.9868,-4.007,-4.0121,0.0,0.0,0.0,0.0,0.0,0.0,0.0,0.0,0.9818,0.3864,0.2386,0.0575,0.0,0.0,0.0,-0.5401,-0.4161,-0.2048,0.0618,-0.3139,-0.353,0.0858,-0.2988,-0.5305,-0.5376,-0.5937,-0.6563,-0.7347,-0.7492,-0.7808,0.0,0.0,0.0,0.0,0.0,0.0,0.0,0.0,0.0,-0.7572,-0.7454,-0.7555,-0.7762,0.0,0.0,0.0,0.0,0.0,0.0,0.0,0.0,0.0,-0.8158,-0.9548,-1.1047,-1.1653,-1.3103,-1.463,-1.532,-1.684,0.0,-1.9023,-2.031,-2.1554,-2.1901,0.0,0.0,0.0,-2.1998,-2.1829,-2.1486,-2.1268,-2.1164,-2.1164,-2.1201,-2.1308,-2.1399,-2.1463,-2.1599,-2.1851,-2.1627,-2.1798,-2.2658,-2.2765,-2.3597,-2.5797,-2.6058,-2.6812,-2.8431,-2.851,-2.851,-2.851,-2.932,-3.0112,-3.0875,-3.1672,-3.2469,-3.3326,-3.3326,-3.3326,-3.3326,-3.3326,-3.3607,-3.4114,-3.4912,-3.5652,-3.6436,-3.6763,-3.7436,-3.8286,-3.8894,-3.9323,-3.9671,-4.0306,-4.0409,-4.0221,0.0,0.0,0.0,0.0,0.0,0.0,0.0,1.6799,1.6255,0.8505,1.0543,0.978,0.0,0.0,0.0,-0.4416,-0.1617,0.0671,0.0786,-0.3298,-0.3781,0.0587,-0.3198,-0.5609,-0.6013,-0.6606,-0.6878,-0.6834,-0.6988,-0.7737,0.0,0.0,-1.0526,0.0,0.0,-1.0753,0.0,0.0,0.0,-0.8246,-0.8357,-0.8685,-0.8992,-0.8545,0.0,0.0,0.0,0.0,0.0,0.0,0.0,0.0,-0.7946,-0.8622,-0.9538,-1.1772,-1.4175,-1.6505,-1.8046,-1.9619,-2.0934,-2.1489,-2.1303,0.0,-2.2226,-2.2108,-2.1741,-2.1553,0.0,-2.1359,-2.1215,-2.1332,-2.1461,-2.1461,-2.1539,-2.1736,-2.2045,-2.195,-2.1861,-2.205,-2.2097,-2.2008,-2.1741,-2.1741,-2.258,-2.4787,-2.5041,-2.6058,-2.8259,-2.8431,-2.851,-2.851,-2.9346,-3.0143,-3.0905,-3.1759,-3.2577,-3.3326,-3.3326,-3.3326,-3.3326,-3.3326,-3.3607,-3.4198,-3.5235,-3.633,-3.744,-3.7446,-3.8265,-3.9482,-4.0115,-4.0348,-4.0367,-4.097,-4.0866,-4.0472,0.0,0.0,0.0,0.0,0.0,0.0,1.838,1.6203,1.3999,1.2164,0.9831,0.7655,0.5748,0.6353,0.0,-0.0295,0.0073,0.0671,0.0786,-0.3298,-0.3832,0.0399,-0.3894,-0.6349,-0.6343,-0.6251,-0.6447,-0.6856,-0.7019,-0.7597,0.0,0.0,0.0,0.0,0.0,0.0,0.0,0.0,0.0,-0.8456,-0.8536,-0.8797,-0.9163,-0.904,-0.8623,0.0,0.0,0.0,0.0,0.0,0.0,0.0,-0.8425,-0.9308,-1.02,-1.1348,-1.3424,-1.5488,-1.5954,-1.7869,0.0,0.0,-2.1001,-2.1665,-2.1737,-2.165,-2.1681,-2.1971,-2.1534,-2.0984,-2.0984,-2.1105,-2.123,-2.1079,-2.1636,-2.1902,-2.1644,-2.1848,-2.1994,-2.182,-2.183,-2.1741,-2.1741,-2.1741,-2.2334,-2.3963,-2.4713,-2.5808,-2.7429,-2.8099,-2.851,-2.851,-2.9864,-3.0726,-3.0898,-3.2299,-3.311,-3.3326,-3.3326,-3.3326,-3.3326,-3.3326,-3.3607,-3.4198,-3.5235,-3.614,-3.6872,-3.7345,-3.8233,-3.944,-4.0108,-4.0656,-4.111,-4.1302,-4.1257,-4.112,0.0,0.0,0.0,0.0,0.0,0.0,0.0,0.0,1.6308,1.6308,1.4397,1.2254,1.0182,0.9969,0.0,0.0,0.3658,0.4587,0.6729,0.0873,-0.2637,-0.2481,-0.5102,-0.6416,-0.6097,-0.6133,-0.6362,-0.6726,-0.6765,0.0,0.0,0.0,0.0,0.0,0.0,0.0,0.0,0.0,0.0,0.0,0.0,-0.9681,-0.9819,-0.9504,-0.8992,-0.837,-0.7738,0.0,0.0,0.0,0.0,0.0,0.0,0.0,-0.9674,-1.1544,-1.3109,-1.4654,-1.6477,0.0,0.0,-2.0504,0.0,-2.1578,-2.1436,-2.1282,-2.1275,-2.1507,-2.1221,-2.0898,-2.1027,-2.117,-2.1366,-2.1495,-2.1892,-2.2042,-2.178,-2.1868,-2.183,-2.1741,-2.1741,-2.1909,-2.2334,-2.1989,-2.2589,-2.4819,-2.5062,-2.5833,-2.7615,-2.8191,-2.851,-2.851,-3.0065,-3.0932,-3.0881,-3.2523,-3.3326,-3.3326,-3.3326,-3.3326,-3.3326,-3.3326,-3.3713,-3.453,-3.5391,-3.6481,-3.7582,-3.8197,-3.9241,-4.0451,-4.1155,-4.1639,-4.2009,-4.2388,-4.2364,-4.209,0.0,0.0,0.0,0.0,0.0,0.0,0.0,0.0,0.0,1.9602,1.9602,1.8276,1.478,1.44,1.2663,0.0,0.0,0.0,1.2167,0.4955,-0.0992,-0.4515,-0.5836,-0.6266,-0.5868,-0.626,-0.652,-0.6619,-0.6539,0.0,0.0,0.0,0.0,0.0,0.0,0.0,0.0,0.0,0.0,0.0,0.0,0.0,0.0,0.0,0.0,0.0,-0.7781,-0.7447,-0.7377,-0.7258,0.0,0.0,0.0,0.0,-0.8887,-1.1463,-1.2702,-1.3937,-1.6979,0.0,-1.9586,-2.1155,-2.1512,0.0,-2.1296,-2.1093,-2.1035,-2.1036,-2.0997,-2.0977,-2.1092,-2.1404,-2.1681,-2.2035,-2.2089,-2.2097,-2.2008,-2.183,-2.1741,-2.1741,-2.182,-2.2157,-2.2843,-2.2441,-2.3154,-2.557,-2.5477,-2.6092,-2.7859,-2.8283,-2.8498,-2.851,-3.0077,-3.0858,-3.0931,-3.2518,-3.3354,-3.348,-3.348,-3.348,-3.3635,-3.3593,-3.4066,-3.497,-3.5866,-3.7058,-3.8589,-3.9367,-4.0401,-4.1591,-4.2395,-4.2791,-4.2939,-4.3542,-4.3492,-4.315,0.0,0.0,0.0,0.0,0.0,0.0,0.0,0.0,0.0,0.0,1.9602,1.9378,1.8827,1.8757,1.7061,1.2812,1.2433,1.1122,0.7988,0.0,0.0,-0.047,-0.4455,-0.6609,-0.6545,-0.6749,-0.693,-0.7097,-0.6937,0.0,0.0,0.0,0.0,0.0,0.0,0.0,0.0,0.0,0.0,0.0,0.0,0.0,0.0,0.0,0.0,0.0,0.0,-0.7447,-0.7377,-0.7258,-0.7294,0.0,0.0,0.0,-0.8944,-0.997,-1.163,-1.3223,0.0,0.0,-1.8904,0.0,-2.1359,-2.1306,0.0,0.0,-2.149,-2.1712,-2.1335,-2.0941,-2.0918,-2.1396,-2.1683,-2.1558,-2.1826,-2.2008,-2.183,-2.1741,-2.1741,-2.1741,-2.2413,-2.2668,-2.1989,-2.3223,-2.4022,-2.3839,-2.5238,-2.6352,-2.6952,-2.78,-2.8279,-2.851,-3.0077,-3.0933,-3.0873,-3.2512,-3.3522,-3.4086,-3.4086,-3.4356,-3.4959,-3.4882,-3.4932,-3.515,-3.6768,-3.7911,-3.8773,-3.9913,-4.0795,-4.1641,-4.3092,-4.3656,-4.3681,-4.3929,-4.4027,-4.3872,0.0,0.0,0.0,0.0,0.0,0.0,0.0,0.0,0.0,0.0,0.0,1.9602,1.9602,1.9602,1.8845,1.6974,1.6834,1.5014,1.0767,0.8677,0.6507,0.411,-0.0429,-0.2901,-0.2901,-0.5453,-0.6879,-0.7026,0.0,0.0,0.0,-1.095,-1.1833,0.0,0.0,0.0,0.0,0.0,0.0,0.0,0.0,0.0,0.0,0.0,0.0,0.0,0.0,0.0,-0.737,-0.716,-0.7157,-0.7308,-0.7953,0.0,0.0,0.0,-1.0224,-1.1766,-1.4031,-1.6611,-1.9063,0.0,-2.1118,-2.1003,-2.086,-2.0983,-2.1178,-2.1177,-2.1211,-2.1293,-2.1572,-2.158,-2.1633,-2.177,-2.1878,-2.183,-2.1741,-2.1741,-2.1891,-2.2435,-2.2385,-2.2775,-2.3851,-2.3837,-2.4236,-2.5519,-2.6109,-2.6638,-2.7412,-2.8009,-2.8395,-2.851,-3.0077,-3.0919,-3.0875,-3.2809,-3.414,-3.4757,-3.5036,-3.5382,-3.5709,-3.6643,-3.6733,-3.6131,-3.7653,-3.8614,-3.9253,-4.0516,-4.1501,-4.2348,-4.341,-4.4128,-4.4618,-4.4692,-4.4749,-4.4715,0.0,0.0,0.0,0.0,0.0,0.0,0.0,0.0,0.0,0.0,0.0,1.8249,1.9462,0.0,0.0,0.0,1.9602,1.8258,1.5102,1.2741,1.0052,0.6831,0.1257,-0.1743,-0.171,-0.5136,-0.6901,0.0,0.0,0.0,-1.0587,-1.1187,-1.2461,0.0,-1.2668,0.0,0.0,0.0,0.0,0.0,0.0,0.0,0.0,0.0,0.0,0.0,0.0,0.0,-0.828,-0.7392,-0.7138,-0.7275,-0.782,-0.8055,0.0,0.0,0.0,0.0,0.0,0.0,-1.7619,-1.9416,-1.9918,-1.9955,0.0,0.0,-2.0429,-2.0689,-2.0726,-2.1043,-2.1635,-2.1593,-2.1549,-2.1924,-2.1811,-2.1741,-2.1741,-2.1741,-2.1971,-2.2669,-2.2328,-2.2833,-2.4901,-2.4319,-2.4619,-2.6674,-2.6713,-2.7067,-2.7883,-2.8203,-2.8395,-2.851,-3.0043,-3.0953,-3.1128,-3.349,-3.4927,-3.5393,-3.5794,-3.617,-3.6488,-3.7875,-3.8112,-3.7619,-3.8687,-3.9413,-3.9884,-4.1138,-4.2045,-4.274,-4.3588,-4.4429,-4.5069,-4.5177,-4.53,-4.5337,0.0,0.0,0.0,0.0,0.0,0.0,0.0,0.0,0.0,0.0,0.0,1.4525,1.9099,1.9602,1.9602,1.9602,1.9602,1.9513,1.929,1.1246,0.6383,0.6135,-0.2239,0.0,-0.6636,-0.7196,-0.7314,0.0,0.0,0.0,-1.1896,-1.1888,-1.3656,-1.6838,-1.5133,-1.3196,-1.1269,0.0,0.0,0.0,0.0,0.0,0.0,0.0,0.0,0.0,0.0,0.0,0.0,-0.8287,-0.7537,-0.7675,-0.7774,-0.7818,-0.7917,0.0,0.0,0.0,0.0,-1.2805,0.0,-1.6306,0.0,0.0,0.0,0.0,-1.9384,-2.0729,-2.0017,-1.9482,-2.0483,-2.1264,-2.1713,-2.1731,-2.1731,-2.1741,-2.1741,-2.1741,-2.1731,-2.1731,-2.2485,-2.3036,-2.3241,-2.4681,-2.5728,-2.5847,-2.6683,-2.7383,-2.7841,-2.7909,-2.8128,-2.851,-3.0073,-3.1169,-3.1707,-3.458,-3.6022,-3.6022,-3.6079,-3.6689,-3.7771,-3.7828,-3.8478,-3.9576,-4.017,-4.0409,-4.0547,-4.1623,-4.2109,-4.2285,-4.3839,-4.4502,-4.4614,-4.5194,-4.5371,-4.5371,0.0,0.0,0.0,0.0,0.0,0.0,0.0,0.0,0.0,0.0,0.0,0.0,0.0,1.3376,1.4035,1.107,1.0804,1.0804,1.0804,0.7775,0.5963,0.5963,0.0101,-0.3164,-0.3097,-0.6074,0.0,0.0,0.0,-0.8915,-1.0843,-1.1322,-1.2585,-1.4474,-1.406,-1.3553,-1.2909,-1.1167,0.0,0.0,0.0,0.0,0.0,0.0,0.0,0.0,0.0,0.0,0.0,0.0,-0.879,-0.77,-0.7649,-0.7629,-0.7681,-0.7792,0.0,0.0,0.0,0.0,0.0,-1.4413,-1.5667,-1.654,-1.6916,-1.7862,-1.878,-1.91,-1.9043,-1.9052,-1.9361,-1.962,-2.0056,-2.0722,-2.0829,-2.1051,-2.1633,-2.1741,-2.1965,-2.2551,-2.2353,-2.2679,-2.3903,-2.4564,-2.5178,-2.573,-2.6956,-2.7696,-2.787,-2.8167,-2.8371,-2.851,-3.0061,-3.1856,-3.399,-3.5411,-3.6303,-3.6654,-3.7039,-3.7476,-3.7962,-3.8692,-3.9298,-3.9753,-4.0524,-4.0867,-4.0935,-4.1785,-4.2285,-4.2678,-4.4013,-4.4541,-4.4708,-4.5194,-4.5423,-4.5423,0.0,0.0,0.0,0.0191,0.0,0.2348,0.0751,0.0504,0.0,0.0,0.0,0.0,0.0,0.0,0.9006,0.5986,0.5828,0.5891,0.5891,0.4404,0.352,0.352,-0.0929,-0.3357,-0.3287,0.0,0.0,0.0,0.0,0.0,0.0,0.0,-1.2367,-1.3635,-1.369,0.0,0.0,0.0,0.0,-1.0942,0.0,0.0,-1.3739,0.0,0.0,0.0,0.0,0.0,0.0,0.0,0.0,0.0,0.0,0.0,0.0,0.0,0.0,0.0,-0.9058,0.0,0.0,0.0,0.0,-1.4319,-1.556,0.0,-1.7253,-1.8233,-1.8071,-1.7888,-1.8259,-1.8056,-1.8261,-1.9588,-2.0121,-2.0508,-2.1167,-2.1516,-2.1965,-2.256,-2.2091,-2.2337,-2.3883,-2.4031,-2.4524,-2.5694,-2.6735,-2.7499,-2.7882,-2.8203,-2.8761,-2.9605,-3.0881,-3.2836,-3.5493,-3.6102,-3.6626,-3.6978,-3.7443,-3.781,-3.8263,-3.9002,-3.9666,-4.0161,-4.0867,-4.1138,-4.1138,-4.1851,-4.2396,-4.2909,-4.3956,-4.4485,-4.4763,-4.5247,-4.5423,-4.5423,0.0,-0.5723,-0.3904,-0.8253,-0.5199,-0.3677,-0.8334,-0.9016,0.0,0.0,0.0,0.0,0.0,0.0,0.0,0.4945,0.5283,0.5466,0.5487,0.1165,-0.1391,-0.1391,-0.586,-0.8242,-0.7979,0.0,0.0,0.0,0.0,0.0,0.0,0.0,-1.3288,0.0,-1.4245,-1.3938,-1.3709,0.0,-1.2987,-1.327,0.0,-1.5212,-1.2999,0.0,0.0,0.0,-1.6099,-1.6461,0.0,-1.5322,0.0,0.0,0.0,0.0,0.0,0.0,0.0,0.0,0.0,0.0,0.0,0.0,0.0,0.0,-1.4388,0.0,-1.4855,-1.8006,-1.713,-1.6048,-1.713,-1.6476,-1.6476,-1.8453,-1.9612,-2.0303,-2.0286,-2.1078,-2.1741,-2.1741,-2.1741,-2.2082,-2.3012,-2.3032,-2.3874,-2.5634,-2.6062,-2.6747,-2.7873,-2.8116,-2.9283,-3.1688,-3.2462,-3.3826,-3.6065,-3.6683,-3.6978,-3.6978,-3.6978,-3.7658,-3.8782,-3.8855,-3.9651,-4.107,-4.1138,-4.1138,-4.1205,-4.1851,-4.2396,-4.2909,-4.3706,-4.4316,-4.4763,-4.5247,-4.5423,-4.5423,-1.0186,-0.872,-0.7986,-0.9446,-0.8429,-0.7934,-0.9503,-0.9527,-0.8836,0.0,0.0,0.0,0.0,0.0,0.0,0.0,-0.4867,-0.4559,-0.4297,-0.5301,-0.5909,-0.5909,-0.7188,-0.7878,-0.7787,0.0,0.0,0.0,0.0,0.0,0.0,0.0,0.0,0.0,-1.2751,-1.2896,-1.2832,-1.2397,0.0,0.0,-1.4681,-1.5883,0.0,0.0,0.0,0.0,0.0,-1.8769,-1.6959,0.0,-1.4909,-1.1706,0.0,0.0,0.0,0.0,0.0,0.0,-0.6413,0.0,0.0,0.0,0.0,0.0,0.0,0.0,-1.2683,-1.5656,-1.5356,-1.5253,-1.7673,-1.6805,-1.64,-1.8218,-1.8893,-1.951,-2.0159,-2.1078,-2.1741,-2.1741,-2.1741,-2.1759,-2.2082,-2.2678,-2.3647,-2.4956,-2.5914,-2.6944,-2.8036,-2.8279,-2.946,-3.1743,-3.245,-3.3853,-3.6065,-3.6683,-3.6978,-3.6978,-3.7429,-3.781,-3.8188,-3.9277,-4.0076,-4.0493,-4.144,-4.1851,-4.1835,-4.238,-4.2802,-4.3229,-4.4186,-4.4597,-4.4763,-4.5247,-4.5423,-4.5423,-1.0687,-1.0215,-1.0026,-1.0476,-1.054,-1.0667,-1.0993,-1.056,-1.015,0.0,0.0,0.0,0.0,0.0,0.0,0.0,-0.8948,-0.8553,-0.8224,-0.7895,-0.7712,-0.7712,-0.7712,-0.7712,-0.7712,0.0,0.0,0.0,0.0,0.0,0.0,0.0,0.0,0.0,0.0,0.0,0.0,0.0,0.0,0.0,-1.51,0.0,0.0,-1.908,-1.9651,0.0,0.0,0.0,-1.819,-1.8938,-1.6178,0.0,0.0,0.0,0.0,0.0,0.0,0.0,0.0,0.0,0.0,0.0,0.0,0.0,0.0,0.0,0.0,-1.6838,-1.6676,-1.6422,-1.8095,-1.7468,-1.7095,-1.8064,-1.8877,-1.9518,-2.0159,-2.106,-2.1624,-2.1731,-2.1741,-2.1741,-2.1741,-2.2199,-2.3144,-2.4669,-2.5447,-2.6621,-2.8267,-2.8623,-2.9843,-3.2175,-3.2751,-3.4216,-3.6445,-3.6796,-3.7134,-3.7366,-3.7734,-3.8248,-3.8899,-3.9778,-4.0478,-4.1024,-4.1769,-4.2174,-4.2365,-4.3064,-4.341,-4.3663,-4.4412,-4.4818,-4.5015,-4.53,-4.5423,-4.5423,0.0,-1.0718,-1.0655,-1.1364,-1.1801,-1.2253,-1.2702,-1.2039,-1.1388,0.0,0.0,0.0,0.0,0.0,0.0,0.0,-0.9418,-0.8864,-0.8453,-0.8117,-0.7874,-0.7836,-0.7874,-0.7874,-0.7795,-0.8268,0.0,0.0,0.0,0.0,0.0,0.0,0.0,0.0,0.0,0.0,0.0,0.0,0.0,-1.3436,-1.6278,-1.6264,0.0,0.0,-1.9087,-1.7578,-1.9279,-1.9851,-1.9984,-2.0427,-1.7579,0.0,0.0,0.0,0.0,0.0,-0.5774,0.0,0.0,0.0,0.0,0.0,0.0,0.0,0.0,0.0,0.0,-1.8603,-1.8426,-1.7412,-1.7691,-1.7545,-1.7455,-1.7622,-1.8779,-1.9768,-2.0205,-2.0953,-2.1516,-2.1642,-2.1741,-2.1741,-2.1741,-2.1811,-2.2669,-2.4692,-2.5254,-2.6374,-2.8491,-2.912,-3.0499,-3.2791,-3.3356,-3.4713,-3.6978,-3.6978,-3.7289,-3.7947,-3.8023,-3.8826,-4.027,-4.0339,-4.1024,-4.2109,-4.2109,-4.2302,-4.2696,-4.3562,-4.3956,-4.403,-4.4597,-4.5015,-4.5423,-4.5423,-4.5423,-4.5423,-1.1442,-1.109,-1.1148,-1.2258,-1.2498,-1.3016,-1.4389,-1.3636,-1.3077,0.0,0.0,0.0,0.0,0.0,0.0,0.0,0.0,0.0,-0.9777,-0.9406,-0.9023,-0.8594,-0.8914,-0.8896,-0.8521,-0.8913,0.0,0.0,0.0,0.0,0.0,0.0,0.0,0.0,0.0,0.0,0.0,0.0,0.0,-1.4898,-1.5497,0.0,-1.8737,-1.9983,-2.0918,-2.1741,-2.1857,-2.1761,-2.1238,-1.8781,-1.6743,-1.465,0.0,0.0,0.0,0.0,0.0,0.0,0.0,0.0,0.0,0.0,0.0,0.0,0.0,-0.7194,-0.8213,0.0,-1.1043,-1.1095,-1.3355,-1.3366,-1.3325,-1.4344,-1.6345,-1.8274,-1.9779,-2.098,-2.1642,-2.1741,-2.1741,-2.1741,-2.1741,-2.2356,-2.3448,-2.49,-2.6816,-2.8217,-2.9124,-2.9924,-3.1293,-3.3341,-3.4219,-3.5374,-3.6978,-3.6978,-3.7414,-3.8279,-3.8796,-3.9591,-4.0638,-4.1409,-4.1835,-4.2109,-4.2381,-4.2571,-4.2618,-4.3202,-4.3663,-4.4088,-4.4961,-4.5318,-4.5423,-4.5423,-4.5423,-4.5423,-1.2039,-1.1849,-1.2204,-1.3655,-1.4116,-1.4819,-1.6426,-1.576,0.0,0.0,0.0,0.0,0.0,0.0,0.0,0.0,0.0,0.0,-1.0283,-0.9756,-0.9317,-0.904,-0.9257,-0.924,-0.9006,-0.94,-0.9249,0.0,0.0,0.0,0.0,0.0,0.0,0.0,0.0,0.0,0.0,0.0,-1.2379,-1.4003,-1.598,0.0,-2.0226,-2.1276,-2.2102,-2.2708,-2.2393,-2.2134,-2.1405,-1.8969,-1.6777,0.0,0.0,-0.959,-0.8128,0.0,-0.6344,-0.6449,0.0,0.0,0.0,-0.5102,0.0,0.0,0.0,0.0,-0.799,-1.0962,-1.0968,-1.0932,-1.2445,-1.2401,-1.2368,-1.3181,-1.5453,-1.7175,-1.7271,-1.9757,-2.1562,-2.1651,-2.1741,-2.1741,-2.1741,-2.2551,-2.3851,-2.5644,-2.7337,-2.8659,-2.9268,-3.0394,-3.1784,-3.3417,-3.4647,-3.5847,-3.6978,-3.7289,-3.7933,-3.887,-3.9463,-4.0309,-4.1393,-4.19,-4.2174,-4.2365,-4.2508,-4.2634,-4.2634,-4.308,-4.3426,-4.3722,-4.4652,-4.5177,-4.5423,-4.5423,-4.5423,-4.5423,-1.2685,-1.2613,-1.3134,-1.4581,-1.5462,-1.6452,-1.7829,-1.7492,0.0,0.0,0.0,0.0,0.0,0.0,0.0,0.0,0.0,0.0,0.0,-1.0685,-1.0283,-1.0083,-0.987,-0.9828,-0.9973,-1.0067,-0.9726,-0.8937,0.0,0.0,0.0,0.0,0.0,0.0,0.0,0.0,0.0,0.0,0.0,-1.3793,0.0,-1.8906,-1.969,-2.1701,-2.2309,-2.2085,-2.2206,-2.203,-2.1309,-1.9489,-1.7092,-1.4558,-1.2352,-1.0056,0.0,0.0,0.0,0.0,0.0,0.0,0.0,0.0,0.0,-0.5439,0.0,0.0,0.0,0.0,0.0,0.0,0.0,-1.1062,-1.1249,-1.1506,-1.4081,-1.549,-1.4059,-1.7546,0.0,-2.0743,-2.1313,-2.1649,-2.141,-2.2236,-2.3906,-2.6543,-2.754,-2.8518,-2.9622,-3.121,-3.2636,-3.3844,-3.5237,-3.6322,-3.7134,-3.7582,-3.8308,-3.9391,-3.9905,-4.0805,-4.1964,-4.2109,-4.2365,-4.2634,-4.2634,-4.2634,-4.2634,-4.3019,-4.3185,-4.3366,-4.4356,-4.4944,-4.53,-4.5406,-4.5476,-4.5511,-1.3106,-1.296,-1.3198,-1.3692,-1.5091,-1.6448,-1.7383,-1.7261,0.0,0.0,0.0,0.0,0.0,0.0,0.0,0.0,0.0,0.0,-1.4431,0.0,-1.3802,-1.2965,-1.1902,-1.1616,-1.2277,-1.1306,-0.9999,-0.8388,0.0,0.0,0.0,0.0,0.0,0.0,-1.2175,0.0,0.0,0.0,-1.5862,0.0,-1.8843,-1.7743,0.0,-1.9828,-2.0964,-2.0516,-2.1996,-2.2526,-2.203,0.0,-1.7215,-1.5602,0.0,-0.9818,-0.9363,0.0,0.0,0.0,0.0,0.0,0.0,0.0,-0.5434,0.0,0.0,0.0,0.0,-0.5052,0.0,0.0,0.0,0.0,0.0,0.0,-0.9432,-1.1867,-1.1251,-1.3909,-1.6323,-1.7186,-1.9868,-2.1319,-2.0237,-2.1214,-2.3527,-2.7487,-2.7541,-2.8537,-3.1041,-3.3304,-3.4778,-3.5453,-3.6373,-3.7134,-3.781,-3.7519,-3.8098,-3.955,-3.9929,-4.0607,-4.1591,-4.2222,-4.2571,-4.2634,-4.2634,-4.2634,-4.2634,-4.268,-4.2912,-4.3366,-4.4356,-4.4708,-4.4872,-4.5511,-4.5735,-4.5786,-1.3277,-1.3604,-1.4117,-1.4155,-1.5066,-1.6262,-1.7533,-1.8882,0.0,0.0,0.0,0.0,0.0,0.0,0.0,0.0,0.0,-1.6922,0.0,0.0,0.0,-1.2255,-1.1707,-1.1431,-1.1417,-1.0714,-0.9744,-0.8512,-0.8316,0.0,0.0,0.0,0.0,0.0,-1.2717,0.0,-1.5463,0.0,0.0,0.0,0.0,0.0,0.0,-2.118,-2.2895,-2.2477,-2.3083,-2.2877,-2.2138,0.0,-1.7792,0.0,0.0,0.0,0.0,0.0,0.0,0.0,0.0,0.0,0.0,0.0,0.0,0.0,-0.4281,0.0,-0.4019,0.0,0.0,0.0,0.0,0.0,0.0,0.0,-0.7856,0.0,0.0,0.0,-1.515,0.0,0.0,-1.916,-2.0997,-2.1486,-2.3446,-2.7567,-2.7445,-2.8423,-3.1279,-3.3648,-3.5138,-3.5642,-3.6872,-3.7519,-3.7519,-3.8052,-3.8826,-3.9929,-4.0416,-4.1178,-4.2142,-4.2429,-4.2634,-4.2634,-4.2634,-4.2634,-4.2634,-4.2634,-4.2851,-4.3366,-4.4013,-4.4485,-4.4818,-4.5511,-4.5786,-4.5837,-1.3646,0.0,-1.4535,-1.4442,-1.5038,-1.6095,-1.778,-1.9575,0.0,0.0,0.0,0.0,-1.985,-1.9493,0.0,0.0,-1.9537,-1.8639,0.0,0.0,-1.5029,-1.4288,-1.2419,0.0,-1.2395,-1.0866,-0.9647,-0.8752,-0.8138,0.0,0.0,0.0,0.0,0.0,0.0,-1.5245,-1.7637,0.0,0.0,-1.7188,-1.7986,-1.8077,-1.817,-2.2274,-2.3882,-2.3966,-2.3602,-2.3059,-2.2217,-2.0988,-1.8171,0.0,-1.5743,0.0,0.0,0.0,0.0,0.0,-0.6286,0.0,0.0,0.0,0.0,0.0,0.0,0.0,0.0,0.0,0.0,0.0,0.0,0.0,0.0,0.0,0.0,-0.7955,0.0,0.0,0.0,0.0,0.0,0.0,-2.0845,-2.0565,-2.2091,-2.6788,-2.6978,-2.8346,-3.1779,-3.4206,-3.5696,-3.6294,-3.726,-3.781,-3.8098,-3.8782,-3.9463,-4.0332,-4.0909,-4.1541,-4.2302,-4.2492,-4.2634,-4.2634,-4.2634,-4.2634,-4.2634,-4.2743,-4.3019,-4.3469,-4.4054,-4.4563,-4.5018,-4.5666,-4.5887,-4.5938,-1.4335,-1.4132,-1.4025,-1.4011,-1.488,-1.6162,-1.7722,-1.8428,0.0,0.0,0.0,0.0,0.0,0.0,0.0,0.0,0.0,-2.4541,-2.2581,0.0,-1.9487,-2.1637,-1.528,-1.346,0.0,-1.2803,-0.9956,-0.8901,0.0,0.0,0.0,0.0,0.0,0.0,0.0,-1.6021,-1.6708,-1.9114,-2.1087,-2.261,-2.2366,-2.3338,-2.4637,0.0,-2.2119,-2.3643,-2.3045,0.0,0.0,-1.912,-1.7874,-1.7231,-1.4184,0.0,0.0,0.0,0.0,0.0,0.0,0.0,0.0,-0.4888,0.0,0.0,0.0,0.0,-0.4211,0.0,0.0,0.0,0.0,0.0,0.0,0.0,0.0,0.0,0.0,0.0,0.0,0.0,0.0,0.0,0.0,-1.7482,-1.893,-2.4745,-2.5845,-2.8358,-3.3143,-3.562,-3.7183,-3.781,-3.7519,-3.8248,-4.006,-3.9376,-3.9647,-4.1008,-4.1327,-4.1525,-4.1591,-4.2285,-4.2634,-4.2634,-4.2634,-4.2634,-4.2634,-4.308,-4.3453,-4.3773,-4.4695,-4.525,-4.5511,-4.602,-4.6186,-4.6284,0.0,0.0,-1.5022,-1.3638,-1.427,-1.5749,-1.7895,-1.9692,0.0,0.0,0.0,0.0,0.0,-2.3682,-2.4078,0.0,0.0,-2.4281,-2.3277,-2.1006,0.0,-2.0384,-1.6239,-1.4408,0.0,0.0,0.0,0.0,0.0,0.0,0.0,0.0,0.0,0.0,0.0,-1.6797,0.0,0.0,0.0,0.0,0.0,-2.2629,-2.3551,0.0,-2.3798,-2.3759,-2.3554,-2.2831,-2.18,-2.0756,-1.8759,-1.6793,-1.7074,-1.476,-1.2062,-1.2726,-1.1405,-0.9569,-0.8489,-0.7977,-0.7422,-0.5734,-0.536,0.0,0.0,0.0,0.0,0.0,0.0,0.0,0.0,0.0,0.0,0.0,0.0,0.0,0.0,0.0,0.0,0.0,0.0,0.0,0.0,0.0,0.0,0.0,-2.7139,0.0,-3.3833,-3.6003,-3.7582,-3.8368,-3.8649,-3.9218,-4.0139,-4.0278,-4.0638,-4.1327,-4.0977,-4.1245,-4.2222,-4.2013,-4.2142,-4.2634,-4.2634,-4.2805,-4.308,-4.3246,-4.3806,-4.464,-4.4984,-4.5425,-4.6003,-4.6332,-4.6477,-4.6542,-1.7011,0.0,-1.5896,-1.4438,-1.5054,-1.6417,-1.8533,0.0,0.0,0.0,-2.432,0.0,-2.5009,0.0,-2.5209,0.0,-2.5744,-2.5055,-2.419,-2.2297,0.0,-2.137,-1.8193,0.0,0.0,0.0,0.0,0.0,0.0,-1.0611,0.0,0.0,0.0,0.0,0.0,0.0,0.0,0.0,-2.1843,0.0,0.0,-2.3057,0.0,0.0,-2.3988,-2.3047,0.0,-2.2759,-2.1765,-2.1316,-1.9578,-1.7745,-1.8673,-1.6266,-1.3161,-1.3735,-1.2113,-0.9792,-0.8832,-0.8364,-0.7798,-0.6347,-0.5927,-0.5515,-0.423,0.0,-0.4517,0.0,0.0,0.0,0.0,0.0,0.0,0.0,0.0,0.0,0.0,0.0,0.0,0.0,0.0,0.0,0.0,0.0,0.0,0.0,0.0,0.0,0.0,-3.6543,-3.7872,-3.9015,-3.929,-3.9844,-4.0811,-4.1044,-4.1393,-4.1868,-4.1393,-4.1656,-4.2571,-4.2077,-4.2142,-4.2634,-4.2805,-4.3064,-4.3453,-4.3806,-4.4529,-4.5407,-4.558,-4.5903,-4.6381,-4.6542,-4.6637,-4.6824,0.0,0.0,-1.6665,-1.6358,-1.6999,-1.8135,0.0,0.0,-2.3583,0.0,-2.5538,-2.6214,-2.5834,-2.7024,-2.7557,-2.6592,-2.7355,-2.7063,-2.5351,-2.3836,0.0,0.0,-2.1164,-2.0149,-2.2461,0.0,0.0,0.0,0.0,0.0,0.0,0.0,0.0,0.0,-1.3336,0.0,-1.9384,-2.0622,-2.3044,-2.6017,-2.545,-2.4642,-2.3838,-2.3896,-2.2792,-2.1349,-2.2522,-2.2562,-2.1836,-2.0747,-2.0301,-2.0067,-1.8919,-1.6945,-1.5108,-1.5296,-1.3068,-1.0361,-0.9943,-0.8999,-0.7922,-0.6655,-0.6292,-0.5927,-0.5058,-0.5213,-0.5564,0.0,0.0,0.0,0.0,0.0,0.0,0.0,0.0,0.0,0.0,0.0,0.0,0.0,0.0,0.0,0.0,0.0,0.0,0.0,0.0,0.0,0.0,-3.6965,-3.8088,-3.9576,-3.9275,-4.0124,-4.2109,-4.1754,-4.1933,-4.2634,-4.2571,-4.2555,-4.2634,-4.2571,-4.2571,-4.268,-4.3141,-4.3512,-4.3872,-4.4749,-4.5459,-4.5968,-4.6429,-4.6637,-4.6637,-4.6637,-4.6778,-4.707,-1.8892,-1.8805,-1.8682,0.0,-1.7536,-1.8205,0.0,0.0,0.0,0.0,-2.6193,-2.6683,-2.7345,-2.7683,-2.7624,-2.6825,-2.7002,0.0,0.0,0.0,0.0,-2.6027,-2.2968,-2.1592,-2.2196,-1.8835,0.0,-1.5532,0.0,0.0,-1.2998,0.0,0.0,0.0,0.0,0.0,-1.9402,-2.0924,-2.3211,-2.5789,-2.534,-2.4164,-2.2667,0.0,-2.2456,-2.0712,-2.1854,-2.1759,-2.1052,-2.0744,-2.0118,-1.9576,-1.9305,-1.8156,-1.6587,-1.4959,-1.3515,-1.2172,-1.0297,-0.941,-0.8852,-0.7908,-0.7413,-0.6924,-0.608,-0.6326,-0.6655,-0.6418,-0.6659,0.0,0.0,0.0,0.0,0.0,0.0,0.0,0.0,0.0,0.0,0.0,0.0,0.0,0.0,0.0,0.0,0.0,0.0,0.0,0.0,0.0,-3.6611,-4.0063,-4.0622,-4.1377,-4.2429,-4.2365,-4.2429,-4.2571,-4.2013,-4.2077,-4.2571,-4.2013,-4.2411,-4.3436,-4.3555,-4.4175,-4.5056,-4.5285,-4.5784,-4.6411,-4.6525,-4.6852,-4.7232,-4.7035,-4.7125,-4.745,-2.0167,0.0,0.0,-1.9576,0.0,0.0,-2.1913,-2.2464,0.0,-2.5568,-2.6464,0.0,-2.6898,-2.7955,-2.8184,-2.7053,-2.7165,0.0,-2.5681,0.0,0.0,-2.5425,-2.4376,-2.3821,-2.3706,-2.136,0.0,-1.7368,0.0,0.0,-1.3232,0.0,0.0,0.0,0.0,-1.5815,0.0,-2.1246,-2.3359,-2.4755,-2.4928,-2.4191,0.0,-2.3349,-2.253,-2.1103,-2.1444,-2.1181,-2.0601,-2.0378,-1.9929,-1.9314,-1.9065,-1.7654,-1.5781,-1.4214,-1.2745,-1.133,-0.9831,-0.9268,-0.9081,-0.854,-0.8119,-0.7751,-0.6966,-0.7008,-0.7285,-0.7453,-0.7327,-0.7416,-0.7899,-0.6918,0.0,0.0,0.0,0.0,0.0,0.0,0.0,0.0,0.0,0.0,0.0,0.0,0.0,0.0,0.0,0.0,0.0,0.0,-3.6345,-4.0255,-4.0829,-4.1581,-4.2696,-4.2326,-4.2326,-4.2696,-4.2222,-4.2222,-4.2696,-4.2285,-4.2724,-4.3848,-4.4021,-4.4732,-4.5699,-4.5885,-4.6297,-4.6778,-4.6637,-4.6962,-4.7511,-4.7371,-4.75,-4.7788,0.0,0.0,0.0,0.0,0.0,0.0,0.0,-2.4002,0.0,-2.5349,0.0,-2.7117,-2.5941,-2.8033,-2.8869,-2.7232,-2.7432,-2.6801,-2.4786,-2.5496,-2.55,-2.4354,-2.5391,-2.5936,-2.5713,-2.4195,-2.205,0.0,0.0,0.0,0.0,0.0,0.0,0.0,0.0,0.0,0.0,-2.1559,-2.3437,-2.3957,-2.4528,-2.4479,-2.3921,-2.3239,-2.2675,-2.2108,-2.1067,-2.0608,-2.0608,-1.9924,-1.9468,-1.919,-1.8581,-1.6621,-1.432,-1.3473,-1.1647,-0.9684,-0.9109,-0.8954,-0.8906,-0.8774,-0.8718,-0.8457,-0.7855,-0.7709,-0.7914,-0.8653,-0.7969,-0.8038,-1.057,-0.8507,0.0,0.0,0.0,0.0,0.0,0.0,0.0,0.0,0.0,0.0,0.0,0.0,0.0,0.0,0.0,0.0,0.0,0.0,-3.6155,-4.0309,-4.0679,-4.1437,-4.2753,-4.2093,-4.2093,-4.2769,-4.271,-4.2821,-4.3068,-4.3068,-4.3486,-4.4249,-4.4674,-4.5303,-4.6067,-4.6459,-4.6842,-4.7025,-4.6824,-4.708,-4.7621,-4.7692,-4.7856,-4.8132,0.0,0.0,0.0,0.0,0.0,-2.5035,-2.6225,-2.6109,-2.6243,-2.7278,-2.8074,-2.8358,-2.7809,-2.831,-2.8357,-2.7441,-2.7132,0.0,0.0,0.0,0.0,-2.541,-2.5605,-2.5791,-2.5843,-2.3777,-2.1709,0.0,0.0,0.0,0.0,0.0,0.0,0.0,0.0,0.0,-2.0428,-2.2151,0.0,-2.5295,-2.4956,-2.471,-2.4479,-2.3464,-2.2901,-2.2675,-2.096,-2.0385,-2.027,-1.9584,-1.9236,-1.8868,-1.8474,-1.7006,-1.5182,-1.4054,-1.2302,-1.049,-0.9458,-0.9028,-0.893,-0.8906,-0.9012,-0.9122,-0.9133,-0.9343,-0.9597,-0.9879,-1.0047,-1.0158,-0.9861,-0.9452,-0.8846,0.0,0.0,0.0,0.0,0.0,0.0,0.0,0.0,0.0,0.0,0.0,0.0,0.0,0.0,0.0,0.0,0.0,0.0,0.0,-4.1917,-4.2443,-4.202,-4.2566,-4.2566,-4.202,-4.2713,-4.3262,-4.3823,-4.3823,-4.4473,-4.5579,-4.5648,-4.6133,-4.6824,-4.6888,-4.7116,-4.7425,-4.7363,-4.771,-4.8231,-4.8269,-4.8458,-4.875,0.0,0.0,0.0,0.0,0.0,0.0,0.0,-2.8442,-2.8734,-2.8321,-2.8239,-2.8025,-2.7702,-2.8394,-2.8675,-2.7914,-2.7885,-2.7614,-2.708,-2.6855,-2.6543,-2.6094,-2.6074,-2.5857,-2.5631,-2.4745,-2.2755,-1.9629,0.0,-1.6316,0.0,0.0,0.0,0.0,0.0,-1.7171,0.0,0.0,-2.3635,-2.4632,-2.4801,-2.4821,-2.471,-2.3464,-2.3014,-2.2788,-2.096,-2.027,-2.0155,-1.9591,-1.9004,-1.8648,-1.8421,-1.6669,-1.4427,-1.3601,-1.1744,-0.9724,-0.9154,-0.8937,-0.8828,-0.9049,-0.9102,-0.9151,-0.9455,-0.9587,-0.9772,-1.016,-1.0644,-1.0853,-1.0529,-1.023,-0.9968,-0.9763,0.0,0.0,0.0,0.0,0.0,0.0,0.0,0.0,0.0,0.0,0.0,0.0,0.0,0.0,0.0,0.0,0.0,0.0,0.0,0.0,-4.2605,-4.2589,-4.2589,-4.2621,-4.3277,-4.3781,-4.4112,-4.4434,-4.5127,-4.6052,-4.6052,-4.6411,-4.6998,-4.6998,-4.7205,-4.7511,-4.7511,-4.7852,-4.8383,-4.8383,-4.8623,-4.8909,0.0,-2.5816,0.0,0.0,-2.6702,-2.7735,-2.8589,-3.012,-3.0735,-2.9281,-2.8502,-2.7955,-2.7743,-2.8714,-2.9065,-2.8594,-2.8779,-2.8643,-2.7978,-2.7764,-2.7363,-2.6689,-2.6572,-2.6197,-2.5647,-2.5867,-2.4049,-1.9963,-1.9686,-1.7598,-1.3723,0.0,0.0,0.0,0.0,0.0,0.0,-2.2245,-2.3635,-2.4088,-2.4571,-2.4821,-2.471,-2.3464,-2.3014,-2.2788,-2.096,-2.027,-2.0155,-1.9475,-1.8894,-1.8421,-1.8305,-1.6042,-1.3512,-1.3103,-1.1051,-0.8962,-0.8962,-0.8858,-0.8853,-0.9161,-0.9154,-0.9123,-0.954,-0.9598,-0.9746,-1.0452,-1.1111,-1.1573,-1.1546,-1.1447,-1.1409,-1.1406,-1.1022,0.0,0.0,0.0,0.0,0.0,0.0,0.0,0.0,0.0,0.0,0.0,0.0,0.0,0.0,0.0,0.0,0.0,0.0,-4.2199,-4.2394,-4.2374,-4.2746,-4.3363,-4.3889,-4.4282,-4.4657,-4.5108,-4.5683,-4.6381,-4.6381,-4.659,-4.6998,-4.7088,-4.7294,-4.7621,-4.7663,-4.8053,-4.8495,-4.8495,-4.866,-4.8909,0.0,0.0,0.0,0.0,0.0,-2.8589,-2.9224,-3.0292,-3.0829,-3.0666,-3.0042,-2.9597,-2.9679,-2.9282,-2.9062,-2.9424,-2.9121,-2.8887,-2.8809,-2.8086,-2.7627,-2.7549,-2.7168,-2.6811,-2.6636,-2.6615,-2.5096,-2.1988,-2.0566,-1.826,-1.5098,-1.411,-1.4711,0.0,-1.7217,-1.954,-2.3039,-2.3171,-2.4103,-2.5428,-2.4991,-2.4821,-2.471,-2.3464,-2.3014,-2.2788,-2.096,-2.027,-2.0155,-1.9229,-1.8648,-1.8298,-1.7713,-1.5569,-1.3297,-1.3159,-1.1232,-0.91,-0.91,-0.9235,-0.9327,-0.9188,-0.9489,-0.9702,-0.9794,-0.9992,-1.0564,-1.1285,-1.2493,-1.321,-1.2475,-1.3968,-1.4714,-1.2826,-1.4537,0.0,0.0,0.0,0.0,0.0,0.0,0.0,0.0,-1.8384,0.0,0.0,0.0,0.0,0.0,0.0,0.0,-3.8593,-3.9303,-3.9432,-3.8955,-4.1946,-4.3373,-4.325,-4.4052,-4.5018,-4.602,-4.607,-4.6381,-4.6934,-4.6934,-4.6934,-4.7025,-4.7338,-4.7663,-4.7992,-4.8231,-4.855,-4.8855,-4.8855,-4.8855,-4.8909,0.0,0.0,0.0,0.0,0.0,0.0,-2.9661,-3.0262,-3.057,-3.0349,-3.0088,-2.9839,-2.9629,-2.9479,-2.9385,-2.9551,-2.9902,-2.999,-2.9707,-2.9274,-2.8639,-2.7854,-2.7449,-2.6883,-2.6257,-2.6418,-2.5236,-2.2703,-2.1163,-1.9021,-1.6383,-1.6262,-1.746,-1.9654,-2.0964,-2.2392,-2.3996,-2.4745,-2.5324,-2.5688,-2.5034,-2.4821,-2.471,-2.3464,-2.3014,-2.2788,-2.096,-2.027,-2.0155,-1.8997,-1.8538,-1.8305,-1.796,-1.5811,-1.3426,-1.3301,-1.1256,-0.9139,-0.9226,-0.9264,-0.9379,-0.9555,-0.977,-0.9854,-1.0212,-1.028,-1.0611,-1.1446,-1.2758,-1.38,-1.3957,-1.4277,-1.4661,-1.4879,-1.5199,-1.6385,0.0,0.0,0.0,0.0,0.0,0.0,0.0,0.0,0.0,0.0,0.0,0.0,0.0,0.0,0.0,-3.5809,0.0,-4.0962,-3.9277,-4.2176,-4.3756,-4.399,-4.4647,-4.5442,-4.6186,-4.6525,-4.6795,-4.6998,-4.6998,-4.7116,-4.7294,-4.7468,-4.777,-4.8231,-4.8345,-4.8623,-4.8909,-4.8839,-4.9012,-4.9193,-2.9553,0.0,-2.8265,0.0,-2.8561,-2.8411,-2.9799,-3.0077,-3.0058,-2.9717,-2.9727,-2.9648,-2.946,-2.9496,-2.9619,-2.9746,-3.0334,-3.0626,-3.0295,-2.9834,-2.9192,-2.8157,-2.7777,-2.7173,-2.616,-2.6421,-2.5693,-2.384,-2.2299,-2.0559,-1.884,-1.8833,-2.0105,-2.2345,-2.391,-2.4776,-2.5307,-2.6179,-2.6323,-2.5838,-2.518,-2.4923,-2.471,-2.3464,-2.3014,-2.2788,-2.096,-2.027,-2.0155,-1.8881,-1.8421,-1.8305,-1.796,-1.5817,-1.3545,-1.3301,-1.1291,-0.9207,-0.931,-0.9382,-0.9523,-0.9794,-0.9923,-1.0018,-1.0378,-1.0457,-1.0692,-1.1787,-1.3083,-1.4272,-1.5143,-1.4922,-1.4924,-1.6072,-1.6353,-1.7276,-1.9795,-2.0823,0.0,0.0,-2.52,-2.5939,-2.8062,-2.5332,0.0,0.0,0.0,0.0,0.0,0.0,0.0,0.0,0.0,0.0,-3.9833,-4.2478,-4.4162,-4.4763,-4.532,-4.5852,-4.6447,-4.6842,-4.6998,-4.6998,-4.6998,-4.7205,-4.7511,-4.7597,-4.7933,-4.8383,-4.8476,-4.8678,-4.8874,-4.8822,-4.8978,-4.9225,-2.9221,-2.9094,-2.9067,-2.9485,-2.9323,-2.9166,-2.9431,-2.9401,-2.9283,-2.8926,-2.8926,-2.9092,-2.9512,-2.957,-2.9736,-3.0156,-3.0364,-3.0382,-3.0382,-2.965,-2.9117,-2.8672,-2.8246,-2.7729,-2.698,-2.698,-2.6667,-2.5922,-2.4299,-2.329,-2.2756,-2.164,-2.2373,-2.4757,-2.517,-2.6243,-2.7719,-2.7413,-2.6846,-2.6211,-2.5488,-2.5017,-2.471,-2.3464,-2.3014,-2.2788,-2.096,-2.027,-2.0155,-1.8881,-1.8421,-1.8298,-1.7719,-1.5569,-1.3181,-1.3181,-1.1378,-0.9335,-0.9335,-0.9576,-0.9747,-0.9803,-1.0073,-1.0333,-1.0334,-1.0476,-1.1131,-1.255,-1.3959,-1.5143,-1.5785,-1.6299,-1.6549,-1.6204,-1.8775,-2.0659,-2.0271,-2.1774,0.0,-2.469,-2.1393,-2.2176,-2.9973,-2.5086,0.0,0.0,0.0,0.0,0.0,0.0,0.0,-3.8499,-3.839,-3.8733,-3.9764,-4.2905,-4.4746,-4.5303,-4.5903,-4.6495,-4.6998,-4.6998,-4.6998,-4.6998,-4.6998,-4.7205,-4.7511,-4.787,-4.8111,-4.8344,-4.8679,-4.8787,-4.8787,-4.8787,-4.8787,-4.8857,-2.9487,-2.9436,-2.9321,-2.9292,-2.9036,-2.8883,-2.8916,-2.8721,-2.8604,-2.8486,-2.8496,-2.8437,-2.8455,-2.9108,-2.9517,-2.9427,-2.9978,-3.0274,-3.0039,-2.9681,-2.9184,-2.8763,-2.8238,-2.7613,-2.7096,-2.682,-2.6626,-2.6389,-2.4757,-2.418,-2.4592,-2.4198,-2.5213,-2.7323,-2.745,-2.7622,-2.7812,-2.7071,-2.6505,-2.622,-2.5284,-2.4923,-2.471,-2.3464,-2.3014,-2.2788,-2.096,-2.027,-2.0155,-1.8881,-1.8421,-1.8305,-1.7719,-1.5688,-1.3545,-1.3545,-1.1744,-0.97,-0.97,-0.963,-0.9748,-1.0008,-1.0108,-1.0228,-1.0683,-1.1428,-1.2381,-1.3222,-1.4277,-1.5143,-1.5785,-1.6311,-1.6721,-1.6883,-1.8458,-2.01,-2.1032,-2.2338,-2.4155,-2.6869,-2.6267,-2.751,-3.2529,-2.9144,0.0,0.0,0.0,0.0,0.0,0.0,0.0,0.0,-3.9024,-4.0754,-3.9781,-4.2534,-4.4373,-4.5303,-4.5459,-4.6102,-4.6998,-4.6998,-4.6998,-4.6998,-4.6998,-4.732,-4.7829,-4.7951,-4.8306,-4.8714,-4.8839,-4.8874,-4.8874,-4.8822,-4.8978,-4.9239,-2.9448,-2.9343,-2.9248,-2.9036,-2.8727,-2.8514,-2.8514,-2.8408,-2.8291,-2.8291,-2.8184,-2.8077,-2.796,-2.8578,-2.9061,-2.9,-2.9661,-2.9912,-2.9804,-2.945,-2.9146,-2.8621,-2.8247,-2.7811,-2.7407,-2.716,-2.7031,-2.7031,-2.6169,-2.6004,-2.6509,-2.6555,-2.7318,-2.8526,-2.8526,-2.8253,-2.7857,-2.723,-2.6805,-2.6443,-2.5718,-2.5353,-2.5128,-2.4089,-2.3552,-2.2977,-2.1595,-2.0715,-2.0155,-1.9113,-1.8538,-1.8181,-1.7232,-1.5445,-1.3665,-1.3665,-1.1744,-0.97,-0.9822,-0.9717,-0.9689,-1.0229,-1.0185,-1.0277,-1.099,-1.197,-1.2808,-1.3759,-1.4595,-1.5357,-1.6099,-1.663,-1.716,-1.7793,-1.9131,-2.0554,-2.2064,-2.3285,-2.4832,-2.6966,-2.7347,-2.8919,-3.2597,-3.1228,-3.0993,0.0,0.0,0.0,0.0,0.0,-3.4659,-3.6872,-4.0885,-4.2459,-4.1352,-4.3239,-4.458,-4.5303,-4.5716,-4.6297,-4.6998,-4.6998,-4.6998,-4.6998,-4.6998,-4.7363,-4.7992,-4.7992,-4.8344,-4.8874,-4.8874,-4.8839,-4.8785,-4.8787,-4.8943,-4.9085,-2.9132,-2.8824,-2.8727,-2.8737,-2.8514,-2.8291,-2.8291,-2.8291,-2.8291,-2.8291,-2.8067,-2.7853,-2.7853,-2.8019,-2.8227,-2.8634,-2.9179,-2.9412,-2.944,-2.9213,-2.8819,-2.8452,-2.8407,-2.8214,-2.782,-2.7783,-2.7765,-2.7765,-2.8214,-2.8434,-2.8443,-2.8491,-2.8562,-2.8562,-2.8535,-2.8268,-2.7993,-2.7839,-2.7552,-2.6946,-2.6545,-2.614,-2.5784,-2.5194,-2.4374,-2.3375,-2.2443,-2.1322,-2.0155,-1.9584,-1.8887,-1.8175,-1.6503,-1.4966,-1.3665,-1.3545,-1.1503,-0.9457,-0.97,-0.971,-0.9676,-1.0226,-1.0181,-1.0358,-1.1393,-1.2123,-1.2891,-1.3954,-1.4917,-1.5773,-1.6518,-1.6955,-1.7589,-1.8916,-2.0357,-2.1785,-2.2985,-2.4412,-2.5391,-2.5723,-2.5683,-2.7149,-3.1016,-3.186,-3.3903,-3.8149,0.0,0.0,0.0,0.0,-3.5682,-4.2797,-4.3514,-4.3855,-4.3998,-4.4855,-4.5303,-4.5355,-4.6459,-4.6998,-4.6998,-4.6998,-4.6998,-4.6998,-4.7025,-4.7407,-4.7992,-4.8032,-4.8344,-4.8822,-4.8822,-4.8732,-4.8623,-4.8713,-4.8676,-4.8509,-2.8834,-2.8727,-2.8621,-2.8398,-2.8291,-2.8291,-2.8291,-2.8291,-2.8184,-2.8067,-2.796,-2.7745,-2.7314,-2.7481,-2.7791,-2.7955,-2.857,-2.8988,-2.9076,-2.9094,-2.8938,-2.8847,-2.8553,-2.8352,-2.8251,-2.793,-2.7765,-2.7765,-2.8489,-2.8847,-2.8856,-2.8899,-2.8837,-2.8567,-2.8273,-2.79,-2.7615,-2.7366,-2.709,-2.6946,-2.6321,-2.5878,-2.5392,-2.4343,-2.355,-2.2906,-2.1521,-2.0787,-2.0155,-1.9584,-1.8887,-1.8175,-1.6503,-1.4723,-1.3186,-1.235,-1.1027,-0.97,-0.9819,-0.9748,-0.9888,-1.0196,-1.0866,-1.1475,-1.2051,-1.2889,-1.3842,-1.4645,-1.5351,-1.5992,-1.6624,-1.6955,-1.7384,-1.7891,-1.9849,-2.1481,-2.1963,-2.3899,-2.5922,-2.7694,-2.7894,-2.9415,-3.3226,-3.4046,-3.4519,-3.4902,-3.6257,-3.748,-3.8302,-3.8452,-4.0023,-4.3348,-4.4593,-4.5163,-4.5108,-4.5355,-4.5631,-4.602,-4.6684,-4.6998,-4.6998,-4.6998,-4.6998,-4.698,-4.7249,-4.7621,-4.8032,-4.821,-4.8514,-4.8874,-4.8874,-4.8874,-4.8781,-4.8334,-4.8156,-4.809,-2.8621,-2.8514,-2.8514,-2.8291,-2.8291,-2.8291,-2.8184,-2.8077,-2.796,-2.7745,-2.753,-2.7389,-2.7259,-2.7373,-2.7641,-2.8003,-2.8367,-2.8787,-2.8957,-2.8984,-2.8984,-2.8984,-2.8783,-2.8663,-2.8663,-2.8434,-2.8324,-2.8324,-2.8948,-2.9259,-2.9019,-2.8985,-2.8718,-2.8333,-2.7938,-2.765,-2.728,-2.7193,-2.7114,-2.6986,-2.6661,-2.6225,-2.5767,-2.4819,-2.4037,-2.313,-2.1977,-2.1075,-2.027,-1.9931,-1.9113,-1.8058,-1.6031,-1.449,-1.3066,-1.1386,-1.0183,-0.9579,-0.994,-0.9958,-0.9921,-1.0568,-1.1243,-1.1921,-1.2687,-1.3396,-1.4102,-1.4849,-1.5577,-1.6211,-1.6624,-1.706,-1.7793,-1.8923,-2.0451,-2.187,-2.2985,-2.451,-2.6274,-2.8402,-2.9006,-3.0582,-3.3946,-3.5453,-3.6183,-3.6054,-3.787,-3.9253,-3.9654,-4.1614,-4.3247,-4.4316,-4.5511,-4.5968,-4.5494,-4.5734,-4.6052,-4.659,-4.6842,-4.6998,-4.6998,-4.6998,-4.6998,-4.6998,-4.7205,-4.7536,-4.7992,-4.8172,-4.8476,-4.8872,-4.85,-4.8317,-4.8243,-4.7555,-4.7348,-4.7335,-2.8291,-2.8291,-2.8291,-2.8291,-2.8184,-2.8077,-2.7853,-2.7853,-2.7745,-2.7431,-2.7154,-2.7222,-2.7475,-2.7345,-2.7572,-2.8333,-2.8397,-2.8563,-2.8957,-2.8984,-2.8984,-2.8984,-2.8984,-2.8984,-2.8984,-2.8984,-2.8984,-2.8865,-2.9443,-2.9419,-2.907,-2.887,-2.8492,-2.8184,-2.7783,-2.7349,-2.7073,-2.7409,-2.7297,-2.7073,-2.7073,-2.6807,-2.6287,-2.5686,-2.4643,-2.3443,-2.2752,-2.1538,-2.027,-2.027,-1.9461,-1.8058,-1.5435,-1.4252,-1.3301,-1.066,-0.97,-0.9579,-1.0183,-1.0076,-1.0108,-1.0998,-1.1459,-1.2005,-1.3093,-1.363,-1.4164,-1.4928,-1.5785,-1.6424,-1.6624,-1.716,-1.8248,-1.9992,-2.1115,-2.2281,-2.4087,-2.5257,-2.6658,-2.8495,-2.9534,-3.118,-3.403,-3.6091,-3.7681,-3.8708,-4.1115,-4.2458,-4.2364,-4.4215,-4.5284,-4.5283,-4.6133,-4.6262,-4.5614,-4.6119,-4.6542,-4.6998,-4.6998,-4.6998,-4.6998,-4.6998,-4.6998,-4.6998,-4.7116,-4.7493,-4.7992,-4.8111,-4.8439,-4.8834,-4.8147,-4.7853,-4.7692,-4.6894,-4.6676,-4.666,-2.8291,-2.8077,-2.796,-2.796,-2.7755,-2.7539,-2.7431,-2.7431,-2.7431,-2.7098,-2.7306,-2.7438,-2.728,-2.7584,-2.7866,-2.8352,-2.8397,-2.8563,-2.8957,-2.8984,-2.8984,-2.8984,-2.8984,-2.8984,-2.8984,-2.8984,-2.8865,-2.8636,-2.936,-2.9466,-2.9235,-2.9195,-2.9033,-2.8576,-2.8192,-2.773,-2.7073,-2.7409,-2.7297,-2.7073,-2.7073,-2.6653,-2.5903,-2.4724,-2.3813,-2.298,-2.185,-2.0895,-2.027,-2.027,-1.9693,-1.8286,-1.5435,-1.4361,-1.3526,-1.1023,-1.0183,-1.0183,-1.0304,-1.0428,-1.0677,-1.1334,-1.1896,-1.2545,-1.3403,-1.4272,-1.4928,-1.5369,-1.6105,-1.6624,-1.673,-1.716,-1.7661,-1.7683,-1.9976,-2.1717,-2.1668,-2.4717,-2.7379,-2.8588,-2.959,-3.1276,-3.4043,-3.5506,-3.7013,-3.8694,-4.1115,-4.252,-4.2458,-4.4158,-4.5337,-4.5684,-4.5935,-4.6049,-4.6147,-4.6666,-4.6934,-4.6998,-4.6998,-4.6998,-4.6998,-4.6998,-4.6998,-4.7025,-4.7621,-4.7911,-4.8032,-4.8569,-4.882,-4.889,-4.876,-4.8723,-4.8571,-4.7481,-4.7062,-4.6986,-2.8067,-2.7853,-2.7638,-2.7638,-2.7539,-2.7314,-2.7215,-2.7206,-2.7182,-2.7077,-2.6976,-2.7105,-2.7765,-2.7678,-2.7791,-2.8654,-2.86,-2.8564,-2.8737,-2.8865,-2.8984,-2.8984,-2.8984,-2.8984,-2.8984,-2.8874,-2.8636,-2.8526,-2.9301,-2.944,-2.8966,-2.9217,-2.9049,-2.8731,-2.8127,-2.7641,-2.7347,-2.7263,-2.7185,-2.7073,-2.7073,-2.6619,-2.5818,-2.4525,-2.3618,-2.2788,-2.166,-2.0859,-2.027,-2.027,-1.9693,-1.8402,-1.5671,-1.4604,-1.3885,-1.1265,-1.0609,-1.064,-1.055,-1.0929,-1.1356,-1.1858,-1.2441,-1.3093,-1.3948,-1.46,-1.5148,-1.5577,-1.6205,-1.6736,-1.6955,-1.7265,-1.8012,-1.9125,-2.0724,-2.2119,-2.3183,-2.562,-2.7558,-2.8588,-3.045,-3.2377,-3.4126,-3.6263,-3.7936,-3.8708,-4.0743,-4.2141,-4.2458,-4.3555,-4.4657,-4.5887,-4.6315,-4.6442,-4.631,-4.676,-4.6998,-4.6998,-4.6998,-4.6998,-4.6998,-4.6998,-4.6998,-4.7043,-4.732,-4.7663,-4.8032,-4.8288,-4.8605,-4.8872,-4.8426,-4.8259,-4.8159,-4.735,-4.7108,-4.7212,-2.7764,-2.753,-2.7323,-2.7323,-2.7215,-2.7107,-2.689,-2.689,-2.6929,-2.7123,-2.6673,-2.6798,-2.8269,-2.7873,-2.7857,-2.8801,-2.8636,-2.8397,-2.8397,-2.8627,-2.8746,-2.8746,-2.8746,-2.8746,-2.8746,-2.8517,-2.8442,-2.8411,-2.91,-2.9243,-2.8728,-2.9101,-2.9112,-2.8759,-2.8152,-2.7826,-2.7715,-2.7355,-2.7201,-2.7193,-2.7107,-2.6619,-2.5818,-2.4525,-2.3618,-2.2788,-2.166,-2.0852,-2.0385,-2.027,-1.9809,-1.8635,-1.5913,-1.4966,-1.4247,-1.1627,-1.1125,-1.1168,-1.1029,-1.1435,-1.1926,-1.2493,-1.2985,-1.3635,-1.4493,-1.4928,-1.5256,-1.5891,-1.6311,-1.6743,-1.7179,-1.7589,-1.8518,-2.044,-2.1445,-2.2646,-2.4497,-2.6374,-2.7746,-2.8588,-3.1216,-3.3318,-3.421,-3.6852,-3.8531,-3.8782,-4.05,-4.1771,-4.2442,-4.2986,-4.4037,-4.5666,-4.6572,-4.6824,-4.628,-4.676,-4.6998,-4.6998,-4.6998,-4.6998,-4.6998,-4.6998,-4.6998,-4.6998,-4.716,-4.7536,-4.7992,-4.8151,-4.8476,-4.8834,-4.8221,-4.798,-4.7936,-4.7451,-4.7418,-4.7631,-2.7615,-2.7206,-2.6989,-2.6989,-2.6791,-2.67,-2.6591,-2.6354,-2.6381,-2.7123,-2.6909,-2.7096,-2.8297,-2.8119,-2.8039,-2.848,-2.8268,-2.802,-2.802,-2.802,-2.802,-2.802,-2.802,-2.802,-2.802,-2.802,-2.8076,-2.807,-2.8506,-2.8772,-2.8742,-2.9102,-2.9093,-2.8777,-2.8725,-2.8494,-2.8126,-2.7732,-2.7569,-2.7535,-2.721,-2.6619,-2.5818,-2.4525,-2.3618,-2.2788,-2.166,-2.0967,-2.0601,-2.0385,-2.004,-1.9223,-1.6031,-1.5084,-1.4609,-1.1989,-1.163,-1.2046,-1.2029,-1.189,-1.2037,-1.3044,-1.3413,-1.3943,-1.4821,-1.5261,-1.5589,-1.6111,-1.6324,-1.6537,-1.7073,-1.8003,-1.884,-1.9223,-2.1278,-2.2983,-2.3297,-2.6144,-2.8319,-2.868,-3.1276,-3.331,-3.4223,-3.6249,-3.7846,-3.8708,-4.05,-4.1771,-4.2442,-4.2986,-4.3764,-4.4746,-4.6363,-4.6888,-4.6235,-4.6731,-4.6998,-4.6998,-4.6998,-4.6998,-4.6998,-4.6998,-4.6998,-4.7025,-4.7663,-4.7951,-4.8032,-4.8587,-4.8874,-4.889,-4.8834,-4.8816,-4.8773,-4.8484,-4.8397,-4.8488,-2.7575,-2.728,-2.7086,-2.6837,-2.6464,-2.6364,-2.6582,-2.6136,-2.6242,-2.7453,-2.6529,-2.6492,-2.8274,-2.7607,-2.7328,-2.8095,-2.7142,-2.639,-2.639,-2.5538,-2.5538,-2.6762,-2.7392,-2.7392,-2.6762,-2.7392,-2.7341,-2.6486,-2.8002,-2.8145,-2.7243,-2.8626,-2.9239,-2.9102,-2.8879,-2.87,-2.8528,-2.8134,-2.7826,-2.7595,-2.7458,-2.6953,-2.6133,-2.5076,-2.4101,-2.3186,-2.2185,-2.1303,-2.0601,-2.0385,-1.9564,-1.8267,-1.6037,-1.4852,-1.3899,-1.2595,-1.2298,-1.2534,-1.3098,-1.2931,-1.2874,-1.3227,-1.3743,-1.4385,-1.4928,-1.5363,-1.5897,-1.6424,-1.6743,-1.7166,-1.8199,-1.8819,-1.9675,-2.1421,-2.2403,-2.3287,-2.4363,-2.6671,-2.8319,-2.8412,-3.1592,-3.3972,-3.4306,-3.6682,-3.8442,-3.8782,-4.013,-4.1327,-4.2458,-4.3987,-4.493,-4.5214,-4.6411,-4.6619,-4.5631,-4.6525,-4.6842,-4.6495,-4.6842,-4.6998,-4.6998,-4.6998,-4.7116,-4.7338,-4.7578,-4.7893,-4.8288,-4.8514,-4.8695,-4.8909,-4.8909,-4.9027,-4.9201,-4.9278,-4.9409,-4.963,-2.7781,-2.7372,-2.7086,-2.6701,-2.6327,-2.6127,-2.6245,-2.5907,-2.6074,-2.7323,-2.6264,-2.6179,-2.8116,-2.7202,-2.6568,-2.7202,-2.5918,-2.5043,-2.4778,-2.3683,-2.369,-2.5032,-2.5782,-2.579,-2.5154,-2.5782,-2.5717,-2.4951,-2.6457,-2.6951,-2.6424,-2.7949,-2.8905,-2.9299,-2.9059,-2.8948,-2.8922,-2.8537,-2.822,-2.7955,-2.7706,-2.7158,-2.6448,-2.5369,-2.435,-2.3217,-2.2063,-2.1296,-2.0723,-1.9802,-1.8855,-1.7793,-1.6155,-1.4738,-1.3674,-1.3435,-1.3177,-1.3217,-1.4038,-1.4044,-1.3842,-1.3661,-1.418,-1.4821,-1.4928,-1.5571,-1.6105,-1.663,-1.6842,-1.7378,-1.8506,-1.9228,-2.0238,-2.2466,-2.3094,-2.3908,-2.5606,-2.72,-2.8308,-2.8691,-3.203,-3.4306,-3.4306,-3.6866,-3.856,-3.8797,-3.9737,-4.0873,-4.2395,-4.4401,-4.5442,-4.5303,-4.6266,-4.6266,-4.5303,-4.6411,-4.6842,-4.6447,-4.6842,-4.6998,-4.698,-4.7116,-4.7294,-4.7511,-4.7705,-4.7995,-4.8421,-4.8495,-4.8695,-4.8909,-4.8909,-4.9094,-4.9427,-4.9598,-4.9857,-5.0111,-2.7961,-2.7453,-2.7057,-2.6713,-2.6379,-2.6017,-2.5688,-2.5459,-2.562,-2.6761,-2.6294,-2.6372,-2.7887,-2.7076,-2.6082,-2.557,-2.4843,-2.4068,-2.3179,-2.3069,-2.3069,-2.3069,-2.3076,-2.3076,-2.3076,-2.3076,-2.3237,-2.3559,-2.3874,-2.4985,-2.6783,-2.7002,-2.7965,-2.9307,-2.9307,-2.9307,-2.929,-2.8931,-2.8785,-2.8708,-2.7929,-2.7167,-2.6456,-2.5369,-2.4203,-2.2788,-2.1266,-2.0938,-2.0859,-1.8629,-1.8156,-1.8033,-1.6161,-1.4748,-1.3808,-1.4391,-1.4478,-1.4376,-1.4831,-1.4942,-1.4823,-1.4359,-1.4617,-1.5041,-1.5041,-1.5684,-1.643,-1.663,-1.673,-1.6836,-1.7477,-1.9109,-2.0735,-2.155,-2.3103,-2.4833,-2.6668,-2.7474,-2.8391,-2.9612,-3.2488,-3.4306,-3.4306,-3.6503,-3.8188,-3.8782,-3.9394,-4.0531,-4.2379,-4.4004,-4.491,-4.491,-4.5768,-4.5903,-4.5303,-4.6411,-4.6998,-4.698,-4.6998,-4.6998,-4.698,-4.7338,-4.7511,-4.7554,-4.8153,-4.8383,-4.8421,-4.875,-4.8909,-4.8909,-4.8909,-4.9094,-4.9415,-4.9415,-4.9569,-4.9838,-2.8037,-2.7531,-2.7056,-2.656,-2.5945,-2.5657,-2.606,-2.543,-2.5509,-2.7017,-2.6231,-2.5933,-2.7169,-2.5957,-2.4938,-2.4779,-2.2965,-2.1094,-1.9668,-1.9546,-1.9546,-1.9546,-2.1566,-2.2194,-2.0923,-2.179,-2.1964,-2.1055,-2.2584,-2.3145,-2.2731,-2.418,-2.5241,-2.5912,-2.7004,-2.7559,-2.7833,-2.8795,-2.9008,-2.8759,-2.8528,-2.7963,-2.7079,-2.5212,-2.3866,-2.2836,-2.0491,-1.9659,-1.9461,-1.8286,-1.7343,-1.6397,-1.4748,-1.4043,-1.3808,-1.4391,-1.4584,-1.457,-1.4879,-1.5063,-1.5138,-1.4608,-1.4934,-1.5369,-1.5571,-1.6099,-1.663,-1.6961,-1.716,-1.7575,-1.8506,-1.9842,-2.1175,-2.2576,-2.3619,-2.4538,-2.5411,-2.6894,-2.8006,-2.8391,-3.1918,-3.4306,-3.4306,-3.6866,-3.8634,-3.8797,-4.017,-4.1444,-4.2442,-4.3698,-4.4546,-4.491,-4.587,-4.6235,-4.5903,-4.6637,-4.6795,-4.6429,-4.6842,-4.6998,-4.698,-4.7116,-4.7425,-4.787,-4.8053,-4.8364,-4.875,-4.8874,-4.8909,-4.8909,-4.8909,-4.9094,-4.9415,-4.9415,-4.9684,-5.0092,-2.8192,-2.7714,-2.7089,-2.646,-2.5839,-2.5491,-2.5707,-2.5319,-2.5448,-2.6641,-2.6244,-2.6045,-2.6525,-2.5228,-2.4096,-2.3375,-2.1088,-1.9176,-1.8033,-1.8033,-1.7905,-1.7781,-1.9553,-2.0176,-1.9285,-2.0036,-2.0094,-1.9328,-2.0666,-2.1198,-2.1181,-2.2443,-2.3474,-2.4424,-2.5375,-2.5935,-2.6352,-2.7294,-2.7439,-2.7245,-2.71,-2.6608,-2.575,-2.4047,-2.2782,-2.1729,-1.9576,-1.8732,-1.8519,-1.7349,-1.6532,-1.5585,-1.4396,-1.4282,-1.4525,-1.4878,-1.511,-1.5156,-1.5243,-1.541,-1.558,-1.5178,-1.5337,-1.5583,-1.5891,-1.6311,-1.6842,-1.7173,-1.7378,-1.7786,-1.8408,-1.9849,-2.1285,-2.2475,-2.3511,-2.4637,-2.5984,-2.7189,-2.8204,-2.9061,-3.2203,-3.4306,-3.4306,-3.6568,-3.8263,-3.8782,-4.05,-4.1771,-4.2442,-4.336,-4.4112,-4.4652,-4.5337,-4.5802,-4.5903,-4.6429,-4.6637,-4.6542,-4.6842,-4.6998,-4.698,-4.7116,-4.7407,-4.7829,-4.7951,-4.8249,-4.8695,-4.8695,-4.8785,-4.8909,-4.8909,-4.9094,-4.9415,-4.9415,-4.9684,-5.0062,-2.8397,-2.7837,-2.7211,-2.6493,-2.6092,-2.5605,-2.4967,-2.5172,-2.5515,-2.5934,-2.6159,-2.6261,-2.6114,-2.4632,-2.3223,-2.1637,-1.9285,-1.7905,-1.7905,-1.7905,-1.7781,-1.7529,-1.7405,-1.7658,-1.7905,-1.7905,-1.8035,-1.8301,-1.8545,-1.9446,-2.1025,-2.1314,-2.2258,-2.3882,-2.4153,-2.4296,-2.473,-2.4873,-2.5008,-2.4971,-2.4538,-2.4029,-2.3396,-2.2274,-2.1164,-1.9865,-1.8276,-1.7935,-1.7923,-1.6183,-1.5601,-1.5477,-1.4873,-1.5116,-1.5601,-1.5601,-1.5844,-1.6031,-1.5771,-1.5978,-1.6175,-1.5922,-1.567,-1.5583,-1.5891,-1.6311,-1.6842,-1.7173,-1.7483,-1.7582,-1.7687,-1.9435,-2.1081,-2.176,-2.3203,-2.5118,-2.7515,-2.7945,-2.8773,-3.0769,-3.2968,-3.4306,-3.4389,-3.6042,-3.7658,-3.8782,-4.0432,-4.1706,-4.2395,-4.2909,-4.3545,-4.4179,-4.4541,-4.4964,-4.5407,-4.5953,-4.6495,-4.6998,-4.6998,-4.6998,-4.6998,-4.7338,-4.7511,-4.7554,-4.787,-4.8172,-4.8458,-4.8458,-4.8623,-4.8909,-4.8909,-4.9094,-4.9415,-4.9415,-4.9569,-4.9884,-2.7771,-2.7353,-2.6946,-2.6497,-2.593,-2.5551,-2.566,-2.5506,-2.5609,-2.6277,-2.5965,-2.5691,-2.5646,-2.348,-2.1901,-2.1224,-1.8927,-1.7529,-1.726,-1.726,-1.7136,-1.7136,-1.7136,-1.713,-1.7265,-1.726,-1.7385,-1.7642,-1.7877,-1.8248,-1.8765,-1.901,-1.9529,-2.0213,-2.1584,-2.2265,-2.2545,-2.4324,-2.4858,-2.4559,-2.4487,-2.4077,-2.3343,-2.1288,-2.0045,-1.9216,-1.7144,-1.6464,-1.6549,-1.5833,-1.5601,-1.5601,-1.5477,-1.5477,-1.5601,-1.5963,-1.6081,-1.6149,-1.6124,-1.6097,-1.6175,-1.5922,-1.588,-1.5891,-1.6418,-1.6624,-1.6836,-1.7371,-1.7582,-1.7891,-1.8715,-1.9952,-2.1387,-2.2685,-2.4295,-2.5693,-2.6648,-2.8121,-2.9476,-3.0718,-3.2905,-3.4555,-3.5318,-3.7218,-3.8708,-3.9466,-4.0231,-4.1024,-4.1706,-4.2332,-4.2909,-4.3486,-4.4412,-4.4855,-4.4855,-4.5768,-4.6495,-4.6998,-4.6998,-4.6998,-4.698,-4.7088,-4.7407,-4.7911,-4.7951,-4.8288,-4.8785,-4.8785,-4.882,-4.8909,-4.8909,-4.9094,-4.9415,-4.9415,-4.9712,-5.0164,-2.7521,-2.7262,-2.6952,-2.6516,-2.6165,-2.5848,-2.5694,-2.5575,-2.5519,-2.5721,-2.5468,-2.5198,-2.4825,-2.3229,-2.1505,-1.9965,-1.8204,-1.7136,-1.7007,-1.7001,-1.7001,-1.7001,-1.7001,-1.7001,-1.7001,-1.712,-1.7303,-1.754,-1.7658,-1.7906,-1.8261,-1.8379,-1.8573,-1.8988,-1.9947,-2.0497,-2.0768,-2.2147,-2.2415,-2.2121,-2.2539,-2.2061,-2.1114,-1.9793,-1.8812,-1.7976,-1.6514,-1.5921,-1.5839,-1.5601,-1.5601,-1.5601,-1.5601,-1.5601,-1.572,-1.5963,-1.62,-1.6284,-1.6506,-1.6539,-1.6434,-1.6303,-1.6193,-1.6211,-1.663,-1.673,-1.6836,-1.7477,-1.7582,-1.7891,-1.902,-2.0158,-2.1387,-2.2894,-2.4205,-2.5499,-2.6829,-2.7945,-2.9131,-3.0687,-3.2857,-3.4664,-3.5937,-3.7491,-3.8546,-3.8899,-3.9651,-4.0493,-4.1459,-4.1836,-4.255,-4.3756,-4.4271,-4.4858,-4.5597,-4.6052,-4.6507,-4.6998,-4.6998,-4.6998,-4.6998,-4.6998,-4.7294,-4.7747,-4.7747,-4.8093,-4.866,-4.866,-4.8837,-4.9127,-4.9127,-4.9315,-4.9598,-4.9721,-5.0097,-5.0567,-2.7401,-2.7306,-2.697,-2.6645,-2.6533,-2.6259,-2.5451,-2.5411,-2.5222,-2.4918,-2.4852,-2.4663,-2.41,-2.2966,-2.1188,-1.8658,-1.7641,-1.7001,-1.7001,-1.7001,-1.7007,-1.6877,-1.7007,-1.7007,-1.6877,-1.7211,-1.7448,-1.7717,-1.776,-1.8008,-1.8433,-1.8433,-1.8573,-1.8848,-1.8988,-1.9128,-1.9401,-1.9831,-1.9825,-1.9541,-2.0104,-1.9798,-1.8642,-1.8426,-1.7753,-1.6706,-1.6219,-1.5833,-1.5601,-1.5359,-1.524,-1.5235,-1.4992,-1.4873,-1.4992,-1.5601,-1.5946,-1.6295,-1.6779,-1.6789,-1.6754,-1.66,-1.6436,-1.638,-1.6636,-1.673,-1.6948,-1.7477,-1.7582,-1.7996,-1.9228,-2.0261,-2.1387,-2.2894,-2.3926,-2.5206,-2.7305,-2.7778,-2.8702,-3.0949,-3.3079,-3.4841,-3.6138,-3.7275,-3.7933,-3.8115,-3.9262,-4.0339,-4.1393,-4.1706,-4.2534,-4.4091,-4.4221,-4.4915,-4.6315,-4.6328,-4.6537,-4.6934,-4.7025,-4.7025,-4.6998,-4.7088,-4.7249,-4.7597,-4.7621,-4.7995,-4.8569,-4.8569,-4.8937,-4.9488,-4.9488,-4.9637,-4.993,-5.0218,-5.0604,-5.0951,-2.7185,-2.7073,-2.7056,-2.7004,-2.6713,-2.6227,-2.5219,-2.5002,-2.4809,-2.4164,-2.3909,-2.3909,-2.4077,-2.1964,-1.9941,-1.8664,-1.7641,-1.7001,-1.7001,-1.7001,-1.6748,-1.6099,-1.6748,-1.6748,-1.6104,-1.6779,-1.7276,-1.7717,-1.7938,-1.818,-1.8433,-1.8433,-1.8433,-1.8433,-1.8848,-1.8848,-1.8573,-1.9407,-1.9407,-1.9128,-1.9128,-1.8832,-1.8385,-1.7948,-1.7358,-1.6707,-1.635,-1.5978,-1.5477,-1.4391,-1.3909,-1.3784,-1.2577,-1.2213,-1.2453,-1.3904,-1.4614,-1.5084,-1.6295,-1.6797,-1.6864,-1.6411,-1.6232,-1.6386,-1.6681,-1.6955,-1.7173,-1.7582,-1.7582,-1.8199,-2.0269,-2.0783,-2.1591,-2.3917,-2.5011,-2.5974,-2.74,-2.833,-2.9704,-3.1877,-3.4069,-3.5588,-3.5749,-3.7092,-3.8037,-3.8427,-3.9733,-4.0774,-4.1327,-4.252,-4.3376,-4.3614,-4.4473,-4.5091,-4.532,-4.6067,-4.6501,-4.6566,-4.7017,-4.7143,-4.6998,-4.7294,-4.7639,-4.7951,-4.8153,-4.8658,-4.927,-4.927,-4.945,-4.9749,-4.9749,-4.9986,-5.0374,-5.0743,-5.102,-5.117,-2.7073,-2.7073,-2.6952,-2.6579,-2.6428,-2.5877,-2.4598,-2.4324,-2.396,-2.3349,-2.3004,-2.2916,-2.3066,-2.15,-1.9839,-1.8566,-1.7558,-1.6618,-1.5839,-1.5839,-1.5709,-1.5453,-1.5709,-1.5709,-1.5453,-1.5828,-1.618,-1.6501,-1.7423,-1.7797,-1.7731,-1.7731,-1.759,-1.7168,-1.7731,-1.8007,-1.7872,-1.8848,-1.8988,-1.8714,-1.9128,-1.8915,-1.8183,-1.8041,-1.7538,-1.6597,-1.6097,-1.5288,-1.451,-1.3909,-1.3181,-1.2457,-1.1852,-1.1732,-1.1852,-1.3057,-1.3416,-1.3775,-1.4738,-1.5427,-1.5807,-1.5456,-1.5812,-1.6359,-1.6655,-1.6955,-1.7279,-1.7582,-1.7483,-1.8101,-2.0475,-2.0767,-2.1473,-2.3935,-2.4637,-2.5489,-2.7105,-2.7757,-2.9131,-3.194,-3.3733,-3.4992,-3.5561,-3.6936,-3.7962,-3.8383,-3.9632,-4.0607,-4.1276,-4.2285,-4.318,-4.3896,-4.4423,-4.5075,-4.6,-4.6406,-4.6707,-4.6954,-4.7214,-4.7258,-4.7143,-4.7294,-4.7529,-4.7847,-4.8072,-4.8421,-4.8853,-4.9042,-4.9424,-4.9904,-4.9904,-5.0255,-5.0773,-5.1023,-5.1145,-5.1205]}]]